[[{"header":{"parameterUnit":"m.s-1","parameterCategory":1,"la1":30.6,"la2":29.2853,"lo1":-89.7004,"lo2":-87.6739,"dx":0.0162,"dy":0.0183,"nx":112,"ny":82,"refTime":"2023-01-11T06:00:00:Z","depth":0,"parameterNumber":2,"parameterNumberName":"U-component_of_WINDS"},"data":[0.0,0.0,0.0,0.0,0.0,0.0,0.0,0.0,0.0,0.0,0.0,0.0,0.0,0.0,0.0,0.0,0.0,0.0,0.0,0.0,0.0,0.0,0.0,0.0,0.0,0.0,0.0,0.0,0.0,0.0,0.0,0.0,0.0,0.0,0.0,0.0,0.0,0.0,0.0,0.0,0.0,0.0,0.0,0.0,0.0,0.0,0.0,0.0,0.0,0.0,0.0,0.0,0.0,0.0,0.0,0.0,0.0,0.0,0.0,0.0,0.0,0.0,0.0,0.0,0.0,0.0,0.0,0.0,0.0,0.0,0.0,0.0,0.0,0.0,0.0,0.0,0.0,0.0,0.0,0.0,0.0,0.0,0.0,0.0,0.0,0.0,0.0,0.0,0.0,0.0,-5.8613,-6.1166,-6.2822,-6.4007,-6.4732,-6.4113,-6.3061,-6.1571,0.0,0.0,0.0,0.0,0.0,0.0,0.0,0.0,0.0,0.0,0.0,0.0,0.0,0.0,0.0,0.0,0.0,0.0,0.0,0.0,0.0,0.0,0.0,0.0,0.0,0.0,0.0,0.0,0.0,0.0,0.0,0.0,0.0,0.0,0.0,0.0,0.0,0.0,0.0,0.0,0.0,0.0,0.0,0.0,0.0,0.0,0.0,0.0,0.0,0.0,0.0,0.0,0.0,0.0,0.0,0.0,0.0,0.0,0.0,0.0,0.0,0.0,0.0,0.0,0.0,0.0,0.0,0.0,0.0,0.0,0.0,0.0,0.0,0.0,0.0,0.0,0.0,0.0,0.0,0.0,0.0,0.0,0.0,0.0,0.0,0.0,0.0,0.0,0.0,0.0,0.0,0.0,0.0,0.0,0.0,0.0,0.0,0.0,0.0,0.0,0.0,0.0,0.0,0.0,-5.8297,-6.1846,-6.3131,-6.3755,-6.3864,-6.3791,-6.3061,-6.1571,0.0,0.0,0.0,0.0,0.0,0.0,0.0,0.0,0.0,0.0,0.0,0.0,0.0,0.0,0.0,0.0,0.0,0.0,0.0,0.0,0.0,0.0,0.0,0.0,0.0,0.0,0.0,0.0,0.0,0.0,0.0,0.0,0.0,0.0,0.0,0.0,0.0,0.0,0.0,0.0,0.0,0.0,0.0,0.0,0.0,0.0,0.0,0.0,0.0,0.0,0.0,0.0,0.0,0.0,0.0,0.0,0.0,0.0,0.0,0.0,0.0,0.0,0.0,0.0,0.0,0.0,0.0,0.0,0.0,0.0,0.0,0.0,0.0,0.0,0.0,0.0,0.0,0.0,0.0,0.0,0.0,0.0,0.0,0.0,0.0,0.0,0.0,0.0,0.0,0.0,0.0,0.0,0.0,0.0,0.0,0.0,0.0,0.0,0.0,0.0,0.0,0.0,0.0,-5.682,-5.8938,-6.2094,-6.274,-6.3007,-6.3007,-6.3007,-6.2323,-6.0855,-6.0343,0.0,0.0,0.0,0.0,0.0,0.0,0.0,0.0,0.0,0.0,0.0,0.0,0.0,0.0,0.0,0.0,0.0,0.0,0.0,0.0,0.0,0.0,0.0,0.0,0.0,0.0,0.0,0.0,0.0,0.0,0.0,0.0,0.0,0.0,0.0,0.0,0.0,0.0,0.0,0.0,0.0,0.0,0.0,0.0,0.0,0.0,0.0,0.0,0.0,0.0,0.0,0.0,0.0,0.0,0.0,0.0,0.0,0.0,0.0,0.0,0.0,0.0,0.0,0.0,0.0,0.0,0.0,0.0,0.0,0.0,0.0,0.0,0.0,0.0,0.0,0.0,0.0,0.0,0.0,0.0,0.0,0.0,0.0,0.0,0.0,0.0,0.0,0.0,0.0,0.0,0.0,0.0,0.0,0.0,0.0,0.0,0.0,0.0,0.0,0.0,0.0,0.0,-5.7758,-5.9613,-6.2127,-6.2381,-6.2381,-6.2381,-6.2245,-6.1569,-6.0182,-5.9945,0.0,0.0,0.0,0.0,0.0,0.0,0.0,0.0,0.0,0.0,0.0,0.0,0.0,0.0,0.0,0.0,0.0,0.0,0.0,0.0,0.0,0.0,0.0,0.0,0.0,0.0,0.0,0.0,0.0,0.0,0.0,0.0,0.0,0.0,0.0,0.0,0.0,0.0,0.0,0.0,0.0,0.0,0.0,0.0,0.0,0.0,0.0,0.0,0.0,0.0,0.0,0.0,0.0,0.0,0.0,0.0,0.0,0.0,0.0,0.0,0.0,0.0,0.0,0.0,0.0,0.0,0.0,0.0,0.0,0.0,0.0,0.0,0.0,0.0,0.0,0.0,0.0,0.0,0.0,0.0,0.0,0.0,0.0,0.0,0.0,0.0,0.0,0.0,0.0,0.0,0.0,0.0,0.0,0.0,0.0,0.0,0.0,0.0,0.0,0.0,0.0,0.0,-5.7568,-5.9729,-6.215,-6.2381,-6.2381,-6.2381,-6.1772,-6.1028,-6.0148,-5.9471,0.0,0.0,0.0,0.0,0.0,0.0,0.0,0.0,0.0,0.0,0.0,0.0,0.0,0.0,0.0,0.0,0.0,0.0,0.0,0.0,0.0,0.0,0.0,0.0,0.0,0.0,0.0,0.0,0.0,0.0,0.0,0.0,0.0,0.0,0.0,0.0,0.0,0.0,0.0,0.0,0.0,0.0,0.0,0.0,0.0,0.0,0.0,0.0,0.0,0.0,0.0,0.0,0.0,0.0,0.0,0.0,0.0,0.0,0.0,0.0,0.0,0.0,0.0,0.0,0.0,0.0,0.0,0.0,0.0,0.0,0.0,0.0,0.0,0.0,0.0,0.0,0.0,0.0,0.0,0.0,0.0,0.0,0.0,0.0,0.0,0.0,0.0,0.0,0.0,0.0,0.0,0.0,0.0,0.0,0.0,0.0,0.0,0.0,0.0,0.0,0.0,0.0,-5.7469,-5.9606,0.0,-6.2381,-6.2381,-6.2381,-6.2144,-6.1434,-6.0182,0.0,0.0,0.0,0.0,0.0,0.0,0.0,0.0,0.0,0.0,0.0,0.0,0.0,0.0,0.0,0.0,0.0,0.0,0.0,0.0,0.0,0.0,0.0,0.0,0.0,0.0,0.0,0.0,0.0,0.0,0.0,0.0,0.0,0.0,0.0,0.0,0.0,0.0,0.0,0.0,0.0,0.0,0.0,0.0,0.0,0.0,0.0,0.0,0.0,0.0,0.0,0.0,0.0,0.0,0.0,0.0,0.0,0.0,0.0,0.0,0.0,0.0,0.0,0.0,0.0,0.0,0.0,0.0,0.0,0.0,0.0,0.0,0.0,0.0,0.0,0.0,0.0,0.0,0.0,0.0,0.0,0.0,0.0,0.0,0.0,0.0,0.0,0.0,0.0,0.0,0.0,0.0,0.0,0.0,0.0,0.0,0.0,0.0,0.0,0.0,0.0,0.0,-5.5143,-5.7691,-6.0063,0.0,-6.2381,-6.2381,-6.2381,-6.2178,-6.14,-5.9844,0.0,0.0,0.0,0.0,0.0,0.0,0.0,0.0,0.0,0.0,0.0,0.0,0.0,0.0,0.0,0.0,0.0,0.0,0.0,0.0,0.0,0.0,0.0,0.0,0.0,0.0,0.0,0.0,0.0,0.0,0.0,0.0,0.0,0.0,0.0,0.0,0.0,0.0,0.0,0.0,0.0,0.0,0.0,0.0,0.0,0.0,0.0,0.0,0.0,0.0,0.0,0.0,0.0,0.0,0.0,0.0,0.0,0.0,0.0,0.0,0.0,0.0,0.0,0.0,0.0,0.0,0.0,0.0,0.0,0.0,0.0,0.0,0.0,0.0,0.0,0.0,0.0,0.0,0.0,0.0,0.0,0.0,0.0,0.0,0.0,0.0,0.0,0.0,0.0,0.0,0.0,0.0,0.0,0.0,0.0,0.0,0.0,0.0,0.0,0.0,0.0,0.0,-5.4649,-5.8204,-6.1078,-6.2263,-6.2381,-6.2381,-6.2381,-6.1738,-6.0655,0.0,0.0,0.0,0.0,0.0,0.0,0.0,0.0,0.0,0.0,0.0,0.0,0.0,0.0,0.0,0.0,0.0,0.0,0.0,0.0,0.0,0.0,0.0,0.0,0.0,0.0,0.0,0.0,0.0,0.0,0.0,0.0,0.0,0.0,0.0,0.0,0.0,0.0,0.0,0.0,0.0,0.0,0.0,0.0,0.0,0.0,0.0,0.0,0.0,0.0,0.0,0.0,0.0,0.0,0.0,0.0,0.0,0.0,0.0,0.0,0.0,0.0,0.0,0.0,0.0,0.0,0.0,0.0,0.0,0.0,0.0,0.0,0.0,0.0,0.0,0.0,0.0,0.0,0.0,0.0,0.0,0.0,0.0,0.0,0.0,0.0,0.0,0.0,0.0,0.0,0.0,0.0,0.0,0.0,0.0,0.0,0.0,0.0,0.0,0.0,0.0,0.0,0.0,-5.577,-5.9405,-6.203,-6.2341,-6.2381,-6.2381,-6.2381,-6.2178,-6.1197,-5.9133,0.0,0.0,0.0,0.0,0.0,0.0,0.0,0.0,0.0,0.0,0.0,0.0,0.0,0.0,0.0,0.0,0.0,0.0,0.0,0.0,0.0,0.0,0.0,0.0,0.0,0.0,0.0,0.0,0.0,0.0,0.0,0.0,0.0,0.0,0.0,0.0,0.0,0.0,0.0,0.0,0.0,0.0,0.0,0.0,0.0,0.0,0.0,0.0,0.0,0.0,0.0,0.0,0.0,0.0,0.0,0.0,0.0,0.0,0.0,0.0,0.0,0.0,0.0,0.0,0.0,0.0,0.0,0.0,0.0,0.0,0.0,0.0,0.0,0.0,0.0,0.0,0.0,0.0,0.0,0.0,0.0,0.0,0.0,0.0,0.0,0.0,0.0,0.0,0.0,0.0,0.0,0.0,0.0,0.0,0.0,0.0,0.0,0.0,0.0,0.0,0.0,0.0,-5.5809,-5.9745,-6.2381,-6.2381,-6.2381,-6.2381,-6.2381,-6.211,-6.1231,-5.9573,0.0,0.0,0.0,0.0,0.0,0.0,0.0,0.0,0.0,0.0,0.0,0.0,0.0,0.0,0.0,0.0,0.0,0.0,0.0,0.0,0.0,0.0,0.0,0.0,0.0,0.0,0.0,0.0,0.0,0.0,0.0,0.0,0.0,0.0,0.0,0.0,0.0,0.0,0.0,0.0,0.0,0.0,0.0,0.0,0.0,0.0,0.0,0.0,0.0,0.0,0.0,0.0,0.0,0.0,0.0,0.0,0.0,0.0,0.0,0.0,0.0,0.0,0.0,0.0,0.0,0.0,0.0,0.0,0.0,0.0,0.0,0.0,0.0,0.0,0.0,0.0,0.0,0.0,0.0,0.0,0.0,0.0,0.0,0.0,0.0,0.0,0.0,0.0,0.0,0.0,0.0,0.0,0.0,0.0,0.0,0.0,0.0,0.0,0.0,0.0,0.0,0.0,-5.5297,-5.9515,-6.2381,-6.2381,-6.2381,-6.2381,-6.2381,-6.1704,-6.096,-6.0148,0.0,0.0,0.0,0.0,0.0,0.0,0.0,0.0,0.0,0.0,0.0,0.0,0.0,0.0,0.0,0.0,0.0,0.0,0.0,0.0,0.0,0.0,0.0,0.0,0.0,0.0,0.0,0.0,0.0,0.0,0.0,0.0,0.0,0.0,0.0,0.0,0.0,0.0,0.0,0.0,0.0,0.0,0.0,0.0,0.0,0.0,0.0,0.0,0.0,0.0,0.0,0.0,0.0,0.0,0.0,0.0,0.0,0.0,0.0,0.0,-5.4728,0.0,0.0,0.0,0.0,0.0,0.0,0.0,0.0,0.0,0.0,0.0,0.0,0.0,0.0,0.0,0.0,0.0,0.0,0.0,0.0,0.0,0.0,0.0,0.0,0.0,0.0,0.0,0.0,0.0,0.0,0.0,0.0,0.0,0.0,0.0,0.0,0.0,0.0,0.0,0.0,0.0,-5.6224,-5.9933,-6.2381,-6.2381,-6.2381,-6.2381,-6.2381,-6.1704,-6.096,-6.0148,-5.8423,0.0,0.0,0.0,0.0,0.0,0.0,0.0,0.0,0.0,0.0,0.0,0.0,0.0,0.0,0.0,0.0,0.0,0.0,0.0,0.0,0.0,0.0,0.0,0.0,0.0,0.0,0.0,0.0,0.0,0.0,0.0,0.0,0.0,0.0,0.0,0.0,0.0,0.0,0.0,0.0,0.0,0.0,0.0,0.0,0.0,0.0,0.0,0.0,0.0,0.0,0.0,0.0,0.0,0.0,0.0,0.0,0.0,0.0,0.0,0.0,-5.5701,0.0,0.0,0.0,0.0,0.0,0.0,0.0,0.0,0.0,0.0,0.0,0.0,0.0,0.0,0.0,0.0,0.0,0.0,0.0,0.0,0.0,0.0,0.0,0.0,0.0,0.0,0.0,0.0,0.0,0.0,0.0,0.0,0.0,0.0,0.0,0.0,0.0,0.0,0.0,0.0,-5.7161,-6.0283,-6.2381,-6.2381,-6.2381,-6.2381,-6.2381,-6.1704,-6.1264,-6.1197,-5.8795,0.0,0.0,0.0,0.0,0.0,0.0,0.0,0.0,0.0,0.0,0.0,0.0,0.0,0.0,0.0,0.0,0.0,0.0,0.0,0.0,0.0,0.0,0.0,0.0,0.0,0.0,0.0,0.0,0.0,0.0,0.0,0.0,0.0,0.0,0.0,0.0,0.0,0.0,0.0,0.0,0.0,0.0,0.0,0.0,0.0,0.0,0.0,0.0,0.0,0.0,0.0,0.0,0.0,-5.7954,-5.8771,-6.0122,-6.0331,-6.0431,-6.0396,-5.9523,-5.9032,-5.8753,-5.7825,0.0,0.0,0.0,0.0,0.0,0.0,0.0,0.0,0.0,0.0,0.0,0.0,0.0,0.0,0.0,0.0,0.0,0.0,0.0,0.0,0.0,0.0,0.0,0.0,-5.9131,-5.8002,-5.4587,0.0,0.0,0.0,0.0,0.0,0.0,0.0,0.0,0.0,0.0,0.0,-5.7941,-6.0588,-6.2381,-6.2381,-6.2381,-6.2381,-6.2381,-6.1704,-6.1603,-6.2347,-5.937,-5.7746,0.0,0.0,0.0,0.0,0.0,0.0,0.0,0.0,0.0,0.0,0.0,0.0,0.0,0.0,0.0,0.0,0.0,0.0,0.0,0.0,0.0,0.0,0.0,0.0,0.0,0.0,0.0,0.0,0.0,0.0,0.0,0.0,-4.7789,-5.0504,0.0,0.0,0.0,0.0,0.0,0.0,0.0,0.0,0.0,0.0,0.0,0.0,0.0,-5.6029,-5.7543,-5.8238,-5.942,-6.1019,-6.1689,-6.253,-6.3511,-6.4213,-6.4526,-6.4453,-6.3649,0.0,-6.204,-6.0555,0.0,0.0,0.0,0.0,0.0,0.0,0.0,0.0,0.0,0.0,0.0,0.0,0.0,0.0,0.0,0.0,0.0,0.0,0.0,0.0,0.0,0.0,-6.1537,-6.0646,-6.0382,-5.9886,0.0,-5.6721,-5.5295,-5.4338,-5.5404,0.0,0.0,0.0,0.0,0.0,0.0,0.0,-5.865,-6.0926,-6.2381,-6.2381,-6.2381,-6.2381,-6.2381,-6.1704,-6.1603,-6.2347,-6.1332,-6.0148,-5.893,-5.5857,0.0,0.0,0.0,0.0,0.0,0.0,0.0,0.0,0.0,0.0,0.0,0.0,0.0,0.0,0.0,0.0,0.0,0.0,0.0,0.0,0.0,0.0,0.0,0.0,0.0,0.0,0.0,0.0,0.0,-4.8339,-5.1731,-5.3597,-5.4426,-5.4668,0.0,0.0,0.0,0.0,0.0,0.0,0.0,0.0,0.0,-5.6465,-5.7291,-5.8251,-5.9355,-6.0603,-6.1594,-6.2291,-6.3613,-6.442,-6.4787,-6.5595,-6.5962,-6.5999,-6.6072,-6.5898,-6.5395,-6.3229,-6.2496,-6.2498,0.0,0.0,0.0,0.0,-5.6427,-5.6427,-5.6427,-5.6934,-5.7442,-5.6697,0.0,0.0,0.0,0.0,0.0,0.0,0.0,0.0,0.0,0.0,-6.1756,-6.1616,-6.1635,-6.1439,-6.0953,-6.0244,-5.9158,0.0,-5.7061,-5.7021,-5.6206,0.0,0.0,0.0,0.0,-5.9626,-6.0752,-6.2144,-6.3024,-6.3024,-6.3024,-6.2854,-6.2415,-6.211,-6.2042,-6.2381,-6.2076,-6.1603,-6.0926,-5.8005,-5.4847,0.0,0.0,0.0,0.0,0.0,0.0,0.0,0.0,0.0,0.0,0.0,0.0,0.0,0.0,0.0,0.0,0.0,0.0,0.0,0.0,0.0,0.0,0.0,0.0,0.0,0.0,0.0,0.0,-5.0936,-5.3917,-5.5602,-5.6134,-5.6395,0.0,0.0,0.0,0.0,0.0,0.0,-5.5462,-5.6236,-5.7255,-5.8561,-5.9612,-6.0395,-6.1006,-6.2658,-6.3441,-6.3441,-6.4934,-6.5632,-6.5632,-6.6439,-6.6806,-6.6843,-6.743,-6.7687,-6.7523,-6.5423,-6.4238,-6.3618,-6.2531,-6.1776,-6.1115,-5.9455,-5.8823,-5.8821,-5.8804,-5.9133,-5.9505,-5.8964,-5.8626,-5.8423,-5.8287,0.0,0.0,0.0,0.0,-6.0554,-6.1129,-6.1434,-6.1704,-6.2245,-6.2381,-6.2381,-6.2381,-6.2381,-6.1773,0.0,-5.8733,-5.8339,-5.874,0.0,0.0,0.0,0.0,-6.1839,-6.2584,-6.3328,-6.3802,-6.3802,-6.3802,-6.3497,-6.2753,-6.2685,-6.2516,-6.2144,-6.211,-6.2009,-6.1806,-5.9231,-5.6639,-5.4258,0.0,0.0,0.0,0.0,0.0,0.0,0.0,0.0,0.0,0.0,0.0,0.0,0.0,0.0,0.0,0.0,0.0,0.0,0.0,0.0,0.0,0.0,0.0,0.0,0.0,0.0,0.0,0.0,0.0,-5.5539,-5.7055,0.0,0.0,0.0,0.0,-5.5605,-5.6294,-5.7094,-5.778,-5.8611,-5.9417,-6.0272,-6.1814,-6.2633,-6.2695,-6.4347,-6.5191,-6.5191,-6.6035,-6.6439,-6.6476,-6.7247,-6.7614,-6.7614,-6.7677,-6.7687,-6.7633,-6.6656,-6.6229,-6.6067,-6.4436,-6.3763,-6.3524,-6.1883,-6.1293,-6.1327,-6.1166,-6.1163,-6.1197,-6.1129,-6.0622,-6.025,-6.167,-6.1129,0.0,0.0,-6.1197,-6.1264,-6.1298,-6.1806,-6.2347,-6.2381,-6.2381,-6.2381,-6.2381,-6.2381,-6.2347,0.0,-6.2127,-6.1891,-6.1264,0.0,-6.1158,-6.1197,-6.1839,-6.2618,-6.3362,-6.4106,-6.4546,-6.4546,-6.4546,-6.4241,-6.3531,-6.3463,-6.2854,-6.1434,-6.1366,-6.1028,-6.025,-5.8933,-5.7324,-5.5369,-5.2359,0.0,0.0,0.0,0.0,0.0,0.0,0.0,0.0,0.0,0.0,0.0,0.0,0.0,0.0,0.0,0.0,0.0,0.0,0.0,0.0,0.0,0.0,0.0,0.0,0.0,0.0,0.0,0.0,-5.6219,-5.6509,0.0,-5.7335,-5.71,-5.6795,-5.6566,-5.7667,-5.8713,-5.9478,-6.0309,-6.1117,-6.1924,-6.3062,-6.3906,-6.4395,-6.5521,-6.6072,-6.6072,-6.688,-6.7247,-6.7283,-6.7577,-6.7687,-6.7687,-6.7687,-6.7687,-6.7687,-6.7341,-6.723,-6.7109,-6.5953,-6.551,-6.5381,-6.4193,-6.338,-6.2921,-6.2869,-6.248,-6.2009,-6.2009,-6.1806,-6.167,-6.2212,-6.2009,-6.1637,-6.1907,-6.2009,-6.2009,-6.2009,-6.2178,-6.2381,-6.2381,-6.2381,-6.2381,-6.2381,-6.2381,-6.2381,-6.2381,-6.2381,-6.2313,-6.2042,-6.2009,-6.2178,-6.2651,-6.2956,-6.3565,-6.4749,-6.5155,-6.529,-6.529,-6.529,-6.4613,-6.2922,-6.2787,-6.2144,-6.0622,-5.9907,-5.9385,-5.9046,-5.7969,-5.6433,-5.4539,-5.3427,-5.0599,0.0,0.0,0.0,0.0,0.0,0.0,0.0,0.0,0.0,0.0,0.0,0.0,0.0,0.0,0.0,0.0,0.0,0.0,0.0,0.0,0.0,0.0,0.0,0.0,0.0,0.0,-5.4922,-5.6715,-5.691,-5.7215,-5.8053,-5.7872,-5.781,-5.8115,-5.9286,-6.0236,-6.0786,-6.1851,-6.2695,-6.3209,-6.431,-6.5154,-6.5705,-6.6512,-6.688,-6.6916,-6.743,-6.7687,-6.7687,-6.7687,-6.7687,-6.7687,-6.7405,-6.7433,-6.7687,-6.7405,-6.7433,-6.766,-6.7053,-6.6852,-6.6671,-6.5422,-6.4631,-6.4078,-6.3498,-6.2893,-6.2381,-6.2381,-6.2381,-6.2381,-6.2381,-6.2381,-6.2381,-6.2381,-6.2381,-6.2381,-6.2381,-6.2381,-6.2381,-6.2381,-6.2584,-6.2753,-6.2753,-6.2956,-6.3125,-6.3125,-6.2922,-6.2685,-6.2415,-6.2618,-6.2753,-6.2787,-6.3193,-6.3768,-6.4478,-6.5222,-6.5696,-6.5696,-6.5899,-6.529,-6.3294,-6.2685,-6.1683,-6.0019,-5.8555,-5.7665,-5.7527,-5.615,-5.4783,-5.3538,-5.3147,-5.0752,-4.6279,0.0,0.0,0.0,0.0,0.0,0.0,0.0,0.0,0.0,0.0,0.0,0.0,0.0,0.0,0.0,0.0,0.0,0.0,0.0,0.0,0.0,0.0,0.0,-5.2198,-5.4296,-5.6092,-5.6808,-5.8311,-5.9551,-6.0346,-5.9722,-5.9588,-6.0382,-6.119,-6.163,-6.1667,-6.3246,-6.4127,-6.4163,-6.5705,-6.6512,-6.6549,-6.7283,-6.7687,-6.7687,-6.7687,-6.7687,-6.7687,-6.7687,-6.7687,-6.766,-6.6823,-6.691,-6.7569,-6.6765,-6.6881,-6.7633,-6.7687,-6.7687,-6.746,-6.5712,-6.4999,-6.4698,-6.2973,-6.2381,-6.2381,-6.2381,-6.2381,-6.2381,-6.2381,-6.2381,-6.2381,-6.2381,-6.2415,-6.2415,-6.2415,-6.2448,-6.2448,-6.2448,-6.3024,-6.3531,-6.3531,-6.4106,-6.4613,-6.4613,-6.4038,-6.3328,-6.2584,-6.3057,-6.3057,-6.1637,-6.2651,0.0,-6.2618,-6.441,-6.5696,-6.5662,-6.6339,-6.617,-6.4647,-6.3187,-6.1535,-5.9614,-5.7376,-5.5969,-5.557,-5.362,-5.2573,-5.2573,-5.1445,-5.0664,-5.0196,0.0,0.0,0.0,0.0,0.0,0.0,0.0,0.0,0.0,0.0,0.0,0.0,0.0,0.0,0.0,0.0,0.0,0.0,0.0,0.0,0.0,0.0,-5.2739,-5.2367,-5.4296,-5.6092,-5.6808,-5.9315,-6.0786,-6.0456,-6.075,-6.1043,-6.1263,-6.2034,-6.2768,-6.3356,-6.4383,-6.5228,-6.5815,-6.6256,-6.6769,-6.7357,-6.7577,-6.7687,-6.7687,-6.7687,-6.7687,-6.7687,-6.7687,-6.7687,-6.7687,-6.746,-6.7146,-6.6765,-6.6493,-6.6156,-6.5868,-6.7165,-6.7286,-6.6671,-6.6217,-6.5166,-6.39,-6.2779,-6.2381,-6.2381,-6.2381,-6.2381,-6.2381,-6.2381,-6.2381,-6.2381,-6.2381,-6.2787,-6.3193,-6.3193,-6.3599,-6.4005,-6.4005,-6.414,-6.4309,-6.4309,-6.4478,-6.4613,-6.4613,-6.4884,-6.485,-6.4106,-6.4174,-6.4343,-6.4444,-6.4816,0.0,-6.5561,-6.6136,-6.6102,-6.5019,-6.5561,-6.5189,-6.3159,-6.2297,-6.1143,-5.9606,-5.683,-5.4995,-5.4416,-5.2575,-5.1819,-5.2307,-5.0591,-4.9914,0.0,0.0,0.0,0.0,0.0,0.0,0.0,0.0,0.0,0.0,0.0,0.0,0.0,0.0,0.0,0.0,0.0,0.0,0.0,0.0,0.0,0.0,-5.3484,-5.4363,-5.4194,-5.6245,-5.7907,-5.8338,-6.0909,-6.2438,-6.1998,-6.2365,-6.2768,-6.3135,-6.3576,-6.409,-6.4567,-6.5375,-6.6035,-6.6476,-6.6843,-6.721,-6.7687,-6.7687,-6.7687,-6.7687,-6.7687,-6.7687,-6.7687,-6.7687,-6.7687,-6.7687,-6.7286,-6.7271,-6.7353,-6.6264,-6.5927,0.0,0.0,0.0,0.0,0.0,-6.4358,-6.3087,-6.2581,-6.2381,-6.2381,-6.2381,-6.2381,-6.2448,-6.2753,-6.2854,-6.2922,-6.3226,-6.3632,-6.3971,-6.3971,-6.4275,-6.4613,-6.4613,-6.485,-6.5053,-6.5053,-6.529,-6.5527,-6.5527,-6.5865,0.0,-6.5595,-6.5256,-6.4986,-6.4816,-6.5019,-6.529,-6.5425,-6.5967,-6.6,-6.5155,-6.573,-6.5527,-6.3903,-6.2474,0.0,0.0,0.0,-5.4191,-5.2811,-5.1753,0.0,0.0,0.0,0.0,0.0,0.0,0.0,0.0,-4.9867,-4.9045,0.0,0.0,0.0,0.0,0.0,0.0,0.0,0.0,0.0,0.0,0.0,0.0,0.0,0.0,0.0,0.0,-5.4634,-5.6325,-5.707,-5.9208,-6.0689,-6.0574,-6.2802,-6.431,-6.4237,-6.4383,-6.4714,-6.5264,-6.5485,-6.5521,-6.5448,0.0,0.0,0.0,0.0,-6.7687,-6.7687,-6.7687,-6.7724,-6.7834,-6.7834,-6.7871,-6.7944,-6.7944,-6.7917,-6.7781,-6.699,-6.7389,-6.8356,-6.6057,-6.5936,-6.7092,-6.5485,-6.4833,-6.4732,-6.3864,-6.3049,-6.2381,-6.2381,0.0,0.0,-6.2381,-6.2448,-6.2651,-6.3294,-6.3565,-6.3768,-6.441,-6.4647,-6.4715,-6.4715,-6.4783,-6.485,-6.485,-6.5358,-6.5797,-6.5797,-6.6339,-6.6812,-6.6812,-6.6812,-6.6812,-6.6812,-6.6271,-6.5392,-6.4072,-6.4444,-6.4613,-6.3971,-6.5019,-6.5764,-6.5561,0.0,0.0,-6.5429,-6.306,-6.1129,-5.9968,-5.6668,-5.3741,-5.1546,-5.1439,-5.1439,-5.1439,-5.1439,-5.2306,-5.4102,-5.4102,-5.4102,-5.4012,-4.9883,-4.8865,0.0,0.0,0.0,0.0,0.0,0.0,0.0,0.0,0.0,0.0,0.0,0.0,0.0,0.0,0.0,-5.5852,-5.7306,-5.8626,-5.937,-6.1043,-6.2015,-6.1432,-6.4134,-6.5778,-6.5118,-6.6219,-6.6512,-6.5411,-6.6512,-6.6953,-6.6292,-6.7026,-6.7467,-6.7467,-6.7614,-6.7687,-6.7687,-6.7687,-6.8017,-6.8678,0.0,0.0,-6.9633,-6.9633,-6.9222,-6.85,-6.8347,-6.7585,-6.6424,-6.5924,-6.5513,-6.5126,-6.4275,-6.3936,-6.3829,-6.2973,-6.2542,-6.2381,-6.2381,-6.2381,-6.2381,-6.2381,-6.2787,-6.3328,-6.3463,-6.3937,0.0,-6.4546,-6.5019,-6.5493,-6.5493,-6.5933,-6.6373,-6.6373,-6.6508,-6.6609,-6.6609,-6.6711,-6.6812,-6.6812,-6.6812,-6.6812,-6.6812,-6.6677,-6.6508,-6.6203,-6.6305,-6.6339,-6.6203,-6.6406,-6.6136,-6.4952,-6.5459,-6.5186,-6.3448,-6.2386,-6.1344,-6.0121,-5.6934,-5.4409,-5.2845,-5.2785,-5.2785,-5.2785,-5.2785,-5.2995,-5.3384,-5.3384,-5.3384,-5.3354,-5.2456,-5.1947,0.0,0.0,0.0,0.0,0.0,0.0,0.0,0.0,0.0,0.0,0.0,-5.4262,0.0,0.0,-5.7374,-5.734,-5.8592,-5.981,-6.0588,-6.1826,-6.2927,-6.3801,-6.5418,-6.6764,-6.7623,-6.8054,-6.7981,-6.7173,-6.7834,-6.7944,-6.7136,-6.7467,-6.7687,-6.7687,-6.7687,-6.7871,-6.8311,-6.8311,-6.8715,-6.9486,-6.9486,-6.9706,-7.011,-7.011,-6.9811,-6.9368,-6.8873,-6.8389,-6.7833,-6.6899,-6.5774,-6.4553,-6.4254,-6.3901,-6.3555,-6.3119,-6.2719,-6.2381,-6.2381,-6.2381,-6.2448,-6.2821,-6.3193,-6.3666,-6.4377,-6.485,-6.5222,-6.5595,-6.5967,-6.6237,-6.6237,-6.6542,-6.6812,-6.6812,-6.6812,-6.6812,-6.6812,-6.6812,-6.6812,-6.6812,-6.6812,-6.6812,-6.6812,-6.6812,-6.6812,-6.6812,-6.6812,-6.6812,-6.6812,-6.6812,-6.6542,-6.5797,-6.6034,-6.5572,-6.3936,-6.209,-6.0321,-5.8685,-5.6787,-5.5239,-5.4221,-5.3862,-5.3683,-5.3683,-5.3354,-5.3354,-5.3683,-5.3683,-5.3683,-5.3683,-5.3683,-5.3324,0.0,0.0,0.0,0.0,0.0,0.0,0.0,0.0,-5.5277,-5.5412,-5.5953,-5.6461,-5.6731,-5.8355,-5.9471,-5.8863,-5.9877,-6.0994,-6.1637,-6.2327,-6.3688,-6.6109,-6.6535,-6.7468,-6.9608,-6.9403,-6.9082,-6.8898,-6.8898,-6.8568,-6.7724,-6.7687,-6.776,-6.7907,-6.7907,-6.8311,-6.9119,-6.9119,-6.9559,-7.033,-7.033,-7.0403,-7.055,-7.0372,-7.0164,-6.996,-6.8834,-6.8696,-6.9199,-6.7666,-6.6268,-6.5019,-6.5019,-6.458,-6.3903,-6.3768,-6.3328,-6.2821,-6.2821,-6.2821,-6.2922,-6.3531,-6.3835,-6.414,-6.5324,-6.5797,-6.6034,-6.6643,-6.6812,-6.6812,-6.6812,-6.6812,-6.6812,-6.6812,-6.6812,-6.6812,-6.6812,-6.6812,-6.6812,-6.6812,-6.6812,-6.6812,-6.6812,-6.6812,-6.6812,-6.6812,-6.6812,-6.6812,-6.6812,-6.6812,-6.6812,-6.6812,-6.6812,-6.6192,-6.4642,-6.1931,-5.9348,-5.7228,-5.6615,-5.6017,-5.5209,-5.467,-5.4341,-5.4221,-5.3653,-5.3593,-5.4012,-5.4012,-5.4012,-5.4012,-5.4012,-5.3713,-4.7671,-4.8789,0.0,-5.143,-5.3031,-5.4598,0.0,0.0,-5.7712,-5.8389,-5.8592,-5.9066,-6.0419,-6.14,-6.1975,-6.1907,-6.2584,-6.3159,-6.326,-6.334,-6.4288,-6.674,-6.7285,-6.7836,-6.877,-6.95,-6.9669,-6.8972,-6.8898,-6.8568,-6.7724,-6.7687,-6.8017,-6.8752,-6.8788,-6.9155,-6.9963,-6.9963,-7.0367,-7.1174,-7.1174,-7.1541,-7.221,-7.138,-7.0548,-6.9635,-6.7821,-6.708,-6.7107,-6.6935,-6.6693,-6.6576,-6.6576,-6.6102,-6.5358,-6.4715,-6.441,-6.4343,-6.4343,-6.4343,-6.4377,-6.4444,-6.4918,-6.5459,-6.5628,-6.617,-6.6711,-6.6779,-6.6812,-6.6812,-6.6812,-6.6812,-6.6812,-6.6812,-6.6812,-6.6812,-6.6812,-6.6812,-6.6812,-6.6812,-6.6812,-6.6812,-6.6812,-6.6812,-6.6812,-6.6812,-6.6812,-6.6812,-6.6812,-6.6812,-6.6812,-6.6812,-6.6812,-6.5811,-6.3434,-6.1783,-5.9809,-5.7258,-5.7034,-5.6466,-5.5239,-5.5119,-5.482,-5.4221,-5.4132,-5.3832,-5.3294,-5.3294,-5.3294,-5.3294,-5.3294,-5.3264,-4.8769,0.0,0.0,0.0,-5.6311,-5.7442,-5.849,-5.9641,-6.0588,-6.0926,-6.1332,-6.1706,-6.2032,-6.2049,-6.1991,0.0,-6.185,-6.2063,-6.2775,-6.2854,-6.3385,-6.4845,-6.604,-6.7458,-6.9228,-6.9316,-6.9158,-6.8944,-6.8898,-6.8752,-6.8421,-6.8385,-6.8752,-6.9559,-6.9596,-7.0,-7.0807,-7.0807,-7.1211,-7.199,-7.1441,-7.1375,-7.1635,-7.0701,-6.9743,-6.876,-6.7985,-6.7291,-6.6812,-6.6812,-6.6812,-6.6812,-6.6812,-6.6609,-6.6237,-6.5493,-6.4952,-6.4613,-6.4613,-6.4613,-6.4681,-6.5087,-6.5425,-6.5764,-6.6203,-6.6576,-6.6812,-6.6812,-6.6812,-6.6812,-6.6812,-6.6812,-6.6812,-6.6812,-6.6812,-6.6812,-6.6812,-6.6812,-6.6812,-6.6812,-6.6812,-6.6812,-6.6812,-6.6812,-6.6812,-6.6812,-6.6812,-6.6812,-6.6812,-6.6812,-6.6525,-6.5734,-6.4335,-6.2988,-6.1946,-6.027,-5.8684,-5.7206,-5.6765,-5.6137,-5.5239,-5.482,-5.4491,-5.4221,-5.3832,-5.3653,-5.3773,-5.3773,-5.3982,-5.4341,-5.4341,-5.4341,-5.0689,0.0,0.0,-5.7833,-5.8761,-5.937,-6.0723,-6.1738,-6.2516,-6.2922,-6.3155,-6.3233,-6.3012,-6.2464,-6.1969,-6.1926,-6.1589,-6.1699,-6.2566,-6.2685,-6.3074,-6.4024,-6.5324,-6.6943,-6.9057,-6.8971,-6.8786,-6.888,-6.8898,-6.8898,-6.8898,-6.9119,-6.9596,-7.0403,-7.044,-7.0807,-7.1651,-7.1348,-7.1553,-7.2101,-7.1159,-7.0701,-7.0701,-6.9708,-6.8723,-6.7827,-6.7827,-6.7454,-6.6812,-6.6812,-6.6812,-6.6812,-6.6812,-6.6812,-6.6745,-6.6203,-6.5662,-6.5222,-6.5222,-6.5222,-6.529,-6.5831,-6.6,-6.6102,-6.6643,-6.6812,-6.6812,-6.6812,-6.6812,-6.6812,-6.6812,-6.6812,-6.6812,-6.6812,-6.6812,-6.6812,-6.6812,-6.6812,-6.6812,-6.6812,-6.6812,-6.6686,-6.632,-6.6278,-6.6148,-6.5811,-6.6062,-6.6406,-6.677,-6.6482,-6.5942,-6.5036,-6.2892,-6.1333,-6.0792,-5.9448,-5.8143,-5.6937,-5.6406,-5.5867,-5.5209,-5.473,-5.4491,-5.4491,-5.3982,-5.3982,-5.4491,-5.4491,-5.473,-5.5179,-5.5179,-5.5179,-5.4436,0.0,-5.6357,-5.9302,-5.9505,-5.9776,-6.2753,-6.2888,-6.2787,-6.4241,-6.3566,-6.2958,-6.3605,-6.3177,-6.264,-6.264,-6.3091,-6.3423,-6.3457,-6.3497,-6.4058,-6.5642,-6.5862,-6.6354,0.0,-6.8385,-6.8908,-6.8898,-6.8898,-6.8898,-6.8898,-6.9633,-7.044,-7.1248,-7.1284,-7.1651,-7.2459,-7.1568,-7.1123,-7.1127,-7.0196,-6.9743,-6.9708,-6.8685,-6.7708,-6.6854,-6.6854,-6.6812,-6.6812,-6.6812,-6.6812,-6.6812,-6.6812,-6.6812,-6.6812,-6.6779,-6.6779,-6.6745,-6.6745,-6.6745,-6.6745,-6.6779,-6.6779,-6.6779,-6.6812,-6.6812,-6.6812,-6.6812,-6.6812,-6.6812,-6.6812,-6.6812,-6.6812,-6.6812,-6.6812,-6.6812,-6.6812,-6.6812,-6.6812,-6.6812,-6.6812,-6.644,-6.5171,-6.4992,-6.4551,-6.3292,-6.4184,-6.5393,-6.661,-6.569,-6.4914,-6.4914,-6.3732,-6.2185,-6.0272,-6.0059,-5.8949,-5.6389,-5.6248,-5.5867,-5.5209,-5.5179,-5.5149,-5.5149,-5.5149,-5.5149,-5.5149,-5.5149,-5.5179,-5.5179,-5.5179,-5.5179,-5.522,0.0,-5.849,-6.0994,-6.1434,-6.1772,-6.3768,-6.4038,-6.3903,-6.4057,-6.4112,-6.3714,-6.222,-6.1707,-6.1491,-6.1367,-6.149,-6.2058,-6.3429,-6.3618,-6.4058,-6.5163,-6.5847,0.0,0.0,0.0,0.0,-6.81,-6.8605,-6.9119,-6.9669,-7.0477,-7.1284,-7.2092,-7.2092,-7.1904,-7.1573,-7.1255,-7.08,-7.0162,-6.9168,-6.8378,-6.7742,-6.7414,-6.7078,-6.6812,-6.6812,-6.6812,-6.6812,-6.6812,-6.6812,-6.6812,-6.6812,-6.6812,-6.6812,-6.6812,-6.6812,-6.6812,-6.6812,-6.6812,-6.6812,-6.6812,-6.6812,-6.6812,-6.6812,-6.6812,-6.6812,-6.6812,-6.6812,-6.6812,-6.6812,-6.6812,-6.6812,-6.6812,-6.6812,-6.6812,-6.6812,-6.6812,-6.6812,-6.6812,-6.6148,-6.5393,-6.4959,-6.423,-6.3497,-6.3068,-6.4059,-6.5081,-6.5514,-6.4414,-6.3307,-6.2407,-6.1173,-5.9958,-5.8849,-5.8365,-5.7553,-5.6278,-5.5777,-5.5418,-5.5209,-5.5179,-5.5179,-5.5179,-5.5179,-5.5179,-5.5179,-5.5179,-5.5179,-5.5179,-5.5179,-5.5179,-5.6376,-5.8446,-5.9945,-6.2212,-6.2584,-6.2787,-6.4275,-6.441,-6.4184,-6.42,-6.4178,-6.3732,-6.2045,-6.1439,-6.1384,-6.1754,-6.1928,-6.2522,-6.3878,-6.4064,-6.4427,-6.5397,-6.6028,-6.6523,0.0,0.0,0.0,-6.8137,-6.9155,-7.0,-7.0513,-7.1284,-7.1982,-7.2496,-7.2197,-7.1732,-7.1127,-7.0398,-6.9601,-6.8645,-6.8024,-6.7373,-6.6812,-6.6812,-6.6812,-6.6812,-6.6812,-6.6812,-6.6812,-6.6812,-6.6812,-6.6812,-6.6812,-6.6812,-6.6812,-6.6812,-6.6812,-6.6812,-6.6812,-6.6812,-6.6812,-6.6812,-6.6812,-6.6812,-6.6812,-6.6812,-6.6812,-6.6812,-6.6812,-6.6812,-6.6812,-6.6812,-6.6812,-6.6812,-6.6812,-6.6812,-6.6812,-6.6812,-6.6812,-6.6812,-6.5734,-6.4733,-6.4322,-6.2779,-6.1778,-6.2193,-6.2988,-6.3653,-6.4151,-6.3116,-6.1946,-6.1091,-5.9864,-5.874,-5.7842,-5.7363,-5.6735,-5.5867,-5.5418,-5.5179,-5.5179,-5.5179,-5.5179,-5.5179,-5.5179,-5.5179,-5.5179,-5.5179,-5.5179,-5.5179,-5.5179,-5.5179,-5.797,-5.9904,-6.0791,-6.3024,-6.3024,-6.2854,-6.4275,-6.4072,-6.3781,-6.4641,-6.3822,-6.3004,0.0,0.0,-6.2289,-6.3526,-6.417,-6.4534,-6.4712,-6.4759,-6.5233,0.0,0.0,0.0,0.0,0.0,0.0,-6.9009,0.0,-7.1293,-7.1293,-7.1998,-7.2438,-7.2438,-7.1511,-7.1031,-7.0962,-6.906,-6.7668,-6.6812,-6.6812,-6.6812,-6.6812,-6.6812,-6.6812,-6.6812,-6.6812,-6.6812,-6.6812,-6.6812,-6.6812,-6.6812,-6.6812,-6.6812,-6.6812,-6.6812,-6.6812,-6.6812,-6.6812,-6.6812,-6.6812,-6.6812,-6.6812,-6.6812,-6.6812,-6.6812,-6.6812,-6.6812,-6.6812,-6.6812,-6.6812,-6.6812,-6.6812,-6.6812,-6.6812,-6.6812,-6.6812,-6.6812,-6.677,-6.6728,-6.5603,-6.4322,-6.3052,-6.0743,-5.9523,-6.0712,-6.0887,-6.1395,-6.2731,-6.1796,-6.0989,-6.0887,-5.9781,-5.853,-5.7214,-5.7064,-5.6526,-5.5269,-5.5179,-5.5179,-5.5179,-5.5179,-5.5179,-5.5179,-5.5179,-5.5179,-5.5179,-5.5179,-5.5179,-5.5179,-5.5179,-5.5179,-5.9249,-6.148,-6.2922,-6.4038,-6.4174,-6.414,-6.4512,-6.4444,-6.4117,-6.344,-6.2977,-6.2613,0.0,0.0,0.0,-6.287,-6.2966,0.0,-6.3885,-6.4533,0.0,-6.6283,0.0,-6.768,-6.8504,-6.9302,0.0,0.0,-7.1101,-7.1293,-7.1293,-7.1387,-7.148,-7.148,-7.0568,-6.9708,-6.9019,-6.7782,-6.7029,-6.6812,-6.6812,-6.6812,-6.6812,-6.6812,-6.6812,-6.6812,-6.6812,-6.6812,-6.6812,-6.6812,-6.6812,-6.6812,-6.6812,-6.6812,-6.6812,-6.6812,-6.6812,-6.6812,-6.6812,-6.6812,-6.6812,-6.6812,-6.6812,-6.6812,-6.6812,-6.6812,-6.6812,-6.6812,-6.6812,-6.6812,-6.6812,-6.6812,-6.6812,-6.6812,-6.6812,-6.6812,-6.6812,-6.6812,-6.6525,-6.5559,-6.3559,-6.1596,-6.0307,-5.9553,-5.9207,-5.9523,-5.9576,-6.0045,-6.1344,-6.1193,-6.0609,-5.9683,-5.8864,-5.8022,-5.7154,-5.6675,-5.6077,-5.5239,-5.5179,-5.5179,-5.5179,-5.5179,-5.5179,-5.5179,-5.5179,-5.5179,-5.5179,-5.5179,-5.5179,-5.5179,-5.5179,-5.5179,-5.9859,-6.2339,-6.4174,-6.4884,-6.5087,-6.4918,-6.4275,-6.4377,-6.4151,-6.2537,-6.2442,0.0,0.0,0.0,0.0,0.0,0.0,0.0,-6.4539,-6.5128,-6.5827,0.0,-6.7684,0.0,-6.9339,-7.0146,-7.0807,0.0,-7.1651,-7.1655,-7.1228,-7.1132,-7.0898,-7.0501,-6.9566,-6.8607,-6.7656,-6.7071,-6.6812,-6.6812,-6.6812,-6.6812,-6.6812,-6.6812,-6.6812,-6.6812,0.0,-6.6812,-6.6812,-6.6812,-6.6812,-6.6812,-6.6812,-6.6812,-6.6812,-6.6812,-6.6812,-6.6812,-6.6812,-6.6812,-6.6812,-6.6812,-6.6812,-6.6812,-6.6812,-6.6812,-6.6812,-6.6812,-6.6812,-6.6812,-6.6812,-6.6812,-6.6812,-6.6812,-6.6812,-6.6812,-6.6812,-6.6363,-6.5426,-6.3559,-6.2013,-6.0588,-5.9339,-5.9099,-5.9099,-5.9099,-5.9099,-5.9339,-6.0045,-6.015,-5.9917,-5.9207,-5.853,-5.7842,-5.7154,-5.6526,-5.5897,-5.5239,-5.5179,-5.5179,-5.5179,-5.5179,-5.5179,-5.5179,-5.5179,-5.5179,-5.5179,-5.5179,-5.5179,-5.5179,-5.4509,-5.4252,-6.0315,-6.2967,-6.4884,-6.5527,-6.5764,-6.5425,-6.3869,-6.4072,-6.4024,-6.2122,0.0,-6.2934,-6.3771,-6.3198,-6.3511,-6.6104,0.0,-6.4597,-6.5317,-6.5828,-6.6434,-6.7307,-6.8393,-6.9376,-7.0183,-7.0881,-7.1329,-7.1439,-7.1977,-7.1981,-7.1159,-7.0962,-7.0434,-6.9349,-6.8562,-6.7759,-6.6948,-6.6948,-6.6948,-6.6948,-6.688,-6.6812,-6.6812,-6.6812,-6.6812,-6.6812,-6.6812,-6.6812,-6.6812,-6.6812,-6.6812,-6.6812,-6.6812,-6.6812,-6.6812,-6.6812,-6.6812,-6.6812,-6.6812,-6.6812,-6.6812,-6.6812,-6.6812,-6.6812,-6.6812,-6.6812,-6.6812,-6.6812,-6.6812,-6.6812,-6.6812,-6.6812,-6.6812,-6.6812,-6.6812,-6.677,-6.6567,-6.5426,-6.37,-6.1445,-6.0866,-6.038,-5.9285,-5.9099,-5.9099,-5.9099,-5.9099,-5.9099,-5.9099,-5.9099,-5.9099,-5.9099,-5.853,-5.7842,-5.7154,-5.6526,-5.5897,-5.5239,-5.5179,-5.5179,-5.5179,-5.5179,-5.5179,-5.5179,-5.5179,-5.5179,-5.5179,-5.5179,-5.5078,-5.4845,-5.3571,-5.3016,-6.1883,-6.3957,-6.5527,-6.5662,-6.617,-6.6068,-6.4005,-6.4072,0.0,0.0,0.0,-6.2879,-6.4226,-6.335,-6.2986,-6.4708,0.0,0.0,0.0,0.0,-6.6235,0.0,0.0,0.0,0.0,0.0,0.0,0.0,0.0,-7.1255,-7.1127,-7.0366,-6.913,-6.7366,-6.7732,-6.787,-6.7692,-6.7726,-6.7726,-6.7692,-6.7117,-6.6812,-6.6812,-6.6812,-6.6812,-6.6812,-6.6812,0.0,-6.6812,-6.6812,-6.6812,-6.6812,-6.6812,-6.6812,-6.6812,-6.6812,-6.6812,-6.6812,-6.6812,-6.6812,-6.6812,-6.6812,-6.6812,-6.6812,-6.6812,-6.6812,-6.6812,-6.6812,-6.6812,-6.6812,-6.6812,-6.6812,-6.6812,-6.6812,-6.6812,-6.6525,-6.547,-6.337,-6.1546,-6.1091,-6.015,-5.9339,-5.9153,-5.9099,-5.9099,-5.9099,-5.9099,-5.9099,-5.9099,-5.9099,-5.9099,-5.9099,-5.853,-5.7842,-5.7154,-5.6526,-5.5897,-5.5239,-5.5179,-5.5179,-5.5179,-5.5179,-5.5179,-5.5179,-5.5179,-5.5179,-5.5179,-5.5179,-5.459,-5.3361,-5.3121,-5.3016,-6.1511,-6.3617,-6.5696,-6.5696,-6.6237,-6.6237,-6.4005,0.0,0.0,0.0,-6.211,-6.2719,-6.3835,0.0,0.0,0.0,0.0,0.0,0.0,0.0,0.0,0.0,0.0,0.0,0.0,0.0,0.0,0.0,0.0,-7.1604,-7.1127,-6.9708,-6.8435,-6.7396,-6.7726,-6.8098,-6.8504,-6.8504,-6.8504,-6.8504,-6.8166,-6.7793,-6.7387,-6.7387,-6.7184,-6.6812,-6.6812,0.0,-6.6812,-6.6812,-6.6812,-6.6812,-6.6812,-6.6812,-6.6812,-6.6812,-6.6812,-6.6812,-6.6812,-6.6812,-6.6812,-6.6812,-6.6812,-6.6812,-6.6812,-6.6812,-6.6812,-6.6812,-6.6812,-6.6812,-6.6812,-6.6812,-6.6812,-6.6812,-6.6278,-6.547,-6.4184,-6.2358,-6.0815,-6.015,-5.9523,-5.9099,-5.9099,-5.9099,-5.9099,-5.9099,-5.9099,-5.9099,-5.9099,-5.9099,-5.9099,-5.9099,-5.853,-5.7992,-5.7663,-5.7034,-5.6376,-5.5748,-5.5718,-5.5538,-5.5209,-5.5179,-5.5179,-5.5179,-5.5179,-5.5179,-5.5179,-5.4406,-5.3675,-5.2963,-5.14,-5.0629,-6.1715,-6.3659,-6.573,-6.5899,-6.6373,-6.6271,-6.4208,-6.4174,0.0,0.0,-6.2009,-6.2618,-6.3362,0.0,-6.3937,0.0,0.0,0.0,0.0,0.0,0.0,0.0,0.0,0.0,0.0,0.0,0.0,0.0,0.0,0.0,-7.0865,-6.9133,-6.8131,-6.7904,-6.8064,-6.8538,-6.9316,-6.935,-6.935,-6.9316,-6.918,-6.8673,-6.7895,-6.7895,-6.7489,-6.6812,-6.6812,0.0,0.0,-6.6812,-6.6812,-6.6812,-6.6812,-6.6812,-6.6812,-6.6812,-6.6812,-6.6812,-6.6812,-6.6812,-6.6812,-6.6812,-6.6812,-6.6812,-6.6812,-6.6812,-6.6812,-6.6812,-6.6812,-6.6812,-6.6812,-6.6812,-6.6728,-6.6482,-6.5426,-6.4105,-6.2828,-6.1496,-6.0276,-5.9285,-5.9099,-5.9099,-5.9099,-5.9099,-5.9099,-5.9099,-5.9099,-5.9099,-5.9099,-5.9099,-5.9099,-5.9099,-5.865,-5.8291,-5.8141,-5.7633,-5.7004,-5.6278,-5.6218,-5.5867,-5.5209,-5.5179,-5.5179,-5.5179,-5.4896,-5.4743,-5.4743,-5.3227,-5.2348,-5.1972,-4.9903,-4.8965,-6.4572,-6.5486,-6.5865,-6.6542,-6.6779,-6.6406,-6.485,0.0,-6.4174,-6.2618,-6.2347,-6.2618,-6.3362,0.0,0.0,0.0,0.0,-6.4613,0.0,0.0,0.0,0.0,0.0,0.0,0.0,0.0,0.0,0.0,0.0,0.0,-6.9919,-6.8798,-6.8131,-6.7904,-6.8605,-6.935,-7.0094,-7.0094,-7.0094,-7.0094,-6.9417,-6.8673,-6.7895,-6.7895,-6.7489,-6.6812,-6.6812,0.0,0.0,-6.6812,-6.6812,-6.6812,-6.6812,-6.6812,-6.6812,-6.6812,-6.6812,-6.6812,-6.6812,-6.6812,-6.6812,-6.6812,-6.6812,-6.6812,-6.6812,-6.6812,-6.6812,-6.6812,-6.6812,-6.6812,-6.6812,-6.6812,-6.6525,-6.5349,-6.4091,-6.2779,-6.1496,-6.0202,-5.9231,-5.9099,-5.9099,-5.9099,-5.9099,-5.9099,-5.9099,-5.9099,-5.9099,-5.9099,-5.9099,-5.9099,-5.9099,-5.9099,-5.9039,-5.877,-5.8171,-5.8052,-5.7483,-5.6308,-5.6218,-5.5867,-5.5209,-5.5179,-5.5179,-5.5179,-5.386,-5.3174,-5.3174,-5.1672,-5.0212,-4.8935,-4.9988,-5.0491,-6.3411,-6.4681,-6.5764,-6.6068,-6.6474,-6.6406,-6.4952,-6.4613,-6.4174,-6.2685,-6.2381,-6.2482,-6.2787,-6.3565,-6.4275,0.0,0.0,0.0,-6.6576,0.0,0.0,0.0,0.0,0.0,0.0,0.0,0.0,0.0,0.0,0.0,-6.8873,-6.8984,-6.8968,-6.8615,-6.8944,-6.9688,-7.0838,-7.0872,-7.0872,-7.0872,-7.0567,-6.9789,-6.8605,-6.8605,-6.7963,-6.6812,-6.6812,0.0,0.0,-6.6812,-6.6812,-6.6812,-6.6812,-6.6812,-6.6812,-6.6812,-6.6812,-6.6812,-6.6812,-6.6812,-6.6812,-6.6812,-6.6812,-6.6812,-6.6812,-6.6812,-6.6812,-6.6812,-6.6812,-6.6812,-6.6812,-6.6812,-6.6482,-6.5215,-6.3952,-6.2634,-6.1294,-5.9992,-5.9099,-5.9099,-5.9099,-5.9099,-5.9099,-5.9099,-5.9099,-5.9099,-5.9099,-5.9099,-5.9099,-5.9099,-5.9099,-5.9099,-5.9099,-5.9009,-5.874,-5.871,-5.8141,-5.6795,-5.6735,-5.6256,-5.5239,-5.5179,-5.4794,-5.3912,-5.3632,-5.3026,-5.2125,-5.0971,-5.0398,-5.0333,-5.002,-5.0146,-6.3565,-6.4816,-6.6068,-6.6271,-6.6406,-6.617,0.0,-6.4444,-6.3937,-6.2651,-6.2381,-6.2381,-6.2381,-6.3429,-6.4343,-6.4546,-6.6271,-6.7658,-6.7861,0.0,0.0,0.0,0.0,0.0,0.0,0.0,0.0,0.0,0.0,0.0,-6.8227,-6.8873,-6.9223,-6.9089,-6.9113,-6.9823,-7.1312,-7.1312,-7.121,-7.0973,-7.0973,-7.0195,-6.8741,-6.8741,-6.803,-6.6812,-6.6812,0.0,0.0,-6.6812,-6.6812,-6.6812,-6.6812,-6.6812,-6.6812,-6.6812,-6.6812,-6.6812,-6.6812,-6.6812,-6.6812,-6.6812,-6.6812,-6.6812,-6.6812,-6.6812,-6.6812,-6.6812,-6.6812,-6.6812,-6.6812,-6.6812,-6.6397,-6.4733,-6.3638,-6.2536,-6.0815,-5.9705,-5.9099,-5.9099,-5.9099,-5.9099,-5.9099,-5.9099,-5.9099,-5.9099,-5.9099,-5.9099,-5.9099,-5.9099,-5.9099,-5.9099,-5.9099,-5.9099,-5.9099,-5.9099,-5.853,-5.7184,-5.7094,-5.634,-5.4619,-5.456,-5.3948,-5.2633,-5.2486,-5.2072,-5.1186,-5.051,-5.0569,-5.1244,-5.0854,-5.0956,-6.6373,-6.6779,-6.6981,-6.7692,-6.6779,-6.5493,0.0,-6.4038,-6.3294,-6.255,-6.2381,-6.2381,-6.2381,-6.3024,-6.3768,-6.4478,-6.5831,0.0,-6.7793,0.0,0.0,0.0,0.0,0.0,0.0,0.0,0.0,0.0,0.0,0.0,-6.8227,-6.8189,-6.851,-6.9089,-6.9113,-6.9823,-7.1312,-7.1312,-7.0939,-7.0195,-7.0195,-6.9383,-6.7895,-6.7895,-6.7523,-6.6812,0.0,0.0,0.0,-6.6812,-6.6812,-6.6812,-6.6812,-6.6812,-6.6812,-6.6812,-6.6812,-6.6812,-6.6812,-6.6812,-6.6812,-6.6812,-6.6812,-6.6812,-6.6812,-6.6812,-6.6812,-6.6812,-6.6812,-6.6812,-6.6812,-6.6812,-6.6148,-6.3623,-6.3004,-6.2323,-5.9683,-5.9099,-5.9099,-5.9099,-5.9099,-5.9099,-5.9099,-5.9099,-5.9099,-5.9099,-5.9099,-5.9099,-5.9099,-5.9099,-5.9099,-5.9099,-5.9099,-5.9099,-5.9099,-5.9099,-5.853,-5.7184,-5.7094,-5.5893,-5.3126,-5.3016,-5.2579,-5.1624,-5.0082,-4.964,-5.0187,-5.0247,-5.0307,-5.034,-5.2743,-5.3539,-6.4275,-6.4918,-6.5358,-6.5595,-6.529,-6.4749,-6.4038,0.0,-6.3294,-6.255,-6.2787,-6.3159,-6.3159,-6.3768,-6.4681,-6.5899,-6.6914,0.0,0.0,0.0,0.0,0.0,0.0,0.0,0.0,0.0,0.0,0.0,0.0,0.0,-6.725,-6.7209,-6.7562,-6.8233,-6.8267,-6.8774,-6.9789,-6.9789,-6.9688,-6.9451,-6.9451,-6.891,-6.7895,-6.7895,-6.7489,0.0,0.0,0.0,0.0,-6.6812,-6.6812,-6.6812,-6.6812,-6.6812,-6.6812,-6.6812,-6.6812,-6.6812,-6.6812,-6.6812,-6.6812,-6.6812,-6.6812,-6.6812,-6.6812,-6.6812,-6.6812,-6.6812,-6.6812,-6.6812,-6.6812,-6.6812,-6.6148,-6.3623,-6.3004,-6.2274,-5.9629,-5.9099,-5.9099,-5.9099,-5.9099,-5.9099,-5.9099,-5.9099,-5.9099,-5.9099,-5.9099,-5.9099,-5.9099,-5.9099,-5.9099,-5.9099,-5.9099,-5.9099,-5.9099,-5.9099,-5.853,-5.7184,-5.6137,-5.4977,-5.3572,-5.2594,-5.1595,-5.0666,-5.0532,-5.0582,-5.0914,-5.1311,-5.2344,-5.4119,-5.5434,-5.543,-6.3632,-6.4241,-6.4681,-6.4952,-6.4613,0.0,0.0,0.0,-6.3024,-6.2854,-6.3193,-6.3599,-6.3869,-6.4072,-6.4783,-6.6542,-6.7184,0.0,0.0,0.0,0.0,0.0,0.0,0.0,0.0,0.0,0.0,0.0,0.0,0.0,-6.6812,-6.6812,-6.7015,-6.7489,-6.776,-6.8301,-6.9079,-6.9113,-6.8944,-6.8639,-6.8639,-6.8233,-6.7489,-6.7489,-6.7252,0.0,0.0,0.0,0.0,-6.6812,-6.6812,-6.6812,-6.6812,-6.6812,-6.6812,-6.6812,-6.6812,-6.6812,-6.6812,-6.6812,-6.6812,-6.6812,-6.6812,-6.6812,-6.6812,-6.6812,-6.6812,-6.6812,-6.6812,-6.6812,-6.6812,-6.6812,-6.6148,-6.3623,-6.3004,-6.2274,-5.9629,-5.9099,-5.9099,-5.9099,-5.9099,-5.9099,-5.9099,-5.9099,-5.9099,-5.9099,-5.9099,-5.9099,-5.9099,-5.9099,-5.9099,-5.9099,-5.9099,-5.9099,-5.9099,-5.9099,-5.8286,-5.6385,-5.5409,-5.4054,-5.2156,-5.1229,-5.0393,-4.9706,-5.0007,-5.0637,-5.1496,-5.3031,-5.4758,-5.6673,-5.6589,-5.5641,0.0,-6.4444,-6.4613,-6.529,-6.4444,-6.3429,-6.3429,-6.2888,0.0,-6.3294,-6.3463,-6.3734,-6.441,-6.4005,-6.4309,-6.6474,-6.6812,0.0,0.0,-6.9708,0.0,0.0,0.0,0.0,0.0,0.0,0.0,0.0,0.0,0.0,-6.6812,-6.6812,-6.6812,-6.6812,-6.7455,-6.8199,-6.8944,-6.8944,-6.8571,-6.7827,-6.7827,-6.7455,-6.6812,-6.6812,-6.6812,0.0,0.0,0.0,0.0,-6.6812,-6.6812,-6.6812,-6.6812,-6.6812,-6.6812,-6.6812,-6.6812,-6.6812,-6.6812,-6.6812,-6.6812,-6.6812,-6.6812,-6.6812,-6.6812,-6.6812,-6.6812,-6.6812,-6.6812,-6.6812,-6.6812,-6.6728,-6.6062,-6.3576,-6.2956,-6.2175,-5.9629,-5.9099,-5.9099,-5.9099,-5.9099,-5.9099,-5.9099,-5.9099,-5.9099,-5.9099,-5.9099,-5.9099,-5.9099,-5.9099,-5.9099,-5.9099,-5.9099,-5.9045,-5.8936,-5.8936,-5.7769,-5.5086,-5.467,-5.3023,-4.9488,-4.9226,-4.911,-4.8875,-4.9065,-5.015,-5.2148,-5.5357,-5.726,-5.7958,-5.654,-5.463,-6.2821,0.0,-6.2956,-6.3125,-6.2888,-6.2651,0.0,-6.2516,-6.2448,-6.2618,-6.3125,-6.3565,-6.3734,-6.4106,-6.4884,-6.6542,-6.6812,-6.7354,-6.8876,0.0,0.0,0.0,0.0,0.0,0.0,0.0,0.0,0.0,0.0,-6.6812,-6.6812,-6.6812,-6.6812,-6.6812,-6.6981,-6.7151,-6.7354,-6.7354,-6.7252,-6.7083,-6.7083,-6.6981,-6.6812,-6.6812,-6.6812,0.0,0.0,0.0,-6.6812,-6.6812,-6.6812,-6.6812,-6.6812,-6.6812,-6.6812,-6.6812,-6.6812,-6.6812,-6.6812,-6.6812,-6.6812,-6.6812,-6.6812,-6.6812,-6.6812,-6.6812,-6.6812,-6.6812,-6.6812,-6.6812,-6.6812,-6.6105,-6.4947,-6.3355,-6.2193,-6.102,-5.9446,-5.9099,-5.9099,-5.9099,-5.9099,-5.9099,-5.9099,-5.9099,-5.9099,-5.9099,-5.9099,-5.9099,-5.9099,-5.9099,-5.9099,-5.9099,-5.9099,-5.8634,-5.7384,-5.7243,-5.6609,-5.4976,-5.2678,-5.0939,-5.0062,-4.8884,-4.8584,-4.9389,-5.1866,-5.3353,-5.385,-5.6991,-5.8022,-5.704,-5.6647,-5.4902,-6.211,-6.2381,-6.2381,-6.2381,-6.2381,-6.2381,-6.2381,-6.2381,-6.2584,-6.326,-6.3463,-6.3734,-6.4377,-6.4546,-6.5087,0.0,-6.6812,0.0,0.0,0.0,0.0,0.0,0.0,0.0,0.0,0.0,0.0,0.0,0.0,-6.6812,-6.6812,-6.6812,-6.6812,-6.6812,-6.6812,-6.6812,-6.6812,-6.6812,-6.6812,-6.6812,-6.6812,-6.6812,-6.6812,-6.6812,-6.6812,0.0,0.0,0.0,-6.6305,-6.6305,-6.6102,-6.5831,-6.617,-6.6305,-6.6339,-6.6677,-6.6812,-6.6812,-6.6812,-6.6812,-6.6812,-6.6812,-6.6812,-6.6812,-6.6812,-6.6812,-6.6812,-6.6812,-6.6812,-6.6812,-6.6812,-6.5855,-6.4597,-6.3307,-6.1995,-6.0661,-5.9392,-5.9099,-5.9099,-5.9099,-5.9099,-5.9099,-5.9099,-5.9099,-5.9099,-5.9099,-5.9099,-5.9099,-5.9099,-5.9099,-5.9099,-5.9099,-5.844,-5.7664,-5.6792,-5.5357,-5.401,-5.2848,-5.1228,-4.9947,-4.9212,-4.8317,-4.8786,-5.0638,-5.3126,-5.4386,-5.4386,-5.6792,-5.7216,-5.5618,-5.489,-5.3643,-6.1317,-6.1991,-6.215,-6.2341,-6.2313,-6.2212,-6.2212,-6.2144,-6.2381,-6.3666,-6.3599,-6.3734,-6.4952,-6.4952,0.0,0.0,0.0,0.0,0.0,0.0,0.0,0.0,0.0,0.0,0.0,0.0,0.0,0.0,0.0,-6.6812,-6.6812,-6.6812,-6.6812,-6.6812,-6.6812,-6.6812,-6.6812,-6.6812,-6.6812,-6.6812,-6.6812,-6.6812,-6.6812,-6.6812,-6.6745,-6.6643,0.0,0.0,-6.5527,-6.5527,-6.5155,-6.4681,-6.5392,-6.5696,-6.5764,-6.6542,-6.6812,-6.6812,-6.6812,-6.6812,-6.6812,-6.6812,-6.6812,-6.6812,-6.6812,-6.6812,-6.6812,-6.6812,-6.6812,-6.677,-6.6567,-6.5559,-6.4322,-6.2972,-6.1696,-6.0432,-5.9339,-5.9099,-5.9099,-5.9099,-5.9099,-5.9099,-5.9099,-5.9099,-5.9099,-5.9099,-5.9099,-5.9099,-5.9099,-5.9099,-5.8991,-5.8743,-5.7496,-5.648,-5.6022,-5.3522,-5.1452,-5.0157,-4.9939,-4.9308,-4.797,-4.8083,-4.9376,-5.1962,-5.3308,-5.4149,-5.4386,-5.5734,-5.556,-5.3969,-5.2639,-5.1865,-5.9258,-6.0118,-6.1119,-6.215,-6.1907,-6.1467,-6.1467,-6.0926,-6.052,-6.0757,-6.1738,-6.2618,-6.2854,-6.4343,-6.5595,0.0,0.0,0.0,0.0,0.0,0.0,0.0,0.0,0.0,0.0,0.0,0.0,0.0,0.0,-6.6812,-6.6812,-6.6812,-6.6812,-6.6812,-6.6812,-6.6812,-6.6812,-6.6812,-6.6812,-6.6812,-6.6812,-6.6812,-6.6812,-6.6812,-6.6474,-6.5865,0.0,-6.5425,-6.4783,-6.4783,-6.4715,-6.4681,-6.5392,-6.5696,-6.5764,-6.6542,-6.6812,-6.6812,-6.6812,-6.6812,-6.6812,-6.6812,-6.6812,-6.6812,-6.6812,-6.6812,-6.6812,-6.6812,-6.6812,-6.6567,-6.547,-6.4276,-6.2972,-6.1646,-6.0359,-5.9339,-5.9153,-5.9099,-5.9099,-5.9099,-5.9099,-5.9099,-5.9099,-5.9099,-5.9099,-5.9099,-5.9099,-5.9099,-5.9099,-5.9099,-5.858,-5.7187,-5.6849,-5.559,-5.2917,-5.2271,-5.1168,-4.9165,-4.8533,-4.8131,-4.7908,-4.8837,-5.0193,-5.1989,-5.2209,-5.3066,-5.4386,-5.4623,-5.391,-5.2332,-5.2112,-5.1268,-5.8775,-5.9112,-5.9553,-6.185,-6.2448,-6.2482,-6.2482,-6.2516,-6.2313,-6.1501,-6.1907,-6.2516,-6.2922,0.0,-6.4918,-6.6102,0.0,0.0,0.0,0.0,0.0,0.0,0.0,0.0,0.0,0.0,0.0,0.0,0.0,0.0,-6.6812,-6.6812,-6.6812,-6.6812,-6.6812,-6.6812,-6.6812,-6.6812,-6.6812,-6.6812,-6.6812,-6.6609,-6.6203,-6.6203,-6.5797,-6.5121,0.0,-6.4681,-6.4005,-6.4005,-6.4005,-6.4106,-6.4816,-6.5358,-6.5764,-6.6542,-6.6812,-6.6812,-6.6812,-6.6812,-6.6812,-6.6812,-6.6812,-6.6812,-6.6812,-6.6812,-6.6812,-6.6812,-6.6812,-6.6525,-6.5215,-6.3919,-6.2634,-6.1294,-6.0045,-5.9099,-5.9099,-5.9099,-5.9099,-5.9099,-5.9099,-5.9099,-5.9099,-5.9099,-5.9099,-5.9099,-5.9099,-5.9099,-5.9099,-5.8331,-5.7496,-5.6792,-5.5182,-5.3582,-5.2086,-5.1205,-4.9989,-4.8422,-4.8058,-4.7908,-4.7908,-4.8711,-5.0066,-5.1962,-5.1989,-5.2332,-5.3126,-5.3126,-5.2297,-5.0727,-5.0727,-5.0308,-5.7868,-5.8281,-5.8712,-6.112,-6.2217,-6.2854,-6.3396,-6.3666,-6.3565,-6.2584,-6.2651,-6.3091,0.0,-6.4072,0.0,-6.6542,0.0,0.0,0.0,0.0,0.0,0.0,0.0,0.0,0.0,0.0,0.0,0.0,0.0,0.0,-6.6812,-6.6812,-6.6812,-6.6812,-6.6812,-6.6745,-6.6542,-6.6542,-6.6542,-6.6542,-6.6542,-6.617,-6.5425,-6.5425,-6.5019,-6.4343,-6.4343,-6.3937,-6.326,-6.326,-6.3362,-6.3599,-6.4309,-6.5155,-6.6034,-6.6609,-6.6812,-6.6812,-6.6812,-6.6812,-6.6812,-6.6812,-6.6812,-6.6812,-6.6812,-6.6812,-6.6728,-6.644,-6.6363,-6.6029,-6.4778,-6.3497,-6.2193,-6.0866,-5.9811,-5.9099,-5.9099,-5.9099,-5.9099,-5.9099,-5.9099,-5.9099,-5.9099,-5.9099,-5.9099,-5.9099,-5.8798,-5.858,-5.858,-5.716,-5.6022,-5.5647,-5.3462,-5.1865,-5.1429,-5.0308,-4.9163,-4.8184,-4.7983,-4.7908,-4.7908,-4.846,-4.981,-5.1962,-5.1616,-5.1616,-5.1989,-5.1616,-5.079,-4.959,-4.959,-4.959,-5.5363,-5.7245,-5.9416,-5.9647,-6.0057,-6.0892,-6.3024,-6.2482,-6.1704,-6.2279,-6.3497,-6.4478,-6.4512,-6.5662,-6.6609,0.0,0.0,0.0,0.0,0.0,0.0,0.0,0.0,0.0,0.0,0.0,0.0,0.0,0.0,0.0,-6.6812,-6.6812,-6.6812,-6.6812,-6.6812,-6.6474,-6.5764,-6.5764,-6.5764,-6.5764,-6.5764,-6.5392,-6.4681,-6.4681,-6.4275,-6.3599,-6.3599,-6.3159,-6.2482,-6.2482,-6.2888,-6.3599,-6.4309,-6.5459,-6.6745,-6.6779,-6.6812,-6.6812,-6.6812,-6.6812,-6.6812,-6.6812,-6.6812,-6.6812,-6.6812,-6.6812,-6.6567,-6.5349,-6.5036,-6.4733,-6.3482,-6.2144,-6.0815,-5.9523,-5.9153,-5.9099,-5.9099,-5.9099,-5.9099,-5.9099,-5.9099,-5.9099,-5.9099,-5.9099,-5.9099,-5.9099,-5.786,-5.6849,-5.6849,-5.5502,-5.3969,-5.2516,-5.2148,-5.1393,-4.9886,-4.9654,-4.9339,-4.8736,-4.8209,-4.7908,-4.7908,-4.846,-4.981,-5.1962,-5.0563,-5.0499,-5.1989,-5.0499,-4.9719,-4.959,-4.959,-4.959,-5.6306,-5.7874,-5.9663,-6.0451,-6.0718,-6.1332,-6.3091,-6.3768,-6.3734,-6.2618,-6.3565,-6.4478,-6.4005,0.0,-6.6643,0.0,0.0,0.0,0.0,0.0,0.0,0.0,0.0,0.0,0.0,0.0,0.0,0.0,0.0,0.0,-6.6812,-6.6812,-6.6609,-6.6136,-6.6102,-6.5764,-6.5019,-6.5019,-6.4783,-6.4343,-6.4783,-6.4647,-6.3937,-6.3937,-6.3531,-6.2821,-6.2821,-6.2651,-6.2415,-6.2888,-6.3531,-6.4309,-6.5527,-6.6305,-6.6812,-6.6812,-6.6812,-6.6812,-6.6812,-6.6812,-6.6812,-6.6812,-6.6812,-6.6812,-6.6812,-6.6235,-6.5514,-6.5036,-6.37,-6.2358,-6.1896,-6.1395,-6.0661,-5.9392,-5.9099,-5.9099,-5.9099,-5.9099,-5.9099,-5.9099,-5.9099,-5.9099,-5.9099,-5.9099,-5.8743,-5.7749,-5.7075,-5.6366,-5.5385,-5.391,-5.27,-5.2051,-5.1079,-5.0245,-4.9654,-4.959,-4.9364,-4.8812,-4.856,-4.8611,-4.8937,-4.9163,-5.0013,-5.1548,-5.0594,-5.0417,-5.1011,-5.0063,-4.959,-4.959,-4.959,-4.959,-5.7159,-5.8371,-5.9778,-6.0993,0.0,-6.2042,-6.3531,-6.4444,-6.4783,-6.3971,-6.441,-6.485,-6.4613,0.0,0.0,0.0,0.0,0.0,0.0,0.0,0.0,0.0,0.0,0.0,0.0,0.0,0.0,0.0,0.0,0.0,0.0,-6.6812,-6.6474,-6.5696,-6.5696,-6.5222,-6.4275,-6.4241,-6.3903,-6.3159,-6.3666,-6.3632,-6.3159,-6.3159,-6.2888,-6.2381,-6.2381,-6.2381,-6.2448,-6.3193,-6.4072,-6.5053,-6.6305,-6.6812,-6.6812,-6.6812,-6.6812,-6.6812,-6.6812,-6.6812,-6.6812,-6.6812,-6.6812,-6.6728,-6.632,-6.5603,-6.4733,-6.3919,-6.2407,-6.0918,-6.0536,-6.038,-6.0202,-5.9285,-5.9099,-5.9099,-5.9099,-5.9099,-5.9099,-5.9099,-5.9099,-5.9099,-5.9099,-5.8689,-5.8029,-5.7138,-5.5963,-5.4915,-5.3975,-5.2342,-5.1268,-5.1268,-5.0245,-4.959,-4.959,-4.959,-4.9439,-4.9063,-4.9038,-4.9213,-4.9565,-4.959,-5.0117,-5.1247,-5.0896,-5.0594,-5.0419,-5.0042,-4.9766,-4.959,-4.9766,-4.9766,-5.7273,-5.8411,-5.9778,-6.0993,0.0,-6.2787,-6.4275,-6.4038,-6.414,-6.6339,-6.6203,-6.5899,-6.6677,-6.6203,0.0,0.0,0.0,0.0,0.0,0.0,0.0,0.0,0.0,0.0,0.0,0.0,0.0,0.0,0.0,0.0,0.0,-6.6812,-6.6474,-6.5696,-6.5662,-6.4986,-6.3531,-6.3497,-6.3125,-6.2381,-6.2381,-6.2381,-6.2381,-6.2381,-6.2381,-6.2381,-6.2381,-6.2381,-6.2448,-6.3193,-6.4377,-6.5764,-6.6508,-6.6812,-6.6812,-6.6812,-6.6812,-6.6812,-6.6812,-6.6812,-6.6812,-6.6812,-6.677,-6.6525,-6.526,-6.4869,-6.4335,-6.1715,-6.0989,-6.0712,-5.9446,-5.9099,-5.9099,-5.9099,-5.9099,-5.9099,-5.9099,-5.9099,-5.9099,-5.9099,-5.9099,-5.9099,-5.9099,-5.7749,-5.6909,-5.7513,-5.4413,-5.22,-5.2717,-5.0896,-4.9615,-4.9615,-4.959,-4.959,-4.959,-4.959,-4.959,-4.959,-4.959,-4.959,-4.9615,-4.9615,-5.0142,-5.1272,-5.1297,-5.0996,-5.0444,-5.0419,-5.0142,-4.9615,-5.0167,-5.0117,-5.7542,-5.9169,-6.0826,-6.0248,-6.1385,-6.3115,0.0,-6.4783,0.0,0.0,-6.5831,-6.5764,-6.5967,0.0,0.0,0.0,0.0,0.0,0.0,0.0,0.0,0.0,0.0,0.0,0.0,0.0,0.0,0.0,0.0,0.0,0.0,-6.6812,-6.6237,-6.4952,-6.4918,-6.4208,-6.2753,-6.2719,-6.2618,-6.2381,-6.2381,-6.2381,-6.2381,-6.2381,-6.2381,-6.2381,-6.2381,-6.2381,-6.2482,-6.3768,-6.5155,-6.6508,-6.6711,-6.6812,-6.6812,-6.6812,-6.6812,-6.6812,-6.6812,-6.6812,-6.6812,-6.6812,-6.6192,-6.5393,-6.5036,-6.3606,-6.2013,-6.1243,-6.0328,-5.9576,-5.9207,-5.9099,-5.9099,-5.9099,-5.9099,-5.9099,-5.9099,-5.9099,-5.9099,-5.9099,-5.9488,-5.9428,-5.8253,-5.8003,-5.727,-5.5142,-5.385,-5.2772,-5.1867,-5.0821,-5.0167,-5.0167,-4.9816,-4.959,-4.959,-4.959,-4.959,-4.959,-4.959,-4.9766,-5.0167,-5.0569,-5.1122,-5.185,-5.185,-5.1774,-5.1599,-5.1222,-5.0946,-5.077,-5.0519,-5.0318,-5.8946,-6.0124,-6.1393,-6.1551,-6.2749,-6.4218,-6.5436,-6.5595,0.0,0.0,-6.5899,-6.5764,-6.6068,0.0,0.0,0.0,0.0,0.0,0.0,0.0,0.0,0.0,0.0,0.0,0.0,0.0,0.0,0.0,0.0,0.0,0.0,-6.6542,-6.5831,-6.4647,-6.4309,-6.3599,-6.2415,-6.2381,-6.2381,-6.2381,-6.2381,-6.2381,-6.2381,-6.2381,-6.2381,-6.2381,-6.2381,-6.255,-6.2922,-6.4106,-6.529,-6.6406,-6.6711,-6.6812,-6.6812,-6.6812,-6.6812,-6.6812,-6.6812,-6.6812,-6.6812,-6.6812,-6.5942,-6.4778,-6.4322,-6.265,-6.0918,-6.038,-5.9683,-5.9159,-5.9428,-5.9488,-5.9488,-5.9488,-5.9488,-5.9578,-5.9847,-5.9907,-5.9907,-5.9907,-5.9648,-5.9123,-5.8118,-5.72,-5.5991,-5.4213,-5.3453,-5.255,-5.1431,-5.0971,-5.077,-5.077,-5.0469,-5.0167,-4.9941,-4.9916,-4.9816,-4.9615,-4.959,-4.9741,-5.0067,-5.0845,-5.1548,-5.2101,-5.2101,-5.2,-5.1774,-5.1222,-5.082,-5.0594,-5.0469,-5.0293,-6.0698,-6.1047,-6.153,-6.3894,-6.5147,-6.5797,-6.5797,-6.6305,-6.6779,-6.6711,0.0,-6.6,0.0,0.0,0.0,0.0,0.0,0.0,0.0,0.0,0.0,0.0,0.0,0.0,0.0,0.0,0.0,0.0,0.0,0.0,0.0,-6.6102,-6.5358,-6.4613,-6.3903,-6.3159,-6.2381,-6.2381,-6.2381,-6.2381,-6.2381,-6.2381,-6.2381,-6.2381,-6.2381,-6.2381,-6.2381,-6.2821,-6.3565,-6.4309,-6.5019,-6.5764,-6.6508,-6.6812,-6.6812,-6.6812,-6.6812,-6.6812,-6.6812,-6.6728,-6.6643,-6.6643,-6.569,-6.4335,-6.3164,-6.1959,-6.065,-5.9536,-5.9249,-5.9428,-6.0027,-6.0176,-6.0206,-6.0266,-6.0236,-6.0356,-6.0984,-6.1104,-6.1104,-6.1104,-5.9711,-5.8548,-5.8371,-5.5799,-5.3918,-5.4275,-5.311,-5.2,-5.1498,-5.1398,-5.1348,-5.1348,-5.1322,-5.1071,-5.0544,-5.0494,-5.0268,-4.9715,-4.9665,-4.964,-4.959,-5.0619,-5.1448,-5.2026,-5.2026,-5.18,-5.1348,-5.077,-5.0243,-4.9766,-5.0218,-5.0142,-5.9923,-6.0685,-6.1742,-6.2974,-6.4941,-6.6576,-6.6576,-6.6711,-6.6643,-6.6068,-6.6271,0.0,0.0,0.0,0.0,0.0,0.0,0.0,0.0,0.0,0.0,0.0,0.0,0.0,0.0,0.0,0.0,0.0,0.0,0.0,-6.6812,-6.6102,-6.5358,-6.4613,-6.3903,-6.3159,-6.2381,-6.2381,-6.2381,0.0,-6.2381,-6.2381,-6.2381,-6.2381,-6.2381,-6.2381,-6.2381,-6.2821,-6.3565,-6.4309,-6.5019,-6.5764,-6.6508,-6.6812,-6.6812,-6.6812,-6.6812,-6.6812,-6.6812,-6.6148,-6.5304,-6.5304,-6.37,-6.1765,-6.1496,-6.0905,-6.0253,-5.9956,-6.0266,-6.0715,-6.0864,-6.0894,-6.1014,-6.1523,-6.1283,-6.0924,-6.1074,-6.1104,-6.1104,-6.1104,-6.0149,-5.8851,-5.7579,-5.6023,-5.4602,-5.3428,-5.2934,-5.2703,-5.2578,-5.2201,-5.1925,-5.1925,-5.1548,-5.1222,-5.1096,-5.1096,-5.0845,-5.0268,-5.0243,-5.0042,-4.9615,-5.0243,-5.087,-5.1448,-5.1448,-5.1599,-5.1925,-5.1373,-5.1046,-5.0921,-5.0569,-5.0343,-6.0591,0.0,0.0,-6.4205,0.0,-6.6812,-6.6812,-6.632,-6.5928,-6.6179,0.0,0.0,0.0,0.0,0.0,0.0,0.0,0.0,0.0,0.0,0.0,0.0,0.0,0.0,0.0,0.0,0.0,0.0,0.0,-6.6028,-6.5407,-6.437,-6.3348,-6.2362,-6.2208,-6.1922,-6.1554,-6.211,-6.2381,-6.2381,-6.2381,-6.2381,-6.2381,-6.2381,-6.2381,-6.2381,-6.2381,-6.2618,-6.3057,-6.414,-6.4816,-6.529,-6.6373,-6.6812,-6.6728,-6.6148,-6.5898,-6.5811,-6.5171,-6.4551,-6.3998,-6.3998,-6.2602,-6.0989,-6.0989,-6.0555,-6.0086,-6.0086,-6.0565,-6.1194,-6.1493,-6.1583,-6.1762,-6.2421,-6.2061,-6.1672,-6.2002,-6.2061,-6.2061,-6.2061,-6.0293,-5.8502,-5.7661,-5.5628,-5.392,-5.3042,-5.2929,-5.2929,-5.2929,-5.2678,-5.2503,-5.2503,-5.2251,-5.1975,-5.1699,-5.1674,-5.1423,-5.087,-5.082,-5.0695,-5.0419,-5.0419,-5.0569,-5.087,-5.087,-5.1021,-5.1297,-5.0745,-5.0469,-5.0469,-5.0167,-5.0017,0.0,0.0,-6.2191,-6.5697,-6.6711,0.0,-6.6812,-6.5811,-6.5215,0.0,0.0,0.0,0.0,0.0,0.0,0.0,0.0,0.0,0.0,0.0,0.0,0.0,0.0,0.0,0.0,0.0,0.0,0.0,0.0,-6.468,-6.3484,-6.2147,-6.0913,-5.9928,-6.0141,-6.0289,-6.0289,-6.148,-6.207,-6.207,-6.2302,-6.2448,-6.2584,-6.2584,-6.2516,-6.2381,-6.2381,-6.2381,-6.2516,-6.4005,-6.4613,-6.4749,-6.6237,-6.6686,-6.632,-6.526,-6.4733,-6.4414,-6.3387,-6.2828,-6.2634,-6.2634,-6.1746,-6.0691,-6.0815,-6.0609,-6.0296,-6.0386,-6.0924,-6.1583,-6.2121,-6.2271,-6.2391,-6.2959,-6.266,-6.2421,-6.2959,-6.2875,-6.2672,-6.2672,-5.99,-5.7496,-5.7176,-5.4768,-5.2929,-5.2929,-5.2929,-5.2929,-5.2929,-5.2854,-5.2829,-5.2929,-5.2854,-5.2628,-5.2277,-5.2251,-5.1975,-5.1322,-5.1373,-5.1348,-5.1147,-5.077,-5.0569,-5.0569,-5.0368,-5.0318,-5.0419,-4.9866,-4.959,-4.959,-4.959,-4.959,0.0,0.0,-6.3142,0.0,-6.6339,-6.6812,0.0,0.0,0.0,0.0,0.0,0.0,0.0,0.0,0.0,0.0,0.0,0.0,0.0,0.0,0.0,0.0,0.0,0.0,0.0,0.0,0.0,0.0,-6.3626,-6.264,-6.145,-6.0573,-6.0064,-5.9928,-5.9345,-5.9036,-5.9036,-6.0247,-6.0828,-6.087,-6.1877,-6.2719,-6.3362,-6.3362,-6.299,-6.2381,-6.2381,-6.2381,-6.2516,-6.4005,-6.4613,-6.4749,-6.6237,-6.6148,-6.5126,-6.4959,-6.423,-6.3244,-6.3052,-6.2242,-6.1243,-6.1243,-6.038,-5.9459,-6.003,-6.0581,-6.1104,-6.1672,-6.2301,-6.2839,-6.2929,-6.2959,-6.2959,-6.3049,-6.3019,-6.2959,-6.3049,-6.191,-6.087,-6.087,-5.8076,-5.5314,-5.381,-5.3179,-5.2929,-5.2929,-5.2929,-5.2929,-5.2929,-5.2503,-5.2402,-5.2879,-5.2503,-5.2377,-5.2779,-5.2829,-5.2377,-5.1348,-5.1724,-5.1548,-5.0569,-5.0946,-5.1172,-5.1172,-5.0218,-4.9941,-5.0419,-4.9866,-4.959,-4.959,-4.959,-4.959,-5.8812,-6.1426,-6.4145,0.0,-6.574,-6.5734,-6.5734,0.0,0.0,0.0,0.0,0.0,0.0,0.0,0.0,0.0,0.0,0.0,0.0,0.0,0.0,0.0,0.0,0.0,0.0,0.0,0.0,0.0,-6.197,-6.065,-5.9475,-5.8672,-5.7966,-5.7311,-5.759,-5.7807,-5.7807,-5.8992,-5.9913,-6.0586,-6.1551,-6.2528,-6.3531,-6.3937,-6.3734,-6.3024,-6.3024,-6.2787,-6.2516,-6.4005,-6.4613,-6.4667,-6.5416,-6.5393,-6.4733,-6.3275,-6.2358,-6.1796,-6.1051,-6.0411,-5.997,-5.997,-5.9576,-5.9219,-5.9877,-6.0565,-6.1253,-6.1912,-6.257,-6.3079,-6.3079,-6.3079,-6.3079,-6.3079,-6.3079,-6.2817,-6.1851,-6.105,-5.9904,-5.8013,-5.644,-5.4849,-5.3179,-5.2929,-5.2929,-5.2929,-5.2929,-5.2929,-5.2929,-5.2703,-5.2528,-5.2477,-5.2528,-5.2528,-5.2477,-5.2754,-5.2729,-5.2226,-5.2427,-5.2201,-5.1398,-5.1599,-5.1599,-5.1297,-5.0795,-5.067,-5.0896,-5.0343,-5.0067,-5.0042,-4.9741,-4.959,0.0,0.0,-6.341,-6.5046,-6.4886,-6.444,0.0,0.0,0.0,0.0,0.0,0.0,0.0,0.0,0.0,0.0,0.0,0.0,0.0,0.0,0.0,0.0,0.0,0.0,0.0,0.0,0.0,0.0,0.0,-5.8656,-5.7426,-5.6867,-5.6134,-5.5229,-5.6085,-5.6541,-5.6541,-5.7714,-5.9222,-6.0882,-6.1452,-6.254,-6.4106,-6.4647,-6.458,-6.4072,-6.3869,-6.3362,-6.2787,-6.3915,-6.4304,-6.4145,-6.4341,-6.4197,-6.3653,-6.1715,-6.0815,-6.038,-5.9446,-5.9099,-5.9099,-5.9099,-5.9099,-5.9249,-6.0086,-6.0715,-6.1283,-6.2121,-6.269,-6.3079,-6.3079,-6.3079,-6.3079,-6.3079,-6.3079,-6.2497,-6.0298,-5.9536,-5.8328,-5.538,-5.4742,-5.4366,-5.311,-5.2929,-5.2929,-5.2929,-5.2929,-5.2929,-5.2929,-5.2678,-5.2402,-5.2126,-5.2226,-5.2176,-5.1925,-5.2402,-5.2653,-5.2528,-5.2779,-5.2678,-5.2126,-5.2226,-5.2126,-5.1699,-5.1699,-5.1548,-5.1272,-5.0845,-5.0645,-5.0619,-5.0218,-5.0017,0.0,-5.9449,0.0,-6.366,0.0,0.0,0.0,0.0,0.0,0.0,0.0,0.0,0.0,0.0,0.0,0.0,0.0,0.0,0.0,0.0,0.0,0.0,0.0,0.0,0.0,0.0,0.0,0.0,0.0,-5.6621,-5.5441,-5.531,-5.528,-5.5179,-5.528,-5.528,-5.528,-5.6493,-5.86,-6.165,-6.1683,-6.304,-6.5561,-6.5628,-6.5595,-6.5527,-6.485,-6.414,-6.3485,-6.3743,-6.343,-6.2837,-6.3027,-6.2341,-6.1193,-6.104,-6.0255,-5.9207,-5.9099,-5.9099,-5.9099,-5.9099,-5.9099,-5.9338,-6.0655,-6.1074,-6.1373,-6.266,-6.3049,-6.3079,-6.3079,-6.3079,-6.3079,-6.3079,-6.3079,-6.2175,-5.8821,-5.6828,-5.5115,-5.3359,-5.3042,-5.2973,-5.2929,-5.2929,-5.2929,-5.2929,-5.2929,-5.2929,-5.2929,-5.2026,-5.1548,-5.2051,-5.1172,-5.077,-5.1272,-5.1825,-5.1925,-5.1398,-5.2352,-5.2678,-5.2126,-5.2603,-5.2879,-5.2854,-5.2854,-5.2327,-5.1272,-5.1247,-5.1247,-5.1247,-5.1197,-5.1197,0.0,0.0,0.0,0.0,0.0,0.0,0.0,0.0,0.0,0.0,0.0,0.0,0.0,0.0,0.0,0.0,0.0,0.0,0.0,0.0,0.0,0.0,0.0,0.0,0.0,0.0,0.0,0.0,0.0,0.0,-5.5229,-5.5179,-5.5179,-5.5179,-5.5179,-5.5179,-5.5179,-5.6073,-5.7862,-6.0558,-6.1452,-6.3232,-6.5696,-6.6203,-6.6406,-6.6406,-6.6136,-6.5324,-6.4194,-6.3889,-6.3638,-6.3296,-6.2155,-6.1445,-6.0918,-6.0097,-5.9469,-5.9099,-5.9099,-5.9099,-5.9099,-5.9099,-5.9398,-5.9907,-6.0835,-6.1403,-6.1942,-6.281,-6.3079,-6.3079,-6.3079,-6.3079,-6.3079,-6.3079,-6.1407,-5.9532,-5.8257,-5.5775,-5.3606,-5.2998,-5.2929,-5.2929,-5.2929,-5.2929,-5.2929,-5.2929,-5.2929,-5.2929,-5.2929,-5.2277,-5.1749,-5.1599,-5.1222,-5.1046,-5.1272,-5.1473,-5.18,-5.2302,-5.2377,-5.2302,-5.2126,-5.2628,-5.2754,-5.2402,-5.2754,-5.2729,-5.2327,-5.1975,-5.18,-5.18,-5.1448,-5.1272,-5.7848,0.0,0.0,0.0,0.0,0.0,0.0,0.0,0.0,0.0,0.0,0.0,0.0,0.0,0.0,0.0,0.0,0.0,0.0,0.0,0.0,0.0,0.0,0.0,0.0,0.0,0.0,0.0,0.0,0.0,-5.5807,-5.5628,-5.5418,-5.5209,-5.5179,-5.5179,-5.5179,-5.5837,-5.758,-6.028,-6.1419,-6.342,-6.6102,-6.6576,-6.6812,-6.6812,-6.6812,-6.6102,-6.4896,-6.3925,-6.3382,-6.2991,-6.1095,-6.038,-6.0224,-5.9392,-5.9099,-5.9099,-5.9099,-5.9099,-5.9099,-5.9099,-5.9548,-6.0206,-6.0894,-6.1583,-6.2241,-6.2899,-6.3079,-6.3079,-6.3079,-6.2672,-6.2233,-6.2233,-5.9797,-5.7411,-5.7411,-5.5032,-5.2929,-5.2929,-5.308,-5.3181,-5.3181,-5.3356,-5.3482,-5.3482,-5.3482,-5.3482,-5.3482,-5.298,-5.2427,-5.19,-5.1674,-5.1473,-5.1297,-5.1624,-5.2076,-5.2628,-5.2653,-5.2477,-5.2126,-5.2628,-5.2678,-5.2126,-5.2653,-5.2929,-5.2929,-5.2553,-5.2377,-5.2377,-5.2,-5.1825,0.0,0.0,0.0,0.0,0.0,0.0,0.0,0.0,0.0,0.0,0.0,0.0,0.0,0.0,0.0,0.0,0.0,0.0,0.0,0.0,0.0,0.0,0.0,0.0,0.0,0.0,0.0,0.0,0.0,-5.6436,-5.7064,-5.6496,-5.5867,-5.5209,-5.5179,-5.5209,-5.5209,-5.5867,-5.7875,-6.1031,-6.1722,-6.3714,-6.6812,-6.6812,-6.6812,-6.6812,-6.6779,-6.6331,-6.5556,-6.3752,-6.2508,-6.1647,-5.9801,-5.9099,-5.9099,-5.9099,-5.9099,-5.9099,-5.9099,-5.9099,-5.9099,-5.9129,-5.9578,-6.0236,-6.0924,-6.1613,-6.2271,-6.2899,-6.3079,-6.3079,-6.3079,-6.1792,-6.0508,-6.0508,-5.8383,-5.6276,-5.6276,-5.4585,-5.298,-5.298,-5.3381,-5.3733,-5.3733,-5.4185,-5.4561,-5.4561,-5.4561,-5.4561,-5.4561,-5.4059,-5.3507,-5.298,-5.2452,-5.1925,-5.1373,-5.2302,-5.2703,-5.2201,-5.313,-5.3231,-5.2201,-5.2653,-5.2678,-5.2126,-5.2653,-5.2929,-5.2929,-5.2929,-5.2929,-5.2929,-5.2929,-5.2929,-5.5784,0.0,0.0,0.0,0.0,0.0,0.0,0.0,0.0,0.0,0.0,0.0,0.0,0.0,0.0,0.0,0.0,0.0,0.0,0.0,0.0,0.0,0.0,0.0,0.0,0.0,0.0,0.0,-5.6218,-5.6436,-5.7064,-5.6496,-5.5867,-5.5209,-5.5179,-5.5418,-5.5948,-5.6526,-5.85,-6.1754,-6.2412,-6.4126,-6.6812,-6.6812,-6.6812,-6.6779,-6.6237,-6.5673,-6.5006,-6.3574,-6.2058,-6.049,-5.9463,-5.9099,-5.9099,-5.9099,-5.9099,-5.9099,-5.9099,-5.9099,-5.9189,-5.9668,-6.0266,-6.0954,-6.1613,-6.2271,-6.2839,-6.3019,-6.3079,-6.3079,-6.3079,-6.2115,-6.1081,-6.1081,-5.8953,-5.6882,-5.6882,-5.546,-5.411,-5.411,-5.4235,-5.4336,-5.4336,-5.4461,-5.4561,-5.4561,-5.4561,-5.4561,-5.4561,-5.4059,-5.3507,-5.298,-5.2779,-5.2628,-5.2477,-5.2754,-5.3206,-5.3833,-5.3406,-5.3181,-5.3256,-5.3055,-5.2854,-5.2703,-5.2854,-5.2929,-5.2929,-5.2929,-5.2929,-5.2929,-5.2929,-5.2929,-5.4871,-5.5243,-5.575,0.0,0.0,0.0,0.0,0.0,0.0,0.0,0.0,0.0,0.0,0.0,0.0,0.0,0.0,0.0,0.0,0.0,0.0,0.0,0.0,0.0,0.0,0.0,0.0,-5.6526,-5.6316,-5.6316,-5.6705,-5.6376,-5.5867,-5.5209,-5.5179,-5.5508,-5.6218,-5.6795,-5.8776,-6.1996,-6.2652,-6.4322,-6.6812,-6.6474,-6.6339,-6.6305,-6.5561,-6.4476,-6.3212,-6.276,-6.1719,-6.0392,-5.9478,-5.9099,-5.9099,-5.9099,-5.9099,-5.9099,-5.9099,-5.9279,-5.9578,-5.9967,-6.0745,-6.1583,-6.1972,-6.254,-6.3079,-6.3079,-6.3079,-6.2993,-6.2499,-6.1293,-6.0153,-5.9643,-5.796,-5.6364,-5.6364,-5.5822,-5.5114,-5.4662,-5.4762,-5.4913,-5.4913,-5.5089,-5.5239,-5.5239,-5.5239,-5.5239,-5.5239,-5.4963,-5.4536,-5.4009,-5.3959,-5.3758,-5.3281,-5.3683,-5.4034,-5.4185,-5.4059,-5.3783,-5.3381,-5.3306,-5.303,-5.2578,-5.2804,-5.2929,-5.2929,-5.2929,-5.2929,-5.2929,-5.2929,-5.2929,-5.3687,-5.4465,-5.5344,-5.4735,0.0,0.0,-5.6939,-5.8045,0.0,0.0,0.0,0.0,0.0,0.0,0.0,0.0,0.0,0.0,0.0,0.0,0.0,0.0,0.0,0.0,0.0,-5.6107,-5.6316,-5.6944,-5.6555,-5.6308,-5.6218,-5.6218,-5.5867,-5.5209,-5.5179,-5.5538,-5.6308,-5.6825,-5.8776,-6.1996,-6.2652,-6.4257,-6.6542,-6.5808,-6.5462,-6.5327,-6.4619,-6.2944,-6.0865,-6.147,-6.1337,-6.0568,-5.9492,-5.9099,-5.9099,-5.9099,-5.9099,-5.9099,-5.9099,-5.9548,-6.0086,-6.0176,-6.1074,-6.2121,-6.2181,-6.26,-6.3079,-6.3079,-6.3139,-6.291,-6.162,-6.0146,-5.8728,-5.7501,-5.6335,-5.5491,-5.5491,-5.5867,-5.5917,-5.4938,-5.5139,-5.5491,-5.5491,-5.5892,-5.6219,-5.6219,-5.6219,-5.6219,-5.6219,-5.6219,-5.5993,-5.544,-5.544,-5.5039,-5.3984,-5.4863,-5.5039,-5.4034,-5.4863,-5.4737,-5.3256,-5.3507,-5.3256,-5.2302,-5.2703,-5.2929,-5.2929,-5.2929,-5.2929,-5.2929,-5.2929,-5.2929,0.0,-5.3721,-5.4059,-5.4465,-5.5141,0.0,-5.6715,-5.7533,0.0,0.0,0.0,0.0,0.0,0.0,0.0,0.0,0.0,0.0,0.0,0.0,0.0,0.0,0.0,0.0,0.0,-5.5688,-5.5658,-5.6316,-5.6705,-5.6705,-5.6248,-5.6218,-5.5867,-5.5209,-5.5179,-5.5748,-5.6885,-5.7034,-5.8725,-6.1948,-6.2652,-6.3734,-6.5012,-6.451,-6.3912,-6.3315,-6.2586,-6.1491,-6.0277,-6.0725,-6.0009,-5.8693,-5.8997,-5.9099,-5.9099,-5.9099,-5.9099,-5.9099,-5.9099,-5.9548,-6.0176,-6.0745,-6.1463,-6.2181,-6.272,-6.2989,-6.3079,-6.3079,-6.3438,-6.3445,-6.1707,-6.0766,-5.9851,-5.8122,-5.6855,-5.6043,-5.6043,-5.6143,-5.6143,-5.5942,-5.5968,-5.6043,-5.6043,-5.6143,-5.6219,-5.6219,-5.6219,-5.6219,-5.6219,-5.6219,-5.5993,-5.544,-5.5792,-5.5792,-5.5114,-5.5666,-5.5968,-5.5742,-5.5516,-5.5239,-5.4913,-5.4135,-5.3607,-5.3381,-5.308,-5.2929,-5.2929,-5.2929,-5.2929,-5.2929,-5.2929,-5.2929,0.0,0.0,-5.3585,-5.3957,-5.4329,0.0,0.0,0.0,0.0,0.0,0.0,0.0,0.0,0.0,0.0,0.0,0.0,0.0,0.0,0.0,0.0,0.0,0.0,0.0,0.0,-5.5388,-5.5329,-5.5658,-5.6286,-5.6346,-5.5718,-5.5688,-5.5538,-5.5209,-5.5179,-5.5658,-5.6615,-5.6645,-5.7963,-6.0532,-6.1472,-6.2261,-6.2814,-6.2814,-6.2267,-6.1345,-6.0585,-5.9986,-5.9501,-5.9736,-5.9325,-5.865,-5.8979,-5.9099,-5.9099,-5.9099,-5.9099,-5.9159,-5.9488,-6.0027,-6.0715,-6.1373,-6.2061,-6.266,-6.2989,-6.3079,-6.3139,-6.3438,-6.3767,-6.3506,-6.1491,-6.0765,-5.9966,-5.7614,-5.662,-5.6219,-5.6219,-5.6219,-5.6219,-5.6219,-5.6219,-5.6219,-5.6219,-5.6219,-5.6219,-5.6219,-5.6219,-5.6219,-5.6219,-5.6219,-5.6118,-5.5817,-5.6043,-5.5993,-5.544,-5.5892,-5.6093,-5.5817,-5.5792,-5.5666,-5.539,-5.4838,-5.4285,-5.3708,-5.3181,-5.2929,-5.2929,-5.2929,-5.2929,-5.2929,-5.2929,-5.2929,0.0,0.0,0.0,-5.3518,-5.3619,-5.3991,0.0,0.0,0.0,0.0,0.0,0.0,0.0,0.0,0.0,0.0,0.0,0.0,0.0,0.0,0.0,0.0,0.0,0.0,0.0,-5.5119,-5.5179,-5.5179,-5.5688,-5.5748,-5.5209,-5.5179,-5.5179,-5.5179,-5.5179,-5.5508,-5.6218,-5.6218,-5.7092,-5.89,-6.0028,-6.0546,-6.0582,-6.0887,-6.0405,-5.9338,-5.9106,-5.8829,-5.8589,-5.9228,-5.9308,-5.9099,-5.9099,-5.9099,-5.9099,-5.9099,-5.9099,-5.9189,-5.9847,-6.0535,-6.1224,-6.1882,-6.254,-6.3079,-6.3079,-6.3079,-6.3199,-6.3827,-6.3831,-6.3172,-6.1128,-6.0462,-5.9602,-5.684,-5.6219,-5.6219,-5.6219,-5.6219,-5.6219,-5.6219,-5.6219,-5.6219,-5.6219,-5.6219,-5.6219,-5.6219,-5.6219,-5.6219,-5.6219,-5.6219,-5.6219,-5.6219,-5.6219,-5.6018,-5.5591,-5.5968,-5.6018,-5.5566,-5.5968,-5.6018,-5.5566,-5.534,-5.4762,-5.3708,-5.3181,-5.2929,-5.2929,-5.2929,-5.2929,-5.2929,-5.2929,-5.2929,0.0,0.0,0.0,0.0,-5.3991,-5.4329,0.0,0.0,-5.548,0.0,0.0,0.0,0.0,0.0,0.0,0.0,0.0,0.0,0.0,0.0,0.0,0.0,0.0,0.0,0.0,0.0,0.0,-5.5179,-5.5269,-5.5269,-5.5179,-5.5179,-5.5179,-5.5179,-5.5179,-5.5508,-5.6218,-5.6218,-5.688,-5.812,-5.8954,-5.9223,-5.9023,-5.8688,-5.8105,-5.7401,-5.9073,-5.8842,-5.751,-6.0366,-6.059,-5.9099,-5.9099,-5.9099,-5.9099,-5.9099,-5.9099,-5.9189,-5.9847,-6.0535,-6.1224,-6.1882,-6.254,-6.3079,-6.3079,-6.3079,-6.3199,-6.3827,-6.3263,-6.2188,-6.0913,-5.9819,-5.864,-5.6678,-5.6219,-5.6219,-5.6219,-5.6219,-5.6219,-5.6219,-5.6219,-5.6219,-5.6219,-5.6219,-5.6219,-5.6219,-5.6219,-5.6219,-5.6219,-5.6219,-5.6219,-5.6219,-5.6219,-5.6194,-5.6118,-5.6168,-5.6194,-5.6118,-5.6168,-5.6194,-5.6118,-5.5189,-5.4361,-5.3708,-5.3181,-5.2929,-5.2929,-5.2929,-5.2929,-5.2929,-5.2929,-5.2929,0.0,0.0,0.0,0.0,0.0,0.0,-5.3788,0.0,-5.4465,0.0,0.0,0.0,0.0,0.0,0.0,0.0,0.0,0.0,0.0,0.0,0.0,0.0,0.0,0.0,0.0,0.0,0.0,0.0,0.0,-5.461,-5.461,-5.497,-5.5179,-5.5179,-5.5179,-5.5329,-5.5598,-5.5598,-5.5872,-5.6393,-5.7395,-5.7452,-5.6735,-5.7253,-5.6884,-5.6047,-5.7199,-5.7506,-5.7228,-5.8971,-5.9466,-5.9099,-5.9099,-5.9099,-5.9099,-5.9099,-5.9099,-5.9249,-6.0326,-6.0864,-6.1283,-6.2331,-6.2839,-6.3079,-6.3079,-6.3079,-6.3288,-6.4306,-6.3495,-6.2108,-6.1386,-6.0075,-5.8437,-5.6605,-5.6219,-5.6219,-5.6219,-5.6219,-5.6219,-5.6219,-5.6219,-5.6219,-5.6219,-5.6219,-5.6219,-5.6219,-5.6219,-5.6219,-5.6219,-5.6219,-5.6219,-5.6219,-5.6219,-5.6219,-5.6219,-5.6219,-5.6219,-5.6219,-5.6219,-5.6219,-5.6219,-5.5139,-5.4461,-5.421,-5.3356,-5.2929,-5.2929,-5.2929,-5.2929,-5.2929,-5.2929,-5.3427,-5.531,0.0,0.0,0.0,0.0,0.0,0.0,0.0,0.0,0.0,0.0,0.0,0.0,0.0,0.0,0.0,0.0,0.0,0.0,0.0,0.0,0.0,0.0,0.0,0.0,0.0,0.0,0.0,0.0,0.0,-5.4192,-5.467,-5.4999,-5.5179,-5.5179,-5.5179,-5.5179,-5.5179,-5.5179,-5.5179,-5.6085,-5.6035,-5.5229,-5.6085,-5.6157,-5.5529,-5.6566,-5.7127,-5.7476,-5.8475,-5.8994,-5.9099,-5.9099,-5.9099,-5.9099,-5.9099,-5.9219,-5.9548,-6.0715,-6.1343,-6.1822,-6.278,-6.3079,-6.3079,-6.3079,-6.3199,-6.3499,-6.4069,-6.3051,-6.1663,-6.1051,-5.9504,-5.7824,-5.6485,-5.6219,-5.6219,-5.6219,-5.6219,-5.6219,-5.6219,-5.6219,-5.6219,-5.6219,-5.6219,-5.6219,-5.6219,-5.6219,-5.6219,-5.6219,-5.6219,-5.6219,-5.6219,-5.6219,-5.6219,-5.6219,-5.6219,-5.6219,-5.6219,-5.6219,-5.6219,-5.6219,-5.5139,-5.4819,-5.5287,-5.4192,-5.3887,-5.4557,-5.404,-5.4108,-5.4557,-5.3887,-5.4231,0.0,0.0,0.0,-5.5683,0.0,0.0,0.0,0.0,-5.4566,0.0,0.0,0.0,0.0,0.0,0.0,0.0,0.0,0.0,0.0,0.0,0.0,0.0,0.0,0.0,0.0,0.0,0.0,0.0,0.0,0.0,-5.4192,-5.4221,-5.4521,-5.5179,-5.5179,-5.5179,-5.5179,-5.5179,-5.5179,-5.5179,-5.5229,-5.5229,-5.5179,-5.5229,-5.5589,-5.6269,-5.8182,-5.8685,-5.8248,-6.0126,-6.0172,-5.9099,-5.9099,-5.9099,-5.9099,-5.9099,-5.9518,-6.0146,-6.0864,-6.1942,-6.3019,-6.3079,-6.3079,-6.3079,-6.3079,-6.3498,-6.3743,-6.267,-6.1542,-6.0423,-5.9302,-5.7635,-5.6267,-5.6219,-5.6219,-5.6219,-5.6219,-5.6219,-5.6219,-5.6219,-5.6219,-5.6219,-5.6219,-5.6219,-5.6219,-5.6219,-5.6219,-5.6219,-5.6219,-5.6219,-5.6219,-5.6219,-5.6219,-5.6219,-5.6219,-5.6219,-5.6219,-5.6219,-5.6219,-5.6219,-5.6219,-5.5139,-5.5357,-5.6983,-5.5893,-5.6474,-5.8797,-5.709,-5.7063,-5.8732,-5.6408,-5.5353,0.0,0.0,-5.8389,-5.7408,0.0,0.0,0.0,0.0,0.0,0.0,0.0,0.0,0.0,0.0,0.0,0.0,0.0,0.0,0.0,0.0,0.0,0.0,0.0,0.0,0.0,0.0,0.0,0.0,0.0,0.0,0.0,-5.3952,-5.4521,-5.5179,-5.5179,-5.5179,-5.5179,-5.5179,-5.5179,-5.5179,-5.5179,-5.5179,-5.5209,-5.5658,-5.5957,-5.6278,-5.7794,-5.8294,-5.8171,-5.9304,-5.9499,-5.9099,-5.9099,-5.9099,-5.9099,-5.9099,-5.9518,-6.0236,-6.1373,-6.2331,-6.3079,-6.3079,-6.3079,-6.3079,-6.3079,-6.3498,-6.3743,-6.2608,-6.1478,-6.0316,-5.9232,-5.7564,-5.6219,-5.6219,-5.6219,-5.6219,-5.6219,-5.6219,-5.6219,-5.6219,-5.6219,-5.6219,-5.6219,-5.6219,-5.6219,-5.6219,-5.6219,-5.6219,-5.6219,-5.6219,-5.6219,-5.6219,-5.6219,-5.6219,-5.6219,-5.6219,-5.6219,-5.6219,-5.6219,-5.6219,-5.6219,-5.5491,-5.5739,-5.7051,-5.6355,-5.7034,-5.9017,-5.8372,-5.8656,-5.9691,-5.9982,-5.9641,-5.9776,-5.9979,0.0,-5.8896,-5.7915,0.0,-5.5987,0.0,-5.5074,0.0,0.0,0.0,0.0,0.0,0.0,0.0,0.0,0.0,0.0,0.0,0.0,0.0,0.0,0.0,0.0,0.0,0.0,0.0,0.0,0.0,0.0,0.0,-5.4251,-5.5149,-5.5179,-5.5179,-5.5179,-5.5179,-5.5179,-5.5179,-5.5179,-5.5179,-5.5209,-5.5867,-5.6338,-5.6555,-5.7663,-5.8261,-5.8501,-5.8919,-5.9099,-5.9099,-5.9099,-5.9099,-5.9099,-5.9099,-5.9668,-6.0655,-6.1972,-6.272,-6.3079,-6.3079,-6.3079,-6.3079,-6.3079,-6.3238,-6.3053,-6.1508,-6.0542,-5.9656,-5.8096,-5.6933,-5.6219,-5.6219,-5.6219,-5.6219,-5.6219,-5.6219,-5.6219,-5.6219,-5.6219,-5.6219,-5.6219,-5.6219,-5.6219,-5.6219,-5.6219,-5.6219,-5.6219,-5.6219,-5.6219,-5.6219,-5.6219,-5.6219,-5.6219,-5.6219,-5.6219,-5.6219,-5.6219,-5.6219,-5.6219,-5.6289,-5.6851,-5.8,-5.8112,-5.9128,-6.1154,-6.0498,-6.0836,-6.2159,-6.2538,-6.2579]},{"header":{"parameterUnit":"m.s-1","parameterCategory":1,"la1":30.6,"la2":29.2853,"lo1":-89.7004,"lo2":-87.6739,"dx":0.0162,"dy":0.0183,"nx":112,"ny":82,"refTime":"2023-01-11T06:00:00:Z","depth":0,"parameterNumber":3,"parameterNumberName":"V-component_of_WINDS"},"data":[0.0,0.0,0.0,0.0,0.0,0.0,0.0,0.0,0.0,0.0,0.0,0.0,0.0,0.0,0.0,0.0,0.0,0.0,0.0,0.0,0.0,0.0,0.0,0.0,0.0,0.0,0.0,0.0,0.0,0.0,0.0,0.0,0.0,0.0,0.0,0.0,0.0,0.0,0.0,0.0,0.0,0.0,0.0,0.0,0.0,0.0,0.0,0.0,0.0,0.0,0.0,0.0,0.0,0.0,0.0,0.0,0.0,0.0,0.0,0.0,0.0,0.0,0.0,0.0,0.0,0.0,0.0,0.0,0.0,0.0,0.0,0.0,0.0,0.0,0.0,0.0,0.0,0.0,0.0,0.0,0.0,0.0,0.0,0.0,0.0,0.0,0.0,0.0,0.0,0.0,-3.8979,-3.585,-3.4109,-3.2525,-3.0876,-3.2228,-3.2827,-3.1967,0.0,0.0,0.0,0.0,0.0,0.0,0.0,0.0,0.0,0.0,0.0,0.0,0.0,0.0,0.0,0.0,0.0,0.0,0.0,0.0,0.0,0.0,0.0,0.0,0.0,0.0,0.0,0.0,0.0,0.0,0.0,0.0,0.0,0.0,0.0,0.0,0.0,0.0,0.0,0.0,0.0,0.0,0.0,0.0,0.0,0.0,0.0,0.0,0.0,0.0,0.0,0.0,0.0,0.0,0.0,0.0,0.0,0.0,0.0,0.0,0.0,0.0,0.0,0.0,0.0,0.0,0.0,0.0,0.0,0.0,0.0,0.0,0.0,0.0,0.0,0.0,0.0,0.0,0.0,0.0,0.0,0.0,0.0,0.0,0.0,0.0,0.0,0.0,0.0,0.0,0.0,0.0,0.0,0.0,0.0,0.0,0.0,0.0,0.0,0.0,0.0,0.0,0.0,0.0,-3.8678,-3.6158,-3.4277,-3.3101,-3.2804,-3.3031,-3.2827,-3.1967,0.0,0.0,0.0,0.0,0.0,0.0,0.0,0.0,0.0,0.0,0.0,0.0,0.0,0.0,0.0,0.0,0.0,0.0,0.0,0.0,0.0,0.0,0.0,0.0,0.0,0.0,0.0,0.0,0.0,0.0,0.0,0.0,0.0,0.0,0.0,0.0,0.0,0.0,0.0,0.0,0.0,0.0,0.0,0.0,0.0,0.0,0.0,0.0,0.0,0.0,0.0,0.0,0.0,0.0,0.0,0.0,0.0,0.0,0.0,0.0,0.0,0.0,0.0,0.0,0.0,0.0,0.0,0.0,0.0,0.0,0.0,0.0,0.0,0.0,0.0,0.0,0.0,0.0,0.0,0.0,0.0,0.0,0.0,0.0,0.0,0.0,0.0,0.0,0.0,0.0,0.0,0.0,0.0,0.0,0.0,0.0,0.0,0.0,0.0,0.0,0.0,0.0,0.0,-3.9051,-3.7548,-3.6121,-3.5226,-3.4746,-3.4746,-3.4746,-3.4369,-3.3472,-3.4228,0.0,0.0,0.0,0.0,0.0,0.0,0.0,0.0,0.0,0.0,0.0,0.0,0.0,0.0,0.0,0.0,0.0,0.0,0.0,0.0,0.0,0.0,0.0,0.0,0.0,0.0,0.0,0.0,0.0,0.0,0.0,0.0,0.0,0.0,0.0,0.0,0.0,0.0,0.0,0.0,0.0,0.0,0.0,0.0,0.0,0.0,0.0,0.0,0.0,0.0,0.0,0.0,0.0,0.0,0.0,0.0,0.0,0.0,0.0,0.0,0.0,0.0,0.0,0.0,0.0,0.0,0.0,0.0,0.0,0.0,0.0,0.0,0.0,0.0,0.0,0.0,0.0,0.0,0.0,0.0,0.0,0.0,0.0,0.0,0.0,0.0,0.0,0.0,0.0,0.0,0.0,0.0,0.0,0.0,0.0,0.0,0.0,0.0,0.0,0.0,0.0,0.0,-3.8501,-3.7431,-3.6141,-3.6016,-3.6016,-3.6016,-3.5937,-3.5547,-3.4746,-3.4609,0.0,0.0,0.0,0.0,0.0,0.0,0.0,0.0,0.0,0.0,0.0,0.0,0.0,0.0,0.0,0.0,0.0,0.0,0.0,0.0,0.0,0.0,0.0,0.0,0.0,0.0,0.0,0.0,0.0,0.0,0.0,0.0,0.0,0.0,0.0,0.0,0.0,0.0,0.0,0.0,0.0,0.0,0.0,0.0,0.0,0.0,0.0,0.0,0.0,0.0,0.0,0.0,0.0,0.0,0.0,0.0,0.0,0.0,0.0,0.0,0.0,0.0,0.0,0.0,0.0,0.0,0.0,0.0,0.0,0.0,0.0,0.0,0.0,0.0,0.0,0.0,0.0,0.0,0.0,0.0,0.0,0.0,0.0,0.0,0.0,0.0,0.0,0.0,0.0,0.0,0.0,0.0,0.0,0.0,0.0,0.0,0.0,0.0,0.0,0.0,0.0,0.0,-4.0029,-3.9628,-3.6336,-3.6016,-3.6016,-3.6016,-3.5664,-3.5234,-3.4726,-3.4336,0.0,0.0,0.0,0.0,0.0,0.0,0.0,0.0,0.0,0.0,0.0,0.0,0.0,0.0,0.0,0.0,0.0,0.0,0.0,0.0,0.0,0.0,0.0,0.0,0.0,0.0,0.0,0.0,0.0,0.0,0.0,0.0,0.0,0.0,0.0,0.0,0.0,0.0,0.0,0.0,0.0,0.0,0.0,0.0,0.0,0.0,0.0,0.0,0.0,0.0,0.0,0.0,0.0,0.0,0.0,0.0,0.0,0.0,0.0,0.0,0.0,0.0,0.0,0.0,0.0,0.0,0.0,0.0,0.0,0.0,0.0,0.0,0.0,0.0,0.0,0.0,0.0,0.0,0.0,0.0,0.0,0.0,0.0,0.0,0.0,0.0,0.0,0.0,0.0,0.0,0.0,0.0,0.0,0.0,0.0,0.0,0.0,0.0,0.0,0.0,0.0,0.0,-3.8581,-3.7882,0.0,-3.6016,-3.6016,-3.6016,-3.5879,-3.5469,-3.4746,0.0,0.0,0.0,0.0,0.0,0.0,0.0,0.0,0.0,0.0,0.0,0.0,0.0,0.0,0.0,0.0,0.0,0.0,0.0,0.0,0.0,0.0,0.0,0.0,0.0,0.0,0.0,0.0,0.0,0.0,0.0,0.0,0.0,0.0,0.0,0.0,0.0,0.0,0.0,0.0,0.0,0.0,0.0,0.0,0.0,0.0,0.0,0.0,0.0,0.0,0.0,0.0,0.0,0.0,0.0,0.0,0.0,0.0,0.0,0.0,0.0,0.0,0.0,0.0,0.0,0.0,0.0,0.0,0.0,0.0,0.0,0.0,0.0,0.0,0.0,0.0,0.0,0.0,0.0,0.0,0.0,0.0,0.0,0.0,0.0,0.0,0.0,0.0,0.0,0.0,0.0,0.0,0.0,0.0,0.0,0.0,0.0,0.0,0.0,0.0,0.0,0.0,-3.8522,-3.7824,-3.7078,0.0,-3.6016,-3.6016,-3.6016,-3.5898,-3.5449,-3.4551,0.0,0.0,0.0,0.0,0.0,0.0,0.0,0.0,0.0,0.0,0.0,0.0,0.0,0.0,0.0,0.0,0.0,0.0,0.0,0.0,0.0,0.0,0.0,0.0,0.0,0.0,0.0,0.0,0.0,0.0,0.0,0.0,0.0,0.0,0.0,0.0,0.0,0.0,0.0,0.0,0.0,0.0,0.0,0.0,0.0,0.0,0.0,0.0,0.0,0.0,0.0,0.0,0.0,0.0,0.0,0.0,0.0,0.0,0.0,0.0,0.0,0.0,0.0,0.0,0.0,0.0,0.0,0.0,0.0,0.0,0.0,0.0,0.0,0.0,0.0,0.0,0.0,0.0,0.0,0.0,0.0,0.0,0.0,0.0,0.0,0.0,0.0,0.0,0.0,0.0,0.0,0.0,0.0,0.0,0.0,0.0,0.0,0.0,0.0,0.0,0.0,0.0,-3.8,-3.8251,-3.7888,-3.6219,-3.6016,-3.6016,-3.6016,-3.5644,-3.5019,0.0,0.0,0.0,0.0,0.0,0.0,0.0,0.0,0.0,0.0,0.0,0.0,0.0,0.0,0.0,0.0,0.0,0.0,0.0,0.0,0.0,0.0,0.0,0.0,0.0,0.0,0.0,0.0,0.0,0.0,0.0,0.0,0.0,0.0,0.0,0.0,0.0,0.0,0.0,0.0,0.0,0.0,0.0,0.0,0.0,0.0,0.0,0.0,0.0,0.0,0.0,0.0,0.0,0.0,0.0,0.0,0.0,0.0,0.0,0.0,0.0,0.0,0.0,0.0,0.0,0.0,0.0,0.0,0.0,0.0,0.0,0.0,0.0,0.0,0.0,0.0,0.0,0.0,0.0,0.0,0.0,0.0,0.0,0.0,0.0,0.0,0.0,0.0,0.0,0.0,0.0,0.0,0.0,0.0,0.0,0.0,0.0,0.0,0.0,0.0,0.0,0.0,0.0,-3.6478,-3.6582,-3.6539,-3.6084,-3.6016,-3.6016,-3.6016,-3.5898,-3.5332,-3.4141,0.0,0.0,0.0,0.0,0.0,0.0,0.0,0.0,0.0,0.0,0.0,0.0,0.0,0.0,0.0,0.0,0.0,0.0,0.0,0.0,0.0,0.0,0.0,0.0,0.0,0.0,0.0,0.0,0.0,0.0,0.0,0.0,0.0,0.0,0.0,0.0,0.0,0.0,0.0,0.0,0.0,0.0,0.0,0.0,0.0,0.0,0.0,0.0,0.0,0.0,0.0,0.0,0.0,0.0,0.0,0.0,0.0,0.0,0.0,0.0,0.0,0.0,0.0,0.0,0.0,0.0,0.0,0.0,0.0,0.0,0.0,0.0,0.0,0.0,0.0,0.0,0.0,0.0,0.0,0.0,0.0,0.0,0.0,0.0,0.0,0.0,0.0,0.0,0.0,0.0,0.0,0.0,0.0,0.0,0.0,0.0,0.0,0.0,0.0,0.0,0.0,0.0,-3.5554,-3.5721,-3.6016,-3.6016,-3.6016,-3.6016,-3.6016,-3.5859,-3.5351,-3.4394,0.0,0.0,0.0,0.0,0.0,0.0,0.0,0.0,0.0,0.0,0.0,0.0,0.0,0.0,0.0,0.0,0.0,0.0,0.0,0.0,0.0,0.0,0.0,0.0,0.0,0.0,0.0,0.0,0.0,0.0,0.0,0.0,0.0,0.0,0.0,0.0,0.0,0.0,0.0,0.0,0.0,0.0,0.0,0.0,0.0,0.0,0.0,0.0,0.0,0.0,0.0,0.0,0.0,0.0,0.0,0.0,0.0,0.0,0.0,0.0,0.0,0.0,0.0,0.0,0.0,0.0,0.0,0.0,0.0,0.0,0.0,0.0,0.0,0.0,0.0,0.0,0.0,0.0,0.0,0.0,0.0,0.0,0.0,0.0,0.0,0.0,0.0,0.0,0.0,0.0,0.0,0.0,0.0,0.0,0.0,0.0,0.0,0.0,0.0,0.0,0.0,0.0,-3.4974,-3.5496,-3.6016,-3.6016,-3.6016,-3.6016,-3.6016,-3.5625,-3.5195,-3.4726,0.0,0.0,0.0,0.0,0.0,0.0,0.0,0.0,0.0,0.0,0.0,0.0,0.0,0.0,0.0,0.0,0.0,0.0,0.0,0.0,0.0,0.0,0.0,0.0,0.0,0.0,0.0,0.0,0.0,0.0,0.0,0.0,0.0,0.0,0.0,0.0,0.0,0.0,0.0,0.0,0.0,0.0,0.0,0.0,0.0,0.0,0.0,0.0,0.0,0.0,0.0,0.0,0.0,0.0,0.0,0.0,0.0,0.0,0.0,0.0,-3.0103,0.0,0.0,0.0,0.0,0.0,0.0,0.0,0.0,0.0,0.0,0.0,0.0,0.0,0.0,0.0,0.0,0.0,0.0,0.0,0.0,0.0,0.0,0.0,0.0,0.0,0.0,0.0,0.0,0.0,0.0,0.0,0.0,0.0,0.0,0.0,0.0,0.0,0.0,0.0,0.0,0.0,-3.3616,-3.4864,-3.6016,-3.6016,-3.6016,-3.6016,-3.6016,-3.5625,-3.5195,-3.4726,-3.373,0.0,0.0,0.0,0.0,0.0,0.0,0.0,0.0,0.0,0.0,0.0,0.0,0.0,0.0,0.0,0.0,0.0,0.0,0.0,0.0,0.0,0.0,0.0,0.0,0.0,0.0,0.0,0.0,0.0,0.0,0.0,0.0,0.0,0.0,0.0,0.0,0.0,0.0,0.0,0.0,0.0,0.0,0.0,0.0,0.0,0.0,0.0,0.0,0.0,0.0,0.0,0.0,0.0,0.0,0.0,0.0,0.0,0.0,0.0,0.0,-2.9617,0.0,0.0,0.0,0.0,0.0,0.0,0.0,0.0,0.0,0.0,0.0,0.0,0.0,0.0,0.0,0.0,0.0,0.0,0.0,0.0,0.0,0.0,0.0,0.0,0.0,0.0,0.0,0.0,0.0,0.0,0.0,0.0,0.0,0.0,0.0,0.0,0.0,0.0,0.0,0.0,-3.3336,-3.4805,-3.6016,-3.6016,-3.6016,-3.6016,-3.6016,-3.5625,-3.5371,-3.5332,-3.3945,0.0,0.0,0.0,0.0,0.0,0.0,0.0,0.0,0.0,0.0,0.0,0.0,0.0,0.0,0.0,0.0,0.0,0.0,0.0,0.0,0.0,0.0,0.0,0.0,0.0,0.0,0.0,0.0,0.0,0.0,0.0,0.0,0.0,0.0,0.0,0.0,0.0,0.0,0.0,0.0,0.0,0.0,0.0,0.0,0.0,0.0,0.0,0.0,0.0,0.0,0.0,0.0,0.0,-2.4824,-2.5098,-2.4291,-2.592,-2.6669,-2.6653,-2.6501,-2.7763,-3.0017,-2.9942,0.0,0.0,0.0,0.0,0.0,0.0,0.0,0.0,0.0,0.0,0.0,0.0,0.0,0.0,0.0,0.0,0.0,0.0,0.0,0.0,0.0,0.0,0.0,0.0,-3.6058,-3.7847,-4.03,0.0,0.0,0.0,0.0,0.0,0.0,0.0,0.0,0.0,0.0,0.0,-3.3705,-3.498,-3.6016,-3.6016,-3.6016,-3.6016,-3.6016,-3.5625,-3.5566,-3.5996,-3.4277,-3.334,0.0,0.0,0.0,0.0,0.0,0.0,0.0,0.0,0.0,0.0,0.0,0.0,0.0,0.0,0.0,0.0,0.0,0.0,0.0,0.0,0.0,0.0,0.0,0.0,0.0,0.0,0.0,0.0,0.0,0.0,0.0,0.0,-2.7383,-2.6995,0.0,0.0,0.0,0.0,0.0,0.0,0.0,0.0,0.0,0.0,0.0,0.0,0.0,-2.2637,-2.1658,-2.1919,-2.2216,-2.2511,-2.3064,-2.3379,-2.343,-2.4008,-2.4286,-2.4258,-2.3956,0.0,-2.926,-3.0522,0.0,0.0,0.0,0.0,0.0,0.0,0.0,0.0,0.0,0.0,0.0,0.0,0.0,0.0,0.0,0.0,0.0,0.0,0.0,0.0,0.0,0.0,-3.6068,-3.762,-3.819,-3.8891,0.0,-3.8711,-3.6773,-3.7695,-3.5894,0.0,0.0,0.0,0.0,0.0,0.0,0.0,-3.4118,-3.5176,-3.6016,-3.6016,-3.6016,-3.6016,-3.6016,-3.5625,-3.5566,-3.5996,-3.541,-3.4726,-3.4023,-3.6274,0.0,0.0,0.0,0.0,0.0,0.0,0.0,0.0,0.0,0.0,0.0,0.0,0.0,0.0,0.0,0.0,0.0,0.0,0.0,0.0,0.0,0.0,0.0,0.0,0.0,0.0,0.0,0.0,0.0,-2.8687,-2.7433,-2.7827,-2.8181,-2.8307,0.0,0.0,0.0,0.0,0.0,0.0,0.0,0.0,0.0,-2.1746,-2.1992,-2.1997,-2.1603,-2.2058,-2.2418,-2.2672,-2.3153,-2.3447,-2.3581,-2.3875,-2.4008,-2.4022,-2.4048,-2.4966,-2.6671,-2.8069,-2.9392,-3.0651,0.0,0.0,0.0,0.0,-3.2578,-3.2578,-3.2578,-3.2871,-3.3164,-3.2734,0.0,0.0,0.0,0.0,0.0,0.0,0.0,0.0,0.0,0.0,-3.5925,-3.6931,-3.7126,-3.7374,-3.8088,-3.7008,-3.6163,0.0,-3.7144,-3.6414,-3.5292,0.0,0.0,0.0,0.0,-3.5386,-3.5164,-3.5879,-3.6387,-3.6387,-3.6387,-3.6289,-3.6035,-3.5859,-3.582,-3.6016,-3.584,-3.5566,-3.5176,-3.6246,-3.6388,0.0,0.0,0.0,0.0,0.0,0.0,0.0,0.0,0.0,0.0,0.0,0.0,0.0,0.0,0.0,0.0,0.0,0.0,0.0,0.0,0.0,0.0,0.0,0.0,0.0,0.0,0.0,0.0,-2.8162,-2.7029,-2.8026,-2.7835,-2.7658,0.0,0.0,0.0,0.0,0.0,0.0,-2.2268,-2.2436,-2.2193,-2.1387,-2.1697,-2.2057,-2.2205,-2.2806,-2.3169,-2.3169,-2.3634,-2.3888,-2.3888,-2.4182,-2.4315,-2.4329,-2.4543,-2.4636,-2.4743,-2.6184,-2.7516,-2.8825,-3.0583,-3.1138,-3.0972,-3.245,-3.3027,-3.311,-3.3694,-3.4141,-3.4355,-3.4043,-3.3848,-3.373,-3.3652,0.0,0.0,0.0,0.0,-3.4961,-3.5293,-3.5469,-3.5625,-3.5937,-3.6016,-3.6016,-3.6016,-3.6016,-3.6206,0.0,-3.7869,-3.7615,-3.4428,0.0,0.0,0.0,0.0,-3.5703,-3.6133,-3.6562,-3.6836,-3.6836,-3.6836,-3.666,-3.623,-3.6191,-3.6094,-3.5879,-3.5859,-3.5801,-3.5684,-3.6119,-3.6431,-3.6426,0.0,0.0,0.0,0.0,0.0,0.0,0.0,0.0,0.0,0.0,0.0,0.0,0.0,0.0,0.0,0.0,0.0,0.0,0.0,0.0,0.0,0.0,0.0,0.0,0.0,0.0,0.0,0.0,0.0,-2.5825,-2.5031,0.0,0.0,0.0,0.0,-2.346,-2.3534,-2.2923,-2.1245,-2.1477,-2.1773,-2.1937,-2.2498,-2.2874,-2.2819,-2.342,-2.3728,-2.3728,-2.4035,-2.4182,-2.4195,-2.4476,-2.4609,-2.4609,-2.4549,-2.4636,-2.4784,-2.6678,-2.7518,-2.7704,-2.9196,-2.9818,-2.996,-3.1446,-3.1992,-3.2266,-3.4518,-3.5312,-3.5332,-3.5293,-3.5,-3.4785,-3.5605,-3.5293,0.0,0.0,-3.5332,-3.5371,-3.5391,-3.5684,-3.5996,-3.6016,-3.6016,-3.6016,-3.6016,-3.6016,-3.5996,0.0,-3.6141,-3.6003,-3.5371,0.0,-3.5399,-3.5332,-3.5703,-3.6152,-3.6582,-3.7012,-3.7266,-3.7266,-3.7266,-3.709,-3.668,-3.6641,-3.6289,-3.5469,-3.543,-3.5234,-3.4785,-3.638,-3.6519,-3.4935,-3.752,0.0,0.0,0.0,0.0,0.0,0.0,0.0,0.0,0.0,0.0,0.0,0.0,0.0,0.0,0.0,0.0,0.0,0.0,0.0,0.0,0.0,0.0,0.0,0.0,0.0,0.0,0.0,0.0,-2.6215,-2.5678,0.0,-2.3676,-2.4237,-2.4255,-2.3286,-2.2643,-2.2098,-2.1722,-2.1951,-2.2245,-2.2539,-2.2953,-2.326,-2.3517,-2.3848,-2.4048,-2.4048,-2.4342,-2.4476,-2.4489,-2.4596,-2.4636,-2.4636,-2.4636,-2.4636,-2.4636,-2.5345,-2.5639,-2.5845,-2.7572,-2.8315,-2.8513,-3.019,-3.1686,-3.2842,-3.3692,-3.4812,-3.5801,-3.5801,-3.5684,-3.5605,-3.5918,-3.5801,-3.5586,-3.5742,-3.5801,-3.5801,-3.5801,-3.5898,-3.6016,-3.6016,-3.6016,-3.6016,-3.6016,-3.6016,-3.6016,-3.6016,-3.6016,-3.5976,-3.582,-3.5801,-3.5898,-3.6172,-3.6348,-3.6699,-3.7383,-3.7617,-3.7695,-3.7695,-3.7695,-3.7305,-3.6328,-3.625,-3.5879,-3.5,-3.5907,-3.6391,-3.6272,-3.7826,-3.8785,-3.8902,-3.9896,-3.9354,0.0,0.0,0.0,0.0,0.0,0.0,0.0,0.0,0.0,0.0,0.0,0.0,0.0,0.0,0.0,0.0,0.0,0.0,0.0,0.0,0.0,0.0,0.0,0.0,0.0,0.0,-2.6936,-2.6447,-2.5264,-2.4066,-2.2941,-2.2869,-2.2918,-2.2892,-2.224,-2.1924,-2.2124,-2.2512,-2.2819,-2.3006,-2.3407,-2.3714,-2.3915,-2.4209,-2.4342,-2.4356,-2.4543,-2.4636,-2.4636,-2.4636,-2.4636,-2.4636,-2.5286,-2.5212,-2.4636,-2.5286,-2.5212,-2.471,-2.5991,-2.6502,-2.6852,-2.9385,-3.1087,-3.2386,-3.3674,-3.4952,-3.6016,-3.6016,-3.6016,-3.6016,-3.6016,-3.6016,-3.6016,-3.6016,-3.6016,-3.6016,-3.6016,-3.6016,-3.6016,-3.6016,-3.6133,-3.623,-3.623,-3.6348,-3.6445,-3.6445,-3.6328,-3.6191,-3.6035,-3.6152,-3.623,-3.625,-3.6484,-3.6816,-3.7226,-3.7656,-3.793,-3.793,-3.8047,-3.7695,-3.6543,-3.6191,-3.5973,-3.5796,-3.6323,-3.7002,-3.7716,-3.8231,-3.8896,-3.9616,-4.014,-3.992,-3.8919,0.0,0.0,0.0,0.0,0.0,0.0,0.0,0.0,0.0,0.0,0.0,0.0,0.0,0.0,0.0,0.0,0.0,0.0,0.0,0.0,0.0,0.0,0.0,-3.0137,-2.7665,-2.5933,-2.6339,-2.3559,-2.1748,-2.1964,-2.1737,-2.1762,-2.1977,-2.2271,-2.2432,-2.2445,-2.302,-2.334,-2.3354,-2.3915,-2.4209,-2.4222,-2.4489,-2.4636,-2.4636,-2.4636,-2.4636,-2.4636,-2.4636,-2.4636,-2.471,-2.6575,-2.6357,-2.4844,-2.6721,-2.643,-2.4784,-2.4636,-2.4636,-2.5139,-2.8828,-3.031,-3.0946,-3.4727,-3.6016,-3.6016,-3.6016,-3.6016,-3.6016,-3.6016,-3.6016,-3.6016,-3.6016,-3.6035,-3.6035,-3.6035,-3.6055,-3.6055,-3.6055,-3.6387,-3.668,-3.668,-3.7012,-3.7305,-3.7305,-3.6973,-3.6562,-3.6133,-3.6406,-3.6406,-3.5586,-3.6172,0.0,-3.6152,-3.7187,-3.793,-3.791,-3.8301,-3.8203,-3.7324,-3.6573,-3.6609,-3.7796,-3.6729,-3.6957,-3.9001,-3.7632,-3.6812,-3.6812,-3.8241,-4.003,-4.2213,0.0,0.0,0.0,0.0,0.0,0.0,0.0,0.0,0.0,0.0,0.0,0.0,0.0,0.0,0.0,0.0,0.0,0.0,0.0,0.0,0.0,0.0,-3.0449,-3.0234,-2.7665,-2.5933,-2.6339,-2.389,-2.2124,-2.2004,-2.2111,-2.2218,-2.2298,-2.2579,-2.2846,-2.306,-2.3434,-2.3741,-2.3955,-2.4115,-2.4302,-2.4516,-2.4596,-2.4636,-2.4636,-2.4636,-2.4636,-2.4636,-2.4636,-2.4636,-2.4636,-2.5139,-2.5859,-2.6721,-2.7288,-2.7996,-2.847,-2.5698,-2.5492,-2.6852,-2.7852,-3.0042,-3.2735,-3.5158,-3.6016,-3.6016,-3.6016,-3.6016,-3.6016,-3.6016,-3.6016,-3.6016,-3.6016,-3.625,-3.6484,-3.6484,-3.6719,-3.6953,-3.6953,-3.7031,-3.7129,-3.7129,-3.7226,-3.7305,-3.7305,-3.7461,-3.7441,-3.7012,-3.7051,-3.7148,-3.7207,-3.7422,0.0,-3.7851,-3.8184,-3.8164,-3.7539,-3.7851,-3.7637,-3.6465,-3.7617,-3.8299,-3.7882,-3.9516,-4.0602,-4.0727,-4.1076,-4.1403,-4.1793,-4.1059,-4.1146,0.0,0.0,0.0,0.0,0.0,0.0,0.0,0.0,0.0,0.0,0.0,0.0,0.0,0.0,0.0,0.0,0.0,0.0,0.0,0.0,0.0,0.0,-3.0879,-3.1387,-3.1289,-2.8658,-2.6849,-2.7126,-2.4532,-2.2726,-2.2565,-2.2699,-2.2846,-2.2979,-2.314,-2.3327,-2.35,-2.3794,-2.4035,-2.4195,-2.4329,-2.4462,-2.4636,-2.4636,-2.4636,-2.4636,-2.4636,-2.4636,-2.4636,-2.4636,-2.4636,-2.4636,-2.5492,-2.6076,-2.6616,-2.8042,-2.8923,0.0,0.0,0.0,0.0,0.0,-3.1825,-3.4521,-3.5587,-3.6016,-3.6016,-3.6016,-3.6016,-3.6055,-3.623,-3.6289,-3.6328,-3.6504,-3.6738,-3.6934,-3.6934,-3.7109,-3.7305,-3.7305,-3.7441,-3.7559,-3.7559,-3.7695,-3.7832,-3.7832,-3.8027,0.0,-3.7871,-3.7676,-3.7519,-3.7422,-3.7539,-3.7695,-3.7773,-3.8086,-3.8105,-3.7617,-3.7949,-3.7832,-3.6894,-3.8378,0.0,0.0,0.0,-4.2243,-4.2102,-4.2662,0.0,0.0,0.0,0.0,0.0,0.0,0.0,0.0,-4.1936,-4.1153,0.0,0.0,0.0,0.0,0.0,0.0,0.0,0.0,0.0,0.0,0.0,0.0,0.0,0.0,0.0,0.0,-3.1543,-3.2519,-3.2949,-3.0413,-2.8461,-2.8246,-2.5374,-2.3407,-2.338,-2.3434,-2.3554,-2.3754,-2.3834,-2.3848,-2.3821,0.0,0.0,0.0,0.0,-2.4636,-2.4636,-2.4636,-2.4649,-2.469,-2.469,-2.4703,-2.473,-2.473,-2.4804,-2.5174,-2.6896,-2.7056,-2.6411,-2.9497,-3.0049,-2.9085,-3.0189,-3.0664,-3.0876,-3.2804,-3.459,-3.6016,-3.6016,0.0,0.0,-3.6016,-3.6055,-3.6172,-3.6543,-3.6699,-3.6816,-3.7187,-3.7324,-3.7363,-3.7363,-3.7402,-3.7441,-3.7441,-3.7734,-3.7988,-3.7988,-3.8301,-3.8574,-3.8574,-3.8574,-3.8574,-3.8574,-3.8262,-3.7754,-3.6992,-3.7207,-3.7305,-3.6934,-3.7539,-3.7969,-3.7851,0.0,0.0,-3.8157,-3.9213,-4.0556,-4.2186,-4.2606,-4.2939,-4.3156,-4.3162,-4.3162,-4.3162,-4.3162,-4.389,-4.5397,-4.5397,-4.5397,-4.5321,-4.1856,-4.1003,0.0,0.0,0.0,0.0,0.0,0.0,0.0,0.0,0.0,0.0,0.0,0.0,0.0,0.0,0.0,-3.2246,-3.3086,-3.3848,-3.4277,-3.2799,-3.0835,-2.8809,-2.5831,-2.3941,-2.3701,-2.4102,-2.4209,-2.3808,-2.4209,-2.4369,-2.4128,-2.4396,-2.4556,-2.4556,-2.4609,-2.4636,-2.4636,-2.4636,-2.4756,-2.4997,0.0,0.0,-2.5344,-2.5344,-2.6226,-2.785,-2.8223,-3.0002,-3.2757,-3.3409,-3.4377,-3.5268,-3.3371,-3.2665,-3.2874,-3.4727,-3.5655,-3.6016,-3.6016,-3.6016,-3.6016,-3.6016,-3.625,-3.6562,-3.6641,-3.6914,0.0,-3.7266,-3.7539,-3.7812,-3.7812,-3.8066,-3.832,-3.832,-3.8398,-3.8457,-3.8457,-3.8516,-3.8574,-3.8574,-3.8574,-3.8574,-3.8574,-3.8496,-3.8398,-3.8223,-3.8281,-3.8301,-3.8223,-3.834,-3.8184,-3.75,-3.7793,-3.8493,-3.955,-4.1488,-4.3353,-4.5099,-4.5389,-4.5151,-4.4342,-4.4292,-4.4292,-4.4292,-4.4292,-4.4468,-4.4794,-4.4794,-4.4794,-4.4769,-4.4016,-4.3589,0.0,0.0,0.0,0.0,0.0,0.0,0.0,0.0,0.0,0.0,0.0,-3.1328,0.0,0.0,-3.3125,-3.3105,-3.3828,-3.4531,-3.498,-3.3569,-3.1804,-2.9921,-2.7432,-2.5545,-2.4697,-2.477,-2.4743,-2.4449,-2.469,-2.473,-2.4436,-2.4556,-2.4636,-2.4636,-2.4636,-2.4703,-2.4863,-2.4863,-2.501,-2.5291,-2.5291,-2.5371,-2.5518,-2.5518,-2.6101,-2.715,-2.8177,-2.9825,-3.1902,-3.3903,-3.5712,-3.7176,-3.58,-3.5148,-3.5048,-3.5984,-3.6211,-3.6016,-3.6016,-3.6016,-3.6055,-3.6269,-3.6484,-3.6758,-3.7168,-3.7441,-3.7656,-3.7871,-3.8086,-3.8242,-3.8242,-3.8418,-3.8574,-3.8574,-3.8574,-3.8574,-3.8574,-3.8574,-3.8574,-3.8574,-3.8574,-3.8574,-3.8574,-3.8574,-3.8574,-3.8574,-3.8574,-3.8574,-3.8574,-3.8574,-3.8418,-3.7988,-3.8125,-3.8915,-4.0536,-4.3174,-4.5352,-4.689,-4.6811,-4.6351,-4.5497,-4.5196,-4.5045,-4.5045,-4.4769,-4.4769,-4.5045,-4.5045,-4.5045,-4.5045,-4.5045,-4.4744,0.0,0.0,0.0,0.0,0.0,0.0,0.0,0.0,-3.1914,-3.1992,-3.2305,-3.2598,-3.2754,-3.3691,-3.4336,-3.3984,-3.457,-3.5215,-3.5586,-3.4282,-3.289,-3.1709,-2.9189,-2.7173,-2.6199,-2.5518,-2.5144,-2.5077,-2.5077,-2.4957,-2.4649,-2.4636,-2.4663,-2.4716,-2.4716,-2.4863,-2.5157,-2.5157,-2.5317,-2.5598,-2.5598,-2.5625,-2.5678,-2.6049,-2.6495,-2.703,-2.9484,-3.0675,-3.1081,-3.4292,-3.6356,-3.7539,-3.7539,-3.7285,-3.6894,-3.6816,-3.6562,-3.6269,-3.6269,-3.6269,-3.6328,-3.668,-3.6855,-3.7031,-3.7715,-3.7988,-3.8125,-3.8476,-3.8574,-3.8574,-3.8574,-3.8574,-3.8574,-3.8574,-3.8574,-3.8574,-3.8574,-3.8574,-3.8574,-3.8574,-3.8574,-3.8574,-3.8574,-3.8574,-3.8574,-3.8574,-3.8574,-3.8574,-3.8574,-3.8574,-3.8574,-3.8574,-3.8574,-3.9478,-4.1679,-4.4481,-4.6682,-4.7808,-4.7506,-4.7004,-4.6326,-4.5874,-4.5598,-4.5497,-4.502,-4.497,-4.5321,-4.5321,-4.5321,-4.5321,-4.5321,-4.507,-3.7581,-3.4721,0.0,-3.2686,-3.218,-3.1761,0.0,0.0,-3.332,-3.3711,-3.3828,-3.4101,-3.4883,-3.5449,-3.5781,-3.5742,-3.6133,-3.6465,-3.6523,-3.6385,-3.5819,-3.4558,-3.0575,-2.7925,-2.8222,-2.6592,-2.5358,-2.5104,-2.5077,-2.4957,-2.4649,-2.4636,-2.4756,-2.5024,-2.5037,-2.517,-2.5464,-2.5464,-2.5611,-2.5905,-2.5905,-2.6039,-2.6372,-2.8117,-2.9946,-3.1918,-3.5777,-3.747,-3.7582,-3.7966,-3.8312,-3.8437,-3.8437,-3.8164,-3.7734,-3.7363,-3.7187,-3.7148,-3.7148,-3.7148,-3.7168,-3.7207,-3.748,-3.7793,-3.7891,-3.8203,-3.8516,-3.8555,-3.8574,-3.8574,-3.8574,-3.8574,-3.8574,-3.8574,-3.8574,-3.8574,-3.8574,-3.8574,-3.8574,-3.8574,-3.8574,-3.8574,-3.8574,-3.8574,-3.8574,-3.8574,-3.8574,-3.8574,-3.8574,-3.8574,-3.8574,-3.8574,-3.8574,-4.0033,-4.3495,-4.5613,-4.7044,-4.7833,-4.7857,-4.738,-4.6351,-4.625,-4.5999,-4.5497,-4.5422,-4.5171,-4.4719,-4.4719,-4.4719,-4.4719,-4.4719,-4.4694,-3.6667,0.0,0.0,0.0,-3.3087,-3.3164,-3.3769,-3.4434,-3.498,-3.5176,-3.541,-3.6166,-3.7827,-3.8024,-3.7895,0.0,-3.7901,-3.7476,-3.6426,-3.6289,-3.6228,-3.5944,-3.221,-2.9419,-2.8852,-2.7917,-2.6721,-2.5179,-2.5077,-2.5024,-2.4903,-2.489,-2.5024,-2.5317,-2.5331,-2.5478,-2.5772,-2.5772,-2.5919,-2.6291,-2.7423,-2.8025,-2.8218,-3.0284,-3.2337,-3.4376,-3.6053,-3.7492,-3.8574,-3.8574,-3.8574,-3.8574,-3.8574,-3.8457,-3.8242,-3.7812,-3.75,-3.7305,-3.7305,-3.7305,-3.7344,-3.7578,-3.7773,-3.7969,-3.8223,-3.8437,-3.8574,-3.8574,-3.8574,-3.8574,-3.8574,-3.8574,-3.8574,-3.8574,-3.8574,-3.8574,-3.8574,-3.8574,-3.8574,-3.8574,-3.8574,-3.8574,-3.8574,-3.8574,-3.8574,-3.8574,-3.8574,-3.8574,-3.8574,-3.8574,-3.8991,-4.0085,-4.208,-4.4003,-4.5524,-4.7088,-4.7947,-4.7895,-4.7631,-4.7104,-4.6351,-4.5999,-4.5723,-4.5497,-4.5171,-4.502,-4.5121,-4.5121,-4.5296,-4.5598,-4.5598,-4.5598,-3.5824,0.0,0.0,-3.3812,-3.3926,-3.4277,-3.5059,-3.5644,-3.6094,-3.6328,-3.7016,-3.8182,-3.995,-3.9794,-3.9479,-3.9546,-3.8766,-3.7624,-3.6396,-3.6191,-3.6141,-3.6131,-3.3554,-3.1039,-2.8958,-2.8041,-2.6922,-2.5241,-2.5077,-2.5077,-2.5077,-2.5157,-2.5331,-2.5625,-2.5638,-2.5772,-2.6079,-2.6676,-2.702,-2.7227,-2.9293,-3.0284,-3.0284,-3.2413,-3.4451,-3.6349,-3.6349,-3.7198,-3.8574,-3.8574,-3.8574,-3.8574,-3.8574,-3.8574,-3.8535,-3.8223,-3.791,-3.7656,-3.7656,-3.7656,-3.7695,-3.8008,-3.8105,-3.8164,-3.8476,-3.8574,-3.8574,-3.8574,-3.8574,-3.8574,-3.8574,-3.8574,-3.8574,-3.8574,-3.8574,-3.8574,-3.8574,-3.8574,-3.8574,-3.8574,-3.8574,-3.8793,-3.9261,-3.9333,-3.955,-4.0033,-3.9694,-3.9116,-3.8647,-3.9063,-3.9818,-4.1134,-4.414,-4.6217,-4.6542,-4.7499,-4.7929,-4.767,-4.733,-4.6878,-4.6326,-4.5924,-4.5723,-4.5723,-4.5296,-4.5296,-4.5723,-4.5723,-4.5924,-4.6301,-4.6301,-4.6301,-3.552,0.0,-3.262,-3.4238,-3.4355,-3.4512,-3.623,-3.6309,-3.625,-3.709,-3.8763,-4.0108,-4.0619,-4.0345,-4.0098,-4.0098,-3.8191,-3.671,-3.6729,-3.666,-3.615,-3.4719,-3.4468,-3.2722,0.0,-2.6336,-2.5166,-2.5077,-2.5077,-2.5077,-2.5077,-2.5344,-2.5638,-2.5932,-2.5945,-2.6079,-2.6373,-2.8281,-2.9279,-2.9371,-3.1437,-3.2429,-3.2505,-3.4526,-3.6571,-3.8501,-3.8501,-3.8574,-3.8574,-3.8574,-3.8574,-3.8574,-3.8574,-3.8574,-3.8574,-3.8555,-3.8555,-3.8535,-3.8535,-3.8535,-3.8535,-3.8555,-3.8555,-3.8555,-3.8574,-3.8574,-3.8574,-3.8574,-3.8574,-3.8574,-3.8574,-3.8574,-3.8574,-3.8574,-3.8574,-3.8574,-3.8574,-3.8574,-3.8574,-3.8574,-3.8574,-3.9136,-4.0921,-4.1205,-4.182,-4.3703,-4.2382,-4.0565,-3.8846,-4.0157,-4.1255,-4.1255,-4.2988,-4.4664,-4.5936,-4.6085,-4.6368,-4.7107,-4.7093,-4.6878,-4.6326,-4.6301,-4.6276,-4.6276,-4.6276,-4.6276,-4.6276,-4.6276,-4.6301,-4.6301,-4.6301,-4.6301,-3.5604,0.0,-3.3769,-3.5215,-3.5469,-3.5664,-3.6816,-3.6973,-3.7361,-3.9158,-4.0256,-4.1674,-4.4279,-4.3108,-4.1769,-4.1882,-3.9647,-3.7104,-3.4708,-3.4362,-3.3702,-3.1958,-3.0617,0.0,0.0,0.0,0.0,-2.4871,-2.497,-2.5157,-2.5358,-2.5651,-2.5945,-2.6239,-2.6239,-2.6973,-2.8374,-2.906,-3.0053,-3.1513,-3.3549,-3.5217,-3.659,-3.7272,-3.7951,-3.8574,-3.8574,-3.8574,-3.8574,-3.8574,-3.8574,-3.8574,-3.8574,-3.8574,-3.8574,-3.8574,-3.8574,-3.8574,-3.8574,-3.8574,-3.8574,-3.8574,-3.8574,-3.8574,-3.8574,-3.8574,-3.8574,-3.8574,-3.8574,-3.8574,-3.8574,-3.8574,-3.8574,-3.8574,-3.8574,-3.8574,-3.8574,-3.8574,-3.8574,-3.8574,-3.955,-4.0565,-4.1184,-4.2312,-4.3335,-4.3956,-4.25,-4.1063,-4.0443,-4.2031,-4.3611,-4.4823,-4.6622,-4.78,-4.7868,-4.7474,-4.7232,-4.7118,-4.6803,-4.6502,-4.6326,-4.6301,-4.6301,-4.6301,-4.6301,-4.6301,-4.6301,-4.6301,-4.6301,-4.6301,-4.6301,-4.6301,-3.6262,-3.5379,-3.4609,-3.5918,-3.6133,-3.625,-3.7109,-3.7187,-3.7808,-4.041,-4.1678,-4.2988,-4.5389,-4.4229,-4.2683,-4.2146,-3.9833,-3.7012,-3.3875,-3.3438,-3.2386,-2.9631,-2.8197,-2.7215,0.0,0.0,0.0,-2.4884,-2.517,-2.5478,-2.5665,-2.5945,-2.6199,-2.6386,-2.7083,-2.8076,-2.9371,-3.0884,-3.2641,-3.4694,-3.5979,-3.7345,-3.8574,-3.8574,-3.8574,-3.8574,-3.8574,-3.8574,-3.8574,-3.8574,-3.8574,-3.8574,-3.8574,-3.8574,-3.8574,-3.8574,-3.8574,-3.8574,-3.8574,-3.8574,-3.8574,-3.8574,-3.8574,-3.8574,-3.8574,-3.8574,-3.8574,-3.8574,-3.8574,-3.8574,-3.8574,-3.8574,-3.8574,-3.8574,-3.8574,-3.8574,-3.8574,-3.8574,-3.8574,-3.8574,-4.0085,-4.1538,-4.2171,-4.4368,-4.5818,-4.5186,-4.4003,-4.3035,-4.236,-4.3887,-4.5524,-4.6665,-4.8477,-4.9289,-4.8535,-4.8134,-4.7606,-4.6878,-4.6502,-4.6301,-4.6301,-4.6301,-4.6301,-4.6301,-4.6301,-4.6301,-4.6301,-4.6301,-4.6301,-4.6301,-4.6301,-4.6301,-3.7466,-3.644,-3.5098,-3.6387,-3.6387,-3.6289,-3.7109,-3.6992,-3.757,-4.0589,-4.2644,-4.3911,0.0,0.0,-4.261,-4.0959,-3.8748,-3.6419,-3.4137,-3.3711,-3.2081,0.0,0.0,0.0,0.0,0.0,0.0,-2.5117,0.0,-2.6037,-2.6037,-2.6383,-2.6544,-2.6544,-2.853,-2.9604,-2.9666,-3.3683,-3.6645,-3.8574,-3.8574,-3.8574,-3.8574,-3.8574,-3.8574,-3.8574,-3.8574,-3.8574,-3.8574,-3.8574,-3.8574,-3.8574,-3.8574,-3.8574,-3.8574,-3.8574,-3.8574,-3.8574,-3.8574,-3.8574,-3.8574,-3.8574,-3.8574,-3.8574,-3.8574,-3.8574,-3.8574,-3.8574,-3.8574,-3.8574,-3.8574,-3.8574,-3.8574,-3.8574,-3.8574,-3.8574,-3.8574,-3.8574,-3.8647,-3.872,-4.03,-4.2171,-4.4047,-4.7245,-4.8958,-4.7221,-4.6931,-4.6264,-4.4436,-4.5727,-4.6798,-4.6931,-4.8518,-4.9113,-4.8008,-4.7883,-4.7431,-4.6376,-4.6301,-4.6301,-4.6301,-4.6301,-4.6301,-4.6301,-4.6301,-4.6301,-4.6301,-4.6301,-4.6301,-4.6301,-4.6301,-4.6301,-3.8293,-3.7307,-3.6328,-3.6973,-3.7051,-3.7031,-3.7246,-3.7207,-3.7768,-3.9931,-4.08,-4.164,0.0,0.0,0.0,-4.0246,-3.8021,0.0,-3.3611,-3.2087,0.0,-2.7795,0.0,-2.522,-2.5018,-2.5224,0.0,0.0,-2.5879,-2.6037,-2.6037,-2.7671,-2.8608,-2.8608,-3.0592,-3.2413,-3.3943,-3.6516,-3.8117,-3.8574,-3.8574,-3.8574,-3.8574,-3.8574,-3.8574,-3.8574,-3.8574,-3.8574,-3.8574,-3.8574,-3.8574,-3.8574,-3.8574,-3.8574,-3.8574,-3.8574,-3.8574,-3.8574,-3.8574,-3.8574,-3.8574,-3.8574,-3.8574,-3.8574,-3.8574,-3.8574,-3.8574,-3.8574,-3.8574,-3.8574,-3.8574,-3.8574,-3.8574,-3.8574,-3.8574,-3.8574,-3.8574,-3.8574,-3.8991,-4.0371,-4.3174,-4.5996,-4.7863,-4.8983,-4.9461,-4.8958,-4.8893,-4.8191,-4.6331,-4.6532,-4.7353,-4.8763,-4.8957,-4.8686,-4.7958,-4.7556,-4.7054,-4.6351,-4.6301,-4.6301,-4.6301,-4.6301,-4.6301,-4.6301,-4.6301,-4.6301,-4.6301,-4.6301,-4.6301,-4.6301,-4.6301,-4.6301,-3.9997,-3.8671,-3.7051,-3.7461,-3.7578,-3.748,-3.7109,-3.7168,-3.7788,-3.9458,-3.9972,0.0,0.0,0.0,0.0,0.0,0.0,0.0,-3.4046,-3.1941,-2.9912,0.0,-2.5982,0.0,-2.5237,-2.5531,-2.5772,0.0,-2.6079,-2.6524,-2.7431,-2.8739,-2.9821,-3.0746,-3.2717,-3.4769,-3.683,-3.8044,-3.8574,-3.8574,-3.8574,-3.8574,-3.8574,-3.8574,-3.8574,-3.8574,0.0,-3.8574,-3.8574,-3.8574,-3.8574,-3.8574,-3.8574,-3.8574,-3.8574,-3.8574,-3.8574,-3.8574,-3.8574,-3.8574,-3.8574,-3.8574,-3.8574,-3.8574,-3.8574,-3.8574,-3.8574,-3.8574,-3.8574,-3.8574,-3.8574,-3.8574,-3.8574,-3.8574,-3.8574,-3.8574,-3.8574,-3.9188,-4.0586,-4.3174,-4.5366,-4.7443,-4.9242,-4.959,-4.959,-4.959,-4.959,-4.9242,-4.8191,-4.806,-4.8412,-4.9461,-4.9113,-4.8535,-4.7958,-4.7431,-4.6903,-4.6351,-4.6301,-4.6301,-4.6301,-4.6301,-4.6301,-4.6301,-4.6301,-4.6301,-4.6301,-4.6301,-4.6301,-4.6301,-4.6968,-4.7265,-4.1551,-3.9729,-3.7461,-3.7832,-3.7969,-3.7773,-3.6875,-3.6992,-3.7619,-3.8724,0.0,-3.9708,-4.0139,-3.9875,-3.9302,-3.855,0.0,-3.6547,-3.4913,-3.2552,-3.0276,-2.8483,-2.6425,-2.5251,-2.5545,-2.5798,-2.605,-2.609,-2.6554,-2.7541,-2.9293,-2.9666,-3.09,-3.3264,-3.5028,-3.6886,-3.8652,-3.8652,-3.8652,-3.8652,-3.8613,-3.8574,-3.8574,-3.8574,-3.8574,-3.8574,-3.8574,-3.8574,-3.8574,-3.8574,-3.8574,-3.8574,-3.8574,-3.8574,-3.8574,-3.8574,-3.8574,-3.8574,-3.8574,-3.8574,-3.8574,-3.8574,-3.8574,-3.8574,-3.8574,-3.8574,-3.8574,-3.8574,-3.8574,-3.8574,-3.8574,-3.8574,-3.8574,-3.8574,-3.8574,-3.8647,-3.8918,-4.0586,-4.2966,-4.6197,-4.7022,-4.7707,-4.9307,-4.959,-4.959,-4.959,-4.959,-4.959,-4.959,-4.959,-4.959,-4.959,-4.9113,-4.8535,-4.7958,-4.7431,-4.6903,-4.6351,-4.6301,-4.6301,-4.6301,-4.6301,-4.6301,-4.6301,-4.6301,-4.6301,-4.6301,-4.6301,-4.6421,-4.6636,-4.7919,-4.8474,-4.0476,-3.9097,-3.7832,-3.791,-3.8203,-3.8144,-3.6953,-3.6992,0.0,0.0,0.0,-3.6946,-3.7738,-3.7223,-3.6917,-3.7453,0.0,0.0,0.0,0.0,-3.071,0.0,0.0,0.0,0.0,0.0,0.0,0.0,0.0,-2.906,-2.9371,-3.1054,-3.3717,-3.7438,-3.8224,-3.8693,-3.9082,-3.9101,-3.9101,-3.9082,-3.875,-3.8574,-3.8574,-3.8574,-3.8574,-3.8574,-3.8574,0.0,-3.8574,-3.8574,-3.8574,-3.8574,-3.8574,-3.8574,-3.8574,-3.8574,-3.8574,-3.8574,-3.8574,-3.8574,-3.8574,-3.8574,-3.8574,-3.8574,-3.8574,-3.8574,-3.8574,-3.8574,-3.8574,-3.8574,-3.8574,-3.8574,-3.8574,-3.8574,-3.8574,-3.8991,-4.0514,-4.3451,-4.6063,-4.6665,-4.806,-4.9242,-4.9525,-4.959,-4.959,-4.959,-4.959,-4.959,-4.959,-4.959,-4.959,-4.959,-4.9113,-4.8535,-4.7958,-4.7431,-4.6903,-4.6351,-4.6301,-4.6301,-4.6301,-4.6301,-4.6301,-4.6301,-4.6301,-4.6301,-4.6301,-4.6301,-4.6934,-4.8152,-4.8358,-4.8474,-3.947,-3.8604,-3.793,-3.793,-3.8242,-3.8242,-3.6953,0.0,0.0,0.0,-3.5859,-3.6211,-3.6855,0.0,0.0,0.0,0.0,0.0,0.0,0.0,0.0,0.0,0.0,0.0,0.0,0.0,0.0,0.0,0.0,-2.8296,-2.9371,-3.232,-3.553,-3.8813,-3.9101,-3.9316,-3.9551,-3.9551,-3.9551,-3.9551,-3.9355,-3.9141,-3.8906,-3.8906,-3.8789,-3.8574,-3.8574,0.0,-3.8574,-3.8574,-3.8574,-3.8574,-3.8574,-3.8574,-3.8574,-3.8574,-3.8574,-3.8574,-3.8574,-3.8574,-3.8574,-3.8574,-3.8574,-3.8574,-3.8574,-3.8574,-3.8574,-3.8574,-3.8574,-3.8574,-3.8574,-3.8574,-3.8574,-3.8574,-3.9333,-4.0514,-4.2382,-4.4891,-4.7088,-4.806,-4.8958,-4.959,-4.959,-4.959,-4.959,-4.959,-4.959,-4.959,-4.959,-4.959,-4.959,-4.959,-4.9113,-4.8661,-4.8385,-4.7857,-4.7305,-4.6778,-4.6753,-4.6602,-4.6326,-4.6301,-4.6301,-4.6301,-4.6301,-4.6301,-4.6301,-4.7087,-4.7802,-4.8532,-5.0072,-5.0851,-3.8564,-3.8156,-3.7949,-3.8047,-3.832,-3.8262,-3.707,-3.7051,0.0,0.0,-3.5801,-3.6152,-3.6582,0.0,-3.6914,0.0,0.0,0.0,0.0,0.0,0.0,0.0,0.0,0.0,0.0,0.0,0.0,0.0,0.0,0.0,-2.9898,-3.3532,-3.6608,-3.9106,-3.9297,-3.957,-4.0019,-4.0039,-4.0039,-4.0019,-3.9941,-3.9648,-3.9199,-3.9199,-3.8965,-3.8574,-3.8574,0.0,0.0,-3.8574,-3.8574,-3.8574,-3.8574,-3.8574,-3.8574,-3.8574,-3.8574,-3.8574,-3.8574,-3.8574,-3.8574,-3.8574,-3.8574,-3.8574,-3.8574,-3.8574,-3.8574,-3.8574,-3.8574,-3.8574,-3.8574,-3.8574,-3.872,-3.9063,-4.0586,-4.243,-4.4299,-4.613,-4.7839,-4.9307,-4.959,-4.959,-4.959,-4.959,-4.959,-4.959,-4.959,-4.959,-4.959,-4.959,-4.959,-4.959,-4.9213,-4.8912,-4.8786,-4.836,-4.7832,-4.7118,-4.7068,-4.6878,-4.6326,-4.6301,-4.6301,-4.6301,-4.6576,-4.6755,-4.6755,-4.8242,-4.9137,-4.9535,-5.1564,-5.2509,-3.8226,-3.7903,-3.8027,-3.8418,-3.8555,-3.834,-3.7441,0.0,-3.7051,-3.6152,-3.5996,-3.6152,-3.6582,0.0,0.0,0.0,0.0,-3.7305,0.0,0.0,0.0,0.0,0.0,0.0,0.0,0.0,0.0,0.0,0.0,0.0,-3.2048,-3.4301,-3.6608,-3.9106,-3.9609,-4.0039,-4.0469,-4.0469,-4.0469,-4.0469,-4.0078,-3.9648,-3.9199,-3.9199,-3.8965,-3.8574,-3.8574,0.0,0.0,-3.8574,-3.8574,-3.8574,-3.8574,-3.8574,-3.8574,-3.8574,-3.8574,-3.8574,-3.8574,-3.8574,-3.8574,-3.8574,-3.8574,-3.8574,-3.8574,-3.8574,-3.8574,-3.8574,-3.8574,-3.8574,-3.8574,-3.8574,-3.8991,-4.0636,-4.2522,-4.4368,-4.613,-4.7994,-4.9371,-4.959,-4.959,-4.959,-4.959,-4.959,-4.959,-4.959,-4.959,-4.959,-4.959,-4.959,-4.959,-4.959,-4.954,-4.9314,-4.8812,-4.8711,-4.8234,-4.7143,-4.7068,-4.6878,-4.6326,-4.6301,-4.6301,-4.6301,-4.7652,-4.83,-4.83,-4.9791,-5.1208,-5.2591,-5.1427,-5.0933,-3.6887,-3.7344,-3.7969,-3.8144,-3.8379,-3.834,-3.75,-3.7305,-3.7051,-3.6191,-3.6016,-3.6074,-3.625,-3.6699,-3.7109,0.0,0.0,0.0,-3.8437,0.0,0.0,0.0,0.0,0.0,0.0,0.0,0.0,0.0,0.0,0.0,-3.4151,-3.3926,-3.5521,-3.9515,-3.9805,-4.0234,-4.0898,-4.0918,-4.0918,-4.0918,-4.0742,-4.0293,-3.9609,-3.9609,-3.9238,-3.8574,-3.8574,0.0,0.0,-3.8574,-3.8574,-3.8574,-3.8574,-3.8574,-3.8574,-3.8574,-3.8574,-3.8574,-3.8574,-3.8574,-3.8574,-3.8574,-3.8574,-3.8574,-3.8574,-3.8574,-3.8574,-3.8574,-3.8574,-3.8574,-3.8574,-3.8574,-3.9063,-4.085,-4.2731,-4.4573,-4.6398,-4.8257,-4.959,-4.959,-4.959,-4.959,-4.959,-4.959,-4.959,-4.959,-4.959,-4.959,-4.959,-4.959,-4.959,-4.959,-4.959,-4.9515,-4.9289,-4.9264,-4.8786,-4.7657,-4.7606,-4.7205,-4.6351,-4.6301,-4.6695,-4.7593,-4.8609,-4.9556,-5.0447,-5.2323,-5.2876,-5.2235,-5.2481,-5.1927,-3.6699,-3.7422,-3.8144,-3.8262,-3.834,-3.8203,0.0,-3.7207,-3.6914,-3.6172,-3.6016,-3.6016,-3.6016,-3.6621,-3.7148,-3.7266,-3.8262,-3.9062,-3.918,0.0,0.0,0.0,0.0,0.0,0.0,0.0,0.0,0.0,0.0,0.0,-3.5422,-3.4151,-3.5366,-3.9788,-3.9902,-4.0312,-4.1172,-4.1172,-4.1113,-4.0976,-4.0976,-4.0527,-3.9687,-3.9687,-3.9277,-3.8574,-3.8574,0.0,0.0,-3.8574,-3.8574,-3.8574,-3.8574,-3.8574,-3.8574,-3.8574,-3.8574,-3.8574,-3.8574,-3.8574,-3.8574,-3.8574,-3.8574,-3.8574,-3.8574,-3.8574,-3.8574,-3.8574,-3.8574,-3.8574,-3.8574,-3.8574,-3.9208,-4.1538,-4.3127,-4.471,-4.7088,-4.8673,-4.959,-4.959,-4.959,-4.959,-4.959,-4.959,-4.959,-4.959,-4.959,-4.959,-4.959,-4.959,-4.959,-4.959,-4.959,-4.959,-4.959,-4.959,-4.9113,-4.7983,-4.7908,-4.759,-4.6959,-4.6909,-4.7729,-4.9404,-5.0354,-5.1395,-5.2659,-5.4166,-5.4111,-5.2603,-5.2546,-5.1627,-3.832,-3.8555,-3.8672,-3.9082,-3.8555,-3.7812,0.0,-3.6973,-3.6543,-3.6113,-3.6016,-3.6016,-3.6016,-3.6387,-3.6816,-3.7226,-3.8008,0.0,-3.9141,0.0,0.0,0.0,0.0,0.0,0.0,0.0,0.0,0.0,0.0,0.0,-3.5422,-3.5497,-3.6812,-3.9788,-3.9902,-4.0312,-4.1172,-4.1172,-4.0957,-4.0527,-4.0527,-4.0059,-3.9199,-3.9199,-3.8984,-3.8574,0.0,0.0,0.0,-3.8574,-3.8574,-3.8574,-3.8574,-3.8574,-3.8574,-3.8574,-3.8574,-3.8574,-3.8574,-3.8574,-3.8574,-3.8574,-3.8574,-3.8574,-3.8574,-3.8574,-3.8574,-3.8574,-3.8574,-3.8574,-3.8574,-3.8574,-3.955,-4.3218,-4.4116,-4.5073,-4.8763,-4.959,-4.959,-4.959,-4.959,-4.959,-4.959,-4.959,-4.959,-4.959,-4.959,-4.959,-4.959,-4.959,-4.959,-4.959,-4.959,-4.959,-4.959,-4.959,-4.9113,-4.7983,-4.7908,-4.8054,-4.8469,-4.8474,-4.9462,-5.1624,-5.3122,-5.4172,-5.489,-5.4835,-5.478,-5.4696,-5.1044,-4.9059,-3.7109,-3.748,-3.7734,-3.7871,-3.7695,-3.7383,-3.6973,0.0,-3.6543,-3.6113,-3.625,-3.6465,-3.6465,-3.6816,-3.7344,-3.8047,-3.8633,0.0,0.0,0.0,0.0,0.0,0.0,0.0,0.0,0.0,0.0,0.0,0.0,0.0,-3.7566,-3.7639,-3.8128,-3.9394,-3.9414,-3.9707,-4.0293,-4.0293,-4.0234,-4.0098,-4.0098,-3.9785,-3.9199,-3.9199,-3.8965,0.0,0.0,0.0,0.0,-3.8574,-3.8574,-3.8574,-3.8574,-3.8574,-3.8574,-3.8574,-3.8574,-3.8574,-3.8574,-3.8574,-3.8574,-3.8574,-3.8574,-3.8574,-3.8574,-3.8574,-3.8574,-3.8574,-3.8574,-3.8574,-3.8574,-3.8574,-3.955,-4.3218,-4.4116,-4.5141,-4.8828,-4.959,-4.959,-4.959,-4.959,-4.959,-4.959,-4.959,-4.959,-4.959,-4.959,-4.959,-4.959,-4.959,-4.959,-4.959,-4.959,-4.959,-4.959,-4.959,-4.9113,-4.7983,-4.8907,-4.9393,-4.9197,-5.0128,-5.1708,-5.3859,-5.4785,-5.5322,-5.5442,-5.5873,-5.4799,-5.2262,-4.9585,-4.8825,-3.6738,-3.709,-3.7344,-3.75,-3.7305,0.0,0.0,0.0,-3.6387,-3.6289,-3.6484,-3.6719,-3.6875,-3.6992,-3.7402,-3.8418,-3.8789,0.0,0.0,0.0,0.0,0.0,0.0,0.0,0.0,0.0,0.0,0.0,0.0,0.0,-3.8574,-3.8574,-3.8691,-3.8965,-3.9121,-3.9434,-3.9883,-3.9902,-3.9805,-3.9629,-3.9629,-3.9394,-3.8965,-3.8965,-3.8828,0.0,0.0,0.0,0.0,-3.8574,-3.8574,-3.8574,-3.8574,-3.8574,-3.8574,-3.8574,-3.8574,-3.8574,-3.8574,-3.8574,-3.8574,-3.8574,-3.8574,-3.8574,-3.8574,-3.8574,-3.8574,-3.8574,-3.8574,-3.8574,-3.8574,-3.8574,-3.955,-4.3218,-4.4116,-4.5141,-4.8828,-4.959,-4.959,-4.959,-4.959,-4.959,-4.959,-4.959,-4.959,-4.959,-4.959,-4.959,-4.959,-4.959,-4.959,-4.959,-4.959,-4.959,-4.959,-4.959,-4.9343,-4.88,-4.9672,-5.0516,-5.1142,-5.2017,-5.3687,-5.6059,-5.6523,-5.6485,-5.6075,-5.5276,-5.3343,-5.025,-4.9518,-4.988,0.0,-3.7207,-3.7305,-3.7695,-3.7207,-3.6621,-3.6621,-3.6309,0.0,-3.6543,-3.6641,-3.6797,-3.7187,-3.6953,-3.7129,-3.8379,-3.8574,0.0,0.0,-4.0043,0.0,0.0,0.0,0.0,0.0,0.0,0.0,0.0,0.0,0.0,-3.8574,-3.8574,-3.8574,-3.8574,-3.8945,-3.9375,-3.9805,-3.9805,-3.959,-3.916,-3.916,-3.8945,-3.8574,-3.8574,-3.8574,0.0,0.0,0.0,0.0,-3.8574,-3.8574,-3.8574,-3.8574,-3.8574,-3.8574,-3.8574,-3.8574,-3.8574,-3.8574,-3.8574,-3.8574,-3.8574,-3.8574,-3.8574,-3.8574,-3.8574,-3.8574,-3.8574,-3.8574,-3.8574,-3.8574,-3.872,-3.9694,-4.3288,-4.4185,-4.5277,-4.8828,-4.959,-4.959,-4.959,-4.959,-4.959,-4.959,-4.959,-4.959,-4.959,-4.959,-4.959,-4.959,-4.959,-4.959,-4.959,-4.959,-4.9654,-4.9783,-4.9783,-4.9887,-5.0146,-5.0426,-5.154,-5.3888,-5.4075,-5.5387,-5.8118,-5.7958,-5.7437,-5.6537,-5.3341,-5.0883,-4.9065,-5.0575,-5.1842,-3.6269,0.0,-3.6348,-3.6445,-3.6309,-3.6172,0.0,-3.6094,-3.6055,-3.6152,-3.6445,-3.6699,-3.6797,-3.7012,-3.7461,-3.8418,-3.8574,-3.8887,-3.9766,0.0,0.0,0.0,0.0,0.0,0.0,0.0,0.0,0.0,0.0,-3.8574,-3.8574,-3.8574,-3.8574,-3.8574,-3.8672,-3.8769,-3.8887,-3.8887,-3.8828,-3.873,-3.873,-3.8672,-3.8574,-3.8574,-3.8574,0.0,0.0,0.0,-3.8574,-3.8574,-3.8574,-3.8574,-3.8574,-3.8574,-3.8574,-3.8574,-3.8574,-3.8574,-3.8574,-3.8574,-3.8574,-3.8574,-3.8574,-3.8574,-3.8574,-3.8574,-3.8574,-3.8574,-3.8574,-3.8574,-3.8574,-3.9622,-4.1276,-4.3542,-4.5186,-4.6822,-4.9112,-4.959,-4.959,-4.959,-4.959,-4.959,-4.959,-4.959,-4.959,-4.959,-4.959,-4.959,-4.959,-4.959,-4.959,-4.959,-4.959,-5.0078,-5.133,-5.1429,-5.1083,-5.0266,-5.2449,-5.4032,-5.4633,-5.5742,-5.7136,-5.886,-5.6478,-5.5129,-5.4918,-5.1767,-5.0549,-5.1246,-5.168,-5.325,-3.6403,-3.6016,-3.6016,-3.6016,-3.6016,-3.6016,-3.6016,-3.6016,-3.6133,-3.6523,-3.6641,-3.6797,-3.7168,-3.7266,-3.7578,0.0,-3.8574,0.0,0.0,0.0,0.0,0.0,0.0,0.0,0.0,0.0,0.0,0.0,0.0,-3.8574,-3.8574,-3.8574,-3.8574,-3.8574,-3.8574,-3.8574,-3.8574,-3.8574,-3.8574,-3.8574,-3.8574,-3.8574,-3.8574,-3.8574,-3.8574,0.0,0.0,0.0,-3.8281,-3.8281,-3.8164,-3.8008,-3.8203,-3.8281,-3.8301,-3.8496,-3.8574,-3.8574,-3.8574,-3.8574,-3.8574,-3.8574,-3.8574,-3.8574,-3.8574,-3.8574,-3.8574,-3.8574,-3.8574,-3.8574,-3.8574,-3.9962,-4.1749,-4.3611,-4.5457,-4.7287,-4.9177,-4.959,-4.959,-4.959,-4.959,-4.959,-4.959,-4.959,-4.959,-4.959,-4.959,-4.959,-4.959,-4.959,-4.959,-4.959,-5.0245,-5.1016,-5.1927,-5.3341,-5.3657,-5.2388,-5.3865,-5.5108,-5.5869,-5.6697,-5.7375,-5.7996,-5.5618,-5.4386,-5.4386,-5.1927,-5.1518,-5.3126,-5.3822,-5.5066,-3.7575,-3.6606,-3.6336,-3.6084,-3.5976,-3.5918,-3.5918,-3.5879,-3.6016,-3.6758,-3.6719,-3.6797,-3.75,-3.75,0.0,0.0,0.0,0.0,0.0,0.0,0.0,0.0,0.0,0.0,0.0,0.0,0.0,0.0,0.0,-3.8574,-3.8574,-3.8574,-3.8574,-3.8574,-3.8574,-3.8574,-3.8574,-3.8574,-3.8574,-3.8574,-3.8574,-3.8574,-3.8574,-3.8574,-3.8535,-3.8476,0.0,0.0,-3.7832,-3.7832,-3.7617,-3.7344,-3.7754,-3.793,-3.7969,-3.8418,-3.8574,-3.8574,-3.8574,-3.8574,-3.8574,-3.8574,-3.8574,-3.8574,-3.8574,-3.8574,-3.8574,-3.8574,-3.8574,-3.8647,-3.8918,-4.0371,-4.2171,-4.4094,-4.5862,-4.7641,-4.9242,-4.959,-4.959,-4.959,-4.959,-4.959,-4.959,-4.959,-4.959,-4.959,-4.959,-4.959,-4.959,-4.959,-4.9719,-4.995,-5.1205,-5.2209,-5.27,-5.5182,-5.6273,-5.534,-5.5221,-5.5733,-5.7042,-5.7304,-5.7178,-5.6707,-5.5444,-5.4623,-5.4386,-5.3005,-5.3187,-5.48,-5.6079,-5.6849,-4.0537,-3.9322,-3.7822,-3.6336,-3.5742,-3.5488,-3.5488,-3.5176,-3.4941,-3.5078,-3.5644,-3.6152,-3.6289,-3.7148,-3.7871,0.0,0.0,0.0,0.0,0.0,0.0,0.0,0.0,0.0,0.0,0.0,0.0,0.0,0.0,-3.8574,-3.8574,-3.8574,-3.8574,-3.8574,-3.8574,-3.8574,-3.8574,-3.8574,-3.8574,-3.8574,-3.8574,-3.8574,-3.8574,-3.8574,-3.8379,-3.8027,0.0,-3.7773,-3.7402,-3.7402,-3.7363,-3.7344,-3.7754,-3.793,-3.7969,-3.8418,-3.8574,-3.8574,-3.8574,-3.8574,-3.8574,-3.8574,-3.8574,-3.8574,-3.8574,-3.8574,-3.8574,-3.8574,-3.8574,-3.8918,-4.0514,-4.2241,-4.4094,-4.5929,-4.7797,-4.9242,-4.9525,-4.959,-4.959,-4.959,-4.959,-4.959,-4.959,-4.959,-4.959,-4.959,-4.959,-4.959,-4.959,-4.959,-5.0142,-5.1492,-5.1865,-5.3099,-5.5763,-5.6423,-5.6953,-5.7565,-5.7077,-5.6855,-5.7094,-5.8201,-5.8124,-5.6736,-5.648,-5.5676,-5.4386,-5.4149,-5.4859,-5.6366,-5.6622,-5.744,-4.0206,-3.9497,-3.9044,-3.6614,-3.6055,-3.6074,-3.6074,-3.6094,-3.5976,-3.5508,-3.5742,-3.6094,-3.6328,0.0,-3.748,-3.8164,0.0,0.0,0.0,0.0,0.0,0.0,0.0,0.0,0.0,0.0,0.0,0.0,0.0,0.0,-3.8574,-3.8574,-3.8574,-3.8574,-3.8574,-3.8574,-3.8574,-3.8574,-3.8574,-3.8574,-3.8574,-3.8457,-3.8223,-3.8223,-3.7988,-3.7598,0.0,-3.7344,-3.6953,-3.6953,-3.6953,-3.7012,-3.7422,-3.7734,-3.7969,-3.8418,-3.8574,-3.8574,-3.8574,-3.8574,-3.8574,-3.8574,-3.8574,-3.8574,-3.8574,-3.8574,-3.8574,-3.8574,-3.8574,-3.8991,-4.085,-4.2709,-4.4573,-4.6398,-4.8191,-4.959,-4.959,-4.959,-4.959,-4.959,-4.959,-4.959,-4.959,-4.959,-4.959,-4.959,-4.959,-4.959,-4.959,-5.0372,-5.1205,-5.1927,-5.3522,-5.5124,-5.6593,-5.7496,-5.7887,-5.758,-5.7274,-5.7094,-5.7094,-5.8052,-5.7976,-5.6707,-5.6736,-5.6366,-5.5618,-5.5618,-5.6451,-5.797,-5.797,-5.8386,-4.0145,-3.9404,-3.9323,-3.6997,-3.6375,-3.6289,-3.6601,-3.6758,-3.6699,-3.6133,-3.6172,-3.6426,0.0,-3.6992,0.0,-3.8418,0.0,0.0,0.0,0.0,0.0,0.0,0.0,0.0,0.0,0.0,0.0,0.0,0.0,0.0,-3.8574,-3.8574,-3.8574,-3.8574,-3.8574,-3.8535,-3.8418,-3.8418,-3.8418,-3.8418,-3.8418,-3.8203,-3.7773,-3.7773,-3.7539,-3.7148,-3.7148,-3.6914,-3.6523,-3.6523,-3.6582,-3.6719,-3.7129,-3.7617,-3.8125,-3.8457,-3.8574,-3.8574,-3.8574,-3.8574,-3.8574,-3.8574,-3.8574,-3.8574,-3.8574,-3.8574,-3.872,-3.9136,-3.9188,-3.9674,-4.1467,-4.3335,-4.5186,-4.7022,-4.8542,-4.959,-4.959,-4.959,-4.959,-4.959,-4.959,-4.959,-4.959,-4.959,-4.959,-4.959,-4.9886,-5.0142,-5.0142,-5.158,-5.27,-5.3039,-5.5241,-5.6849,-5.7243,-5.8386,-5.859,-5.7423,-5.7184,-5.7094,-5.7094,-5.7752,-5.768,-5.6707,-5.7075,-5.7075,-5.6736,-5.7075,-5.7915,-5.9099,-5.9099,-5.9099,-4.2194,-4.0083,-3.8034,-3.7817,-3.6264,-3.5156,-3.6387,-3.6074,-3.5625,-3.5957,-3.666,-3.7226,-3.7246,-3.791,-3.8457,0.0,0.0,0.0,0.0,0.0,0.0,0.0,0.0,0.0,0.0,0.0,0.0,0.0,0.0,0.0,-3.8574,-3.8574,-3.8574,-3.8574,-3.8574,-3.8379,-3.7969,-3.7969,-3.7969,-3.7969,-3.7969,-3.7754,-3.7344,-3.7344,-3.7109,-3.6719,-3.6719,-3.6465,-3.6074,-3.6074,-3.6309,-3.6719,-3.7129,-3.7793,-3.8535,-3.8555,-3.8574,-3.8574,-3.8574,-3.8574,-3.8574,-3.8574,-3.8574,-3.8574,-3.8574,-3.8574,-3.8918,-4.0636,-4.1134,-4.1538,-4.3426,-4.5254,-4.7088,-4.8958,-4.9525,-4.959,-4.959,-4.959,-4.959,-4.959,-4.959,-4.959,-4.959,-4.959,-4.959,-4.959,-5.0853,-5.1865,-5.1865,-5.3248,-5.48,-5.6194,-5.6537,-5.7328,-5.8798,-5.9045,-5.88,-5.8082,-5.7453,-5.7094,-5.7094,-5.7752,-5.768,-5.6707,-5.8166,-5.8221,-5.6736,-5.8221,-5.8991,-5.9099,-5.9099,-5.9099,-3.9243,-3.8397,-3.7645,-3.6593,-3.5766,-3.541,-3.6426,-3.6816,-3.6797,-3.6152,-3.6699,-3.7226,-3.6953,0.0,-3.8476,0.0,0.0,0.0,0.0,0.0,0.0,0.0,0.0,0.0,0.0,0.0,0.0,0.0,0.0,0.0,-3.8574,-3.8574,-3.8457,-3.8184,-3.8164,-3.7969,-3.7539,-3.7539,-3.7402,-3.7148,-3.7402,-3.7324,-3.6914,-3.6914,-3.668,-3.6269,-3.6269,-3.6172,-3.6035,-3.6309,-3.668,-3.7129,-3.7832,-3.8281,-3.8574,-3.8574,-3.8574,-3.8574,-3.8574,-3.8574,-3.8574,-3.8574,-3.8574,-3.8574,-3.8574,-3.9405,-4.0443,-4.1134,-4.2966,-4.4891,-4.5592,-4.6264,-4.7287,-4.9177,-4.959,-4.959,-4.959,-4.959,-4.959,-4.959,-4.959,-4.959,-4.959,-4.959,-4.995,-5.0979,-5.1616,-5.2332,-5.3368,-5.4859,-5.6022,-5.6679,-5.7608,-5.844,-5.9045,-5.9099,-5.883,-5.8171,-5.7872,-5.7932,-5.8321,-5.859,-5.8947,-5.9431,-5.9632,-5.9423,-5.8811,-5.9006,-5.9099,-5.9099,-5.9099,-5.9099,-3.7208,-3.7276,-3.7535,-3.5838,0.0,-3.582,-3.668,-3.7207,-3.7402,-3.6934,-3.7187,-3.7441,-3.7305,0.0,0.0,0.0,0.0,0.0,0.0,0.0,0.0,0.0,0.0,0.0,0.0,0.0,0.0,0.0,0.0,0.0,0.0,-3.8574,-3.8379,-3.793,-3.793,-3.7656,-3.7109,-3.709,-3.6894,-3.6465,-3.6758,-3.6738,-3.6465,-3.6465,-3.6309,-3.6016,-3.6016,-3.6016,-3.6055,-3.6484,-3.6992,-3.7559,-3.8281,-3.8574,-3.8574,-3.8574,-3.8574,-3.8574,-3.8574,-3.8574,-3.8574,-3.8574,-3.8574,-3.872,-3.9261,-4.03,-4.1538,-4.2709,-4.4823,-4.6955,-4.7509,-4.7707,-4.7994,-4.9307,-4.959,-4.959,-4.959,-4.959,-4.959,-4.959,-4.959,-4.959,-4.959,-5.0014,-5.0778,-5.2128,-5.2991,-5.3964,-5.5287,-5.6623,-5.744,-5.744,-5.844,-5.9099,-5.9099,-5.9099,-5.8919,-5.8471,-5.8441,-5.865,-5.9069,-5.9099,-5.9727,-6.1074,-6.0655,-6.0296,-6.0086,-5.9638,-5.9308,-5.9099,-5.9308,-5.9308,-3.7105,-3.7212,-3.7535,-3.5838,0.0,-3.625,-3.7109,-3.6973,-3.7031,-3.8301,-3.8223,-3.8047,-3.8496,-3.8223,0.0,0.0,0.0,0.0,0.0,0.0,0.0,0.0,0.0,0.0,0.0,0.0,0.0,0.0,0.0,0.0,0.0,-3.8574,-3.8379,-3.793,-3.791,-3.7519,-3.668,-3.666,-3.6445,-3.6016,-3.6016,-3.6016,-3.6016,-3.6016,-3.6016,-3.6016,-3.6016,-3.6016,-3.6055,-3.6484,-3.7168,-3.7969,-3.8398,-3.8574,-3.8574,-3.8574,-3.8574,-3.8574,-3.8574,-3.8574,-3.8574,-3.8574,-3.8647,-3.8991,-4.0779,-4.1326,-4.208,-4.5771,-4.6798,-4.7221,-4.9112,-4.959,-4.959,-4.959,-4.959,-4.959,-4.959,-4.959,-4.959,-4.959,-4.959,-4.959,-4.959,-5.0979,-5.2262,-5.2932,-5.513,-5.6966,-5.7657,-5.8549,-5.9129,-5.9129,-5.9099,-5.9099,-5.9099,-5.9099,-5.9099,-5.9099,-5.9099,-5.9099,-5.9129,-5.9129,-5.9757,-6.1104,-6.1134,-6.0775,-6.0116,-6.0086,-5.9757,-5.9129,-5.9787,-5.9727,-3.6394,-3.7695,-3.8657,-3.7373,-3.7986,-3.8677,0.0,-3.7402,0.0,0.0,-3.8008,-3.7969,-3.8086,0.0,0.0,0.0,0.0,0.0,0.0,0.0,0.0,0.0,0.0,0.0,0.0,0.0,0.0,0.0,0.0,0.0,0.0,-3.8574,-3.8242,-3.75,-3.748,-3.707,-3.623,-3.6211,-3.6152,-3.6016,-3.6016,-3.6016,-3.6016,-3.6016,-3.6016,-3.6016,-3.6016,-3.6016,-3.6074,-3.6816,-3.7617,-3.8398,-3.8516,-3.8574,-3.8574,-3.8574,-3.8574,-3.8574,-3.8574,-3.8574,-3.8574,-3.8574,-3.9478,-4.0565,-4.1134,-4.3105,-4.5366,-4.6465,-4.7773,-4.8893,-4.9461,-4.959,-4.959,-4.959,-4.959,-4.959,-4.959,-4.959,-4.959,-4.959,-4.9916,-5.0532,-5.1765,-5.2686,-5.411,-5.6605,-5.7621,-5.861,-5.993,-5.99,-5.9787,-5.9787,-5.9368,-5.9099,-5.9099,-5.9099,-5.9099,-5.9099,-5.9099,-5.9308,-5.9787,-6.0266,-6.0924,-6.1792,-6.1792,-6.1702,-6.1493,-6.1044,-6.0715,-6.0505,-6.0206,-5.9967,-3.6211,-3.8303,-4.0155,-3.8089,-3.8453,-3.8969,-3.8066,-3.7871,0.0,0.0,-3.8047,-3.7969,-3.8144,0.0,0.0,0.0,0.0,0.0,0.0,0.0,0.0,0.0,0.0,0.0,0.0,0.0,0.0,0.0,0.0,0.0,0.0,-3.8418,-3.8008,-3.7324,-3.7129,-3.6719,-3.6035,-3.6016,-3.6016,-3.6016,-3.6016,-3.6016,-3.6016,-3.6016,-3.6016,-3.6016,-3.6016,-3.6113,-3.6328,-3.7012,-3.7695,-3.834,-3.8516,-3.8574,-3.8574,-3.8574,-3.8574,-3.8574,-3.8574,-3.8574,-3.8574,-3.8574,-3.9818,-4.1467,-4.2171,-4.4482,-4.6955,-4.7707,-4.8763,-4.964,-4.9866,-4.9916,-4.9916,-4.9916,-4.9916,-4.9992,-5.0218,-5.0268,-5.0268,-5.0268,-5.1057,-5.2078,-5.3139,-5.4637,-5.6482,-5.8776,-5.9626,-6.0319,-6.1022,-6.0745,-6.0505,-6.0505,-6.0146,-5.9787,-5.9518,-5.9488,-5.9368,-5.9129,-5.9099,-5.9279,-5.9668,-6.0595,-6.1433,-6.2091,-6.2091,-6.1972,-6.1702,-6.1044,-6.0565,-6.0296,-6.0146,-5.9937,-3.6561,-3.8891,-4.1503,-3.8297,-3.7708,-3.7988,-3.7988,-3.8281,-3.8555,-3.8516,0.0,-3.8105,0.0,0.0,0.0,0.0,0.0,0.0,0.0,0.0,0.0,0.0,0.0,0.0,0.0,0.0,0.0,0.0,0.0,0.0,0.0,-3.8164,-3.7734,-3.7305,-3.6894,-3.6465,-3.6016,-3.6016,-3.6016,-3.6016,-3.6016,-3.6016,-3.6016,-3.6016,-3.6016,-3.6016,-3.6016,-3.6269,-3.6699,-3.7129,-3.7539,-3.7969,-3.8398,-3.8574,-3.8574,-3.8574,-3.8574,-3.8574,-3.8574,-3.872,-3.8865,-3.8865,-4.0157,-4.208,-4.3818,-4.5638,-4.7491,-4.9187,-4.9715,-4.9866,-5.0368,-5.0494,-5.0519,-5.0569,-5.0544,-5.0645,-5.1172,-5.1272,-5.1272,-5.1272,-5.2711,-5.3885,-5.4076,-5.6781,-5.91,-5.9884,-6.1231,-6.1972,-6.1373,-6.1253,-6.1194,-6.1194,-6.1164,-6.0864,-6.0236,-6.0176,-5.9907,-5.9249,-5.9189,-5.9159,-5.9099,-6.0326,-6.1313,-6.2002,-6.2002,-6.1732,-6.1194,-6.0505,-5.9877,-5.9308,-5.9847,-5.9757,-3.7082,-3.866,-3.9905,-3.9351,-3.8828,-3.8437,-3.8437,-3.8516,-3.8476,-3.8144,-3.8262,0.0,0.0,0.0,0.0,0.0,0.0,0.0,0.0,0.0,0.0,0.0,0.0,0.0,0.0,0.0,0.0,0.0,0.0,0.0,-3.8574,-3.8164,-3.7734,-3.7305,-3.6894,-3.6465,-3.6016,-3.6016,-3.6016,0.0,-3.6016,-3.6016,-3.6016,-3.6016,-3.6016,-3.6016,-3.6016,-3.6269,-3.6699,-3.7129,-3.7539,-3.7969,-3.8398,-3.8574,-3.8574,-3.8574,-3.8574,-3.8574,-3.8574,-3.955,-4.0708,-4.0708,-4.2966,-4.5704,-4.613,-4.7799,-4.9669,-5.0087,-5.0569,-5.0946,-5.1071,-5.1096,-5.1197,-5.1624,-5.1423,-5.1122,-5.1247,-5.1272,-5.1272,-5.1272,-5.2982,-5.4879,-5.6213,-5.8523,-6.0642,-6.2143,-6.2667,-6.281,-6.266,-6.2211,-6.1882,-6.1882,-6.1433,-6.1044,-6.0894,-6.0894,-6.0595,-5.9907,-5.9877,-5.9638,-5.9129,-5.9877,-6.0625,-6.1313,-6.1313,-6.1493,-6.1882,-6.1224,-6.0835,-6.0685,-6.0266,-5.9997,-3.7039,0.0,0.0,-3.9441,0.0,-3.8574,-3.8574,-3.9261,-3.9614,-3.8498,0.0,0.0,0.0,0.0,0.0,0.0,0.0,0.0,0.0,0.0,0.0,0.0,0.0,0.0,0.0,0.0,0.0,0.0,0.0,-3.8603,-3.9495,-3.8869,-3.882,-3.9443,-3.8214,-3.7483,-3.726,-3.6403,-3.6016,-3.6016,-3.6016,-3.6016,-3.6016,-3.6016,-3.6016,-3.6016,-3.6016,-3.6152,-3.6406,-3.7031,-3.7422,-3.7695,-3.832,-3.8574,-3.872,-3.955,-3.989,-4.0033,-4.0921,-4.182,-4.2661,-4.2661,-4.455,-4.6798,-4.6798,-4.8492,-5.0419,-5.0419,-5.082,-5.1348,-5.1599,-5.1674,-5.1825,-5.2377,-5.2076,-5.1749,-5.2026,-5.2076,-5.2076,-5.2076,-5.4288,-5.6495,-5.7409,-5.9915,-6.2028,-6.2933,-6.3079,-6.3079,-6.3079,-6.278,-6.257,-6.257,-6.2271,-6.1942,-6.1613,-6.1583,-6.1283,-6.0625,-6.0565,-6.0416,-6.0086,-6.0086,-6.0266,-6.0625,-6.0625,-6.0805,-6.1134,-6.0475,-6.0146,-6.0146,-5.9787,-5.9608,0.0,0.0,-4.1358,-3.9086,-3.8516,0.0,-3.8574,-4.0033,-4.085,0.0,0.0,0.0,0.0,0.0,0.0,0.0,0.0,0.0,0.0,0.0,0.0,0.0,0.0,0.0,0.0,0.0,0.0,0.0,0.0,-3.896,-4.0736,-4.007,-4.0317,-4.1767,-3.9996,-3.9059,-3.9059,-3.7307,-3.6471,-3.6471,-3.6152,-3.6055,-3.6133,-3.6133,-3.6094,-3.6016,-3.6016,-3.6016,-3.6094,-3.6953,-3.7305,-3.7383,-3.8242,-3.8793,-3.9261,-4.0779,-4.1538,-4.2031,-4.3565,-4.4299,-4.4573,-4.4573,-4.5794,-4.7311,-4.7407,-4.8861,-5.0594,-5.067,-5.1122,-5.1674,-5.2126,-5.2251,-5.2352,-5.2829,-5.2578,-5.2377,-5.2829,-5.311,-5.3291,-5.3291,-5.6103,-5.8509,-5.8821,-6.1228,-6.3079,-6.3079,-6.3079,-6.3079,-6.3079,-6.2989,-6.2959,-6.3079,-6.2989,-6.272,-6.2301,-6.2271,-6.1942,-6.1164,-6.1224,-6.1194,-6.0954,-6.0505,-6.0266,-6.0266,-6.0027,-5.9967,-6.0086,-5.9428,-5.9099,-5.9099,-5.9099,-5.9099,0.0,0.0,-3.9744,0.0,-3.8301,-3.8574,0.0,0.0,0.0,0.0,0.0,0.0,0.0,0.0,0.0,0.0,0.0,0.0,0.0,0.0,0.0,0.0,0.0,0.0,0.0,0.0,0.0,0.0,-3.9855,-4.0388,-4.2037,-4.1728,-4.1571,-4.1767,-4.1169,-4.086,-4.086,-3.9125,-3.8287,-3.8221,-3.6722,-3.6211,-3.6582,-3.6582,-3.6367,-3.6016,-3.6016,-3.6016,-3.6094,-3.6953,-3.7305,-3.7383,-3.8242,-3.955,-4.0992,-4.1184,-4.2312,-4.3772,-4.4047,-4.5118,-4.6465,-4.6465,-4.7707,-4.9342,-4.9816,-5.0497,-5.1272,-5.1749,-5.2277,-5.2729,-5.2804,-5.2829,-5.2829,-5.2904,-5.2879,-5.2829,-5.2904,-5.4055,-5.5049,-5.5049,-5.7823,-6.0629,-6.2175,-6.2817,-6.3079,-6.3079,-6.3079,-6.3079,-6.3079,-6.257,-6.245,-6.3019,-6.257,-6.2421,-6.2899,-6.2959,-6.2421,-6.1194,-6.1642,-6.1433,-6.0266,-6.0715,-6.0984,-6.0984,-5.9847,-5.9518,-6.0086,-5.9428,-5.9099,-5.9099,-5.9099,-5.9099,-3.7018,-3.7919,-3.8257,0.0,-3.9014,-4.0085,-4.0085,0.0,0.0,0.0,0.0,0.0,0.0,0.0,0.0,0.0,0.0,0.0,0.0,0.0,0.0,0.0,0.0,0.0,0.0,0.0,0.0,0.0,-4.0629,-4.1684,-4.341,-4.3119,-4.3285,-4.4275,-4.32,-4.258,-4.258,-4.0924,-3.9562,-3.8597,-3.8089,-3.7385,-3.668,-3.6914,-3.6797,-3.6387,-3.6387,-3.625,-3.6094,-3.6953,-3.7305,-3.7524,-3.9403,-4.0565,-4.1538,-4.3589,-4.4891,-4.5727,-4.6846,-4.7731,-4.8347,-4.8347,-4.8893,-4.969,-5.0243,-5.082,-5.1398,-5.195,-5.2503,-5.2929,-5.2929,-5.2929,-5.2929,-5.2929,-5.2929,-5.3179,-5.4122,-5.4849,-5.5984,-5.7886,-5.9475,-6.105,-6.2817,-6.3079,-6.3079,-6.3079,-6.3079,-6.3079,-6.3079,-6.281,-6.26,-6.254,-6.26,-6.26,-6.254,-6.2869,-6.2839,-6.2241,-6.248,-6.2211,-6.1253,-6.1493,-6.1493,-6.1134,-6.0535,-6.0386,-6.0655,-5.9997,-5.9668,-5.9638,-5.9279,-5.9099,0.0,0.0,-3.7352,-3.7649,-3.9374,-4.1053,0.0,0.0,0.0,0.0,0.0,0.0,0.0,0.0,0.0,0.0,0.0,0.0,0.0,0.0,0.0,0.0,0.0,0.0,0.0,0.0,0.0,0.0,0.0,-4.3008,-4.4765,-4.4529,-4.4951,-4.624,-4.5013,-4.4374,-4.4374,-4.2706,-4.0797,-3.8786,-3.9055,-3.8419,-3.7012,-3.7324,-3.7285,-3.6992,-3.6875,-3.6582,-3.625,-3.7649,-3.8067,-3.8257,-4.099,-4.229,-4.3035,-4.5771,-4.7088,-4.7707,-4.9112,-4.959,-4.959,-4.959,-4.959,-4.9715,-5.0419,-5.0946,-5.1423,-5.2126,-5.2603,-5.2929,-5.2929,-5.2929,-5.2929,-5.2929,-5.2929,-5.3495,-5.5617,-5.6375,-5.7569,-6.0569,-6.1198,-6.1585,-6.2875,-6.3079,-6.3079,-6.3079,-6.3079,-6.3079,-6.3079,-6.278,-6.245,-6.2121,-6.2241,-6.2181,-6.1882,-6.245,-6.275,-6.26,-6.2899,-6.278,-6.2121,-6.2241,-6.2121,-6.1613,-6.1613,-6.1433,-6.1104,-6.0595,-6.0356,-6.0326,-5.9847,-5.9608,0.0,-3.5986,0.0,-3.7312,0.0,0.0,0.0,0.0,0.0,0.0,0.0,0.0,0.0,0.0,0.0,0.0,0.0,0.0,0.0,0.0,0.0,0.0,0.0,0.0,0.0,0.0,0.0,0.0,0.0,-4.4336,-4.6109,-4.6205,-4.618,-4.6301,-4.618,-4.618,-4.618,-4.4436,-4.2089,-3.9181,-3.9202,-3.8725,-3.7851,-3.7891,-3.7871,-3.7832,-3.7441,-3.7031,-3.6838,-3.9445,-4.0312,-4.0225,-4.2914,-4.4982,-4.6532,-4.6732,-4.7929,-4.9461,-4.959,-4.959,-4.959,-4.959,-4.959,-4.9791,-5.0896,-5.1247,-5.1498,-5.2578,-5.2904,-5.2929,-5.2929,-5.2929,-5.2929,-5.2929,-5.2929,-5.381,-5.7176,-5.9104,-6.081,-6.2613,-6.2933,-6.2991,-6.3079,-6.3079,-6.3079,-6.3079,-6.3079,-6.3079,-6.3079,-6.2002,-6.1433,-6.2032,-6.0984,-6.0505,-6.1104,-6.1762,-6.1882,-6.1253,-6.2391,-6.278,-6.2121,-6.269,-6.3019,-6.2989,-6.2989,-6.2361,-6.1104,-6.1074,-6.1074,-6.1074,-6.1014,-6.1014,0.0,0.0,0.0,0.0,0.0,0.0,0.0,0.0,0.0,0.0,0.0,0.0,0.0,0.0,0.0,0.0,0.0,0.0,0.0,0.0,0.0,0.0,0.0,0.0,0.0,0.0,0.0,0.0,0.0,0.0,-4.624,-4.6301,-4.6301,-4.6301,-4.6301,-4.6301,-4.6301,-4.6018,-4.4199,-4.0847,-4.1548,-4.0477,-3.793,-3.8223,-3.834,-3.834,-3.8184,-3.7715,-3.7249,-3.9729,-4.064,-4.0811,-4.4437,-4.6197,-4.6955,-4.8126,-4.9023,-4.959,-4.959,-4.959,-4.959,-4.959,-4.9841,-5.0268,-5.1046,-5.1523,-5.1975,-5.2703,-5.2929,-5.2929,-5.2929,-5.2929,-5.2929,-5.2929,-5.4567,-5.6493,-5.7751,-6.0205,-6.235,-6.3021,-6.3079,-6.3079,-6.3079,-6.3079,-6.3079,-6.3079,-6.3079,-6.3079,-6.3079,-6.2301,-6.1672,-6.1493,-6.1044,-6.0835,-6.1104,-6.1343,-6.1732,-6.2331,-6.2421,-6.2331,-6.2121,-6.272,-6.2869,-6.245,-6.2869,-6.2839,-6.2361,-6.1942,-6.1732,-6.1732,-6.1313,-6.1104,-3.3398,0.0,0.0,0.0,0.0,0.0,0.0,0.0,0.0,0.0,0.0,0.0,0.0,0.0,0.0,0.0,0.0,0.0,0.0,0.0,0.0,0.0,0.0,0.0,0.0,0.0,0.0,0.0,0.0,0.0,-4.6828,-4.6677,-4.6502,-4.6326,-4.6301,-4.6301,-4.6301,-4.6853,-4.5392,-4.2013,-4.2906,-4.1481,-3.8164,-3.8437,-3.8574,-3.8574,-3.8574,-3.8164,-3.7752,-4.0626,-4.1753,-4.199,-4.6143,-4.7707,-4.7904,-4.9177,-4.959,-4.959,-4.959,-4.959,-4.959,-4.959,-4.9967,-5.0519,-5.1096,-5.1674,-5.2226,-5.2779,-5.2929,-5.2929,-5.2929,-5.3291,-5.3742,-5.3742,-5.6497,-5.9192,-5.9192,-6.1253,-6.3079,-6.3079,-6.3258,-6.3378,-6.3378,-6.3588,-6.3737,-6.3737,-6.3737,-6.3737,-6.3737,-6.3139,-6.248,-6.1852,-6.1583,-6.1343,-6.1134,-6.1523,-6.2061,-6.272,-6.275,-6.254,-6.2121,-6.272,-6.278,-6.2121,-6.275,-6.3079,-6.3079,-6.263,-6.2421,-6.2421,-6.1972,-6.1762,0.0,0.0,0.0,0.0,0.0,0.0,0.0,0.0,0.0,0.0,0.0,0.0,0.0,0.0,0.0,0.0,0.0,0.0,0.0,0.0,0.0,0.0,0.0,0.0,0.0,0.0,0.0,0.0,0.0,-4.7355,-4.7883,-4.7405,-4.6878,-4.6326,-4.6301,-4.6326,-4.6326,-4.6878,-4.5522,-4.2438,-4.3018,-4.1674,-3.8574,-3.8574,-3.8574,-3.8574,-3.8555,-3.8393,-3.8327,-4.2397,-4.3871,-4.3871,-4.7996,-4.959,-4.959,-4.959,-4.959,-4.959,-4.959,-4.959,-4.959,-4.9615,-4.9992,-5.0544,-5.1122,-5.1699,-5.2251,-5.2779,-5.2929,-5.2929,-5.2929,-5.419,-5.5446,-5.5446,-5.851,-6.1549,-6.1549,-6.238,-6.3139,-6.3139,-6.3617,-6.4036,-6.4036,-6.4575,-6.5024,-6.5024,-6.5024,-6.5024,-6.5024,-6.4425,-6.3767,-6.3139,-6.251,-6.1882,-6.1224,-6.2331,-6.281,-6.2211,-6.3318,-6.3438,-6.2211,-6.275,-6.278,-6.2121,-6.275,-6.3079,-6.3079,-6.3079,-6.3079,-6.3079,-6.3079,-6.3079,-3.2207,0.0,0.0,0.0,0.0,0.0,0.0,0.0,0.0,0.0,0.0,0.0,0.0,0.0,0.0,0.0,0.0,0.0,0.0,0.0,0.0,0.0,0.0,0.0,0.0,0.0,0.0,0.0,-4.7068,-4.7355,-4.7883,-4.7405,-4.6878,-4.6326,-4.6301,-4.6502,-4.6842,-4.7431,-4.6118,-4.304,-4.36,-4.2043,-3.8574,-3.8574,-3.8574,-3.8555,-3.8242,-3.8974,-4.0522,-4.3083,-4.4573,-4.5583,-4.8475,-4.959,-4.959,-4.959,-4.959,-4.959,-4.959,-4.959,-4.9665,-5.0067,-5.0569,-5.1147,-5.1699,-5.2251,-5.2729,-5.2879,-5.2929,-5.2929,-5.2929,-5.4473,-5.6093,-5.6093,-5.9211,-6.2212,-6.2212,-6.3379,-6.4485,-6.4485,-6.4635,-6.4755,-6.4755,-6.4904,-6.5024,-6.5024,-6.5024,-6.5024,-6.5024,-6.4425,-6.3767,-6.3139,-6.2899,-6.272,-6.254,-6.2869,-6.3408,-6.4156,-6.3647,-6.3378,-6.3468,-6.3228,-6.2989,-6.281,-6.2989,-6.3079,-6.3079,-6.3079,-6.3079,-6.3079,-6.3079,-6.3079,-3.168,-3.1894,-3.2187,0.0,0.0,0.0,0.0,0.0,0.0,0.0,0.0,0.0,0.0,0.0,0.0,0.0,0.0,0.0,0.0,0.0,0.0,0.0,0.0,0.0,0.0,0.0,0.0,-4.7431,-4.7255,-4.7255,-4.7581,-4.7305,-4.6878,-4.6326,-4.6301,-4.6577,-4.7068,-4.7657,-4.6335,-4.3309,-4.387,-4.2171,-3.8574,-3.8379,-3.8301,-3.8281,-3.7851,-3.9221,-4.1938,-4.3235,-4.4841,-4.655,-4.8704,-4.959,-4.959,-4.959,-4.959,-4.959,-4.959,-4.9741,-4.9992,-5.0318,-5.0971,-5.1674,-5.2,-5.2477,-5.2929,-5.2929,-5.2929,-5.3092,-5.4091,-5.5919,-5.771,-5.8739,-6.1478,-6.3989,-6.3989,-6.4927,-6.5682,-6.5144,-6.5263,-6.5443,-6.5443,-6.5652,-6.5832,-6.5832,-6.5832,-6.5832,-6.5832,-6.5503,-6.4994,-6.4366,-6.4306,-6.4066,-6.3498,-6.3977,-6.4395,-6.4575,-6.4425,-6.4096,-6.3617,-6.3528,-6.3199,-6.266,-6.2929,-6.3079,-6.3079,-6.3079,-6.3079,-6.3079,-6.3079,-6.3079,-3.0996,-3.1445,-3.1953,-3.1601,0.0,0.0,-3.5666,-3.5136,0.0,0.0,0.0,0.0,0.0,0.0,0.0,0.0,0.0,0.0,0.0,0.0,0.0,0.0,0.0,0.0,0.0,-4.7079,-4.7255,-4.7782,-4.7456,-4.7143,-4.7068,-4.7068,-4.6878,-4.6326,-4.6301,-4.6602,-4.7143,-4.7682,-4.6335,-4.3309,-4.387,-4.2129,-3.8418,-3.8282,-3.8177,-3.8098,-3.7685,-3.9619,-4.3015,-4.3242,-4.4769,-4.7215,-4.8933,-4.959,-4.959,-4.959,-4.959,-4.959,-4.959,-4.9967,-5.0419,-5.0494,-5.1247,-5.2126,-5.2176,-5.2528,-5.2929,-5.2929,-5.298,-5.3493,-5.5849,-5.7829,-5.9762,-6.2068,-6.4379,-6.6131,-6.6131,-6.658,-6.664,-6.5473,-6.5712,-6.6131,-6.6131,-6.661,-6.6999,-6.6999,-6.6999,-6.6999,-6.6999,-6.6999,-6.6729,-6.6071,-6.6071,-6.5592,-6.4336,-6.5383,-6.5592,-6.4395,-6.5383,-6.5233,-6.3468,-6.3767,-6.3468,-6.2331,-6.281,-6.3079,-6.3079,-6.3079,-6.3079,-6.3079,-6.3079,-6.3079,0.0,-3.1016,-3.1211,-3.1445,-3.1836,0.0,-3.3325,-3.3552,0.0,0.0,0.0,0.0,0.0,0.0,0.0,0.0,0.0,0.0,0.0,0.0,0.0,0.0,0.0,0.0,0.0,-4.6728,-4.6702,-4.7255,-4.7581,-4.7581,-4.7093,-4.7068,-4.6878,-4.6326,-4.6301,-4.6778,-4.7732,-4.7857,-4.6399,-4.3377,-4.387,-4.1786,-3.7629,-3.9242,-3.984,-3.9468,-3.9013,-4.1281,-4.5216,-4.3615,-4.5118,-4.849,-4.9286,-4.959,-4.959,-4.959,-4.959,-4.959,-4.959,-4.9967,-5.0494,-5.0971,-5.1574,-5.2176,-5.2628,-5.2854,-5.2929,-5.2929,-5.3231,-5.3948,-5.5928,-5.8425,-6.0905,-6.2876,-6.5117,-6.6789,-6.6789,-6.6909,-6.6909,-6.667,-6.67,-6.6789,-6.6789,-6.6909,-6.6999,-6.6999,-6.6999,-6.6999,-6.6999,-6.6999,-6.6729,-6.6071,-6.649,-6.649,-6.5682,-6.634,-6.67,-6.643,-6.6161,-6.5832,-6.5443,-6.4515,-6.3887,-6.3617,-6.3258,-6.3079,-6.3079,-6.3079,-6.3079,-6.3079,-6.3079,-6.3079,0.0,0.0,-3.0937,-3.1152,-3.1367,0.0,0.0,0.0,0.0,0.0,0.0,0.0,0.0,0.0,0.0,0.0,0.0,0.0,0.0,0.0,0.0,0.0,0.0,0.0,0.0,-4.6476,-4.6426,-4.6702,-4.723,-4.728,-4.6753,-4.6728,-4.6602,-4.6326,-4.6301,-4.6702,-4.7506,-4.7531,-4.6416,-4.4282,-4.3645,-4.2095,-3.9825,-3.9825,-4.0244,-4.0796,-4.0386,-4.2296,-4.5657,-4.4505,-4.6141,-4.9213,-4.949,-4.959,-4.959,-4.959,-4.959,-4.964,-4.9916,-5.0368,-5.0946,-5.1498,-5.2076,-5.2578,-5.2854,-5.2929,-5.298,-5.3231,-5.3507,-5.4479,-5.7718,-5.9714,-6.1557,-6.4551,-6.6147,-6.6999,-6.6999,-6.6999,-6.6999,-6.6999,-6.6999,-6.6999,-6.6999,-6.6999,-6.6999,-6.6999,-6.6999,-6.6999,-6.6999,-6.6999,-6.6879,-6.652,-6.6789,-6.6729,-6.6071,-6.661,-6.6849,-6.652,-6.649,-6.634,-6.6011,-6.5353,-6.4695,-6.4006,-6.3378,-6.3079,-6.3079,-6.3079,-6.3079,-6.3079,-6.3079,-6.3079,0.0,0.0,0.0,-3.0898,-3.0957,-3.1172,0.0,0.0,0.0,0.0,0.0,0.0,0.0,0.0,0.0,0.0,0.0,0.0,0.0,0.0,0.0,0.0,0.0,0.0,0.0,-4.625,-4.6301,-4.6301,-4.6728,-4.6778,-4.6326,-4.6301,-4.6301,-4.6301,-4.6301,-4.6577,-4.7068,-4.7068,-4.6439,-4.5093,-4.3713,-4.279,-4.2126,-4.0779,-4.0935,-4.213,-4.1579,-4.3037,-4.5878,-4.5243,-4.6859,-4.959,-4.959,-4.959,-4.959,-4.959,-4.959,-4.9665,-5.0218,-5.0795,-5.1373,-5.1925,-5.2477,-5.2929,-5.2929,-5.2929,-5.303,-5.3557,-5.4037,-5.54,-5.9679,-6.1125,-6.2397,-6.6112,-6.6999,-6.6999,-6.6999,-6.6999,-6.6999,-6.6999,-6.6999,-6.6999,-6.6999,-6.6999,-6.6999,-6.6999,-6.6999,-6.6999,-6.6999,-6.6999,-6.6999,-6.6999,-6.6999,-6.6759,-6.6251,-6.67,-6.6759,-6.6221,-6.67,-6.6759,-6.6221,-6.5951,-6.5263,-6.4006,-6.3378,-6.3079,-6.3079,-6.3079,-6.3079,-6.3079,-6.3079,-6.3079,0.0,0.0,0.0,0.0,-3.1172,-3.1367,0.0,0.0,-3.2031,0.0,0.0,0.0,0.0,0.0,0.0,0.0,0.0,0.0,0.0,0.0,0.0,0.0,0.0,0.0,0.0,0.0,0.0,-4.6301,-4.6376,-4.6376,-4.6301,-4.6301,-4.6301,-4.6301,-4.6301,-4.6577,-4.7068,-4.7068,-4.6266,-4.4698,-4.4829,-4.3623,-4.1425,-4.3032,-4.3686,-4.3451,-4.2233,-4.3939,-4.7408,-4.477,-4.5969,-4.959,-4.959,-4.959,-4.959,-4.959,-4.959,-4.9665,-5.0218,-5.0795,-5.1373,-5.1925,-5.2477,-5.2929,-5.2929,-5.2929,-5.303,-5.3557,-5.5237,-5.7486,-6.0121,-6.2351,-6.4416,-6.6508,-6.6999,-6.6999,-6.6999,-6.6999,-6.6999,-6.6999,-6.6999,-6.6999,-6.6999,-6.6999,-6.6999,-6.6999,-6.6999,-6.6999,-6.6999,-6.6999,-6.6999,-6.6999,-6.6999,-6.6969,-6.6879,-6.6939,-6.6969,-6.6879,-6.6939,-6.6969,-6.6879,-6.5772,-6.4784,-6.4006,-6.3378,-6.3079,-6.3079,-6.3079,-6.3079,-6.3079,-6.3079,-6.3079,0.0,0.0,0.0,0.0,0.0,0.0,-3.1055,0.0,-3.1445,0.0,0.0,0.0,0.0,0.0,0.0,0.0,0.0,0.0,0.0,0.0,0.0,0.0,0.0,0.0,0.0,0.0,0.0,0.0,0.0,-4.5824,-4.5824,-4.6125,-4.6301,-4.6301,-4.6301,-4.6426,-4.6652,-4.6652,-4.6262,-4.5564,-4.4741,-4.4284,-4.4127,-4.4031,-4.4443,-4.5184,-4.4991,-4.605,-4.7808,-4.6907,-4.7727,-4.959,-4.959,-4.959,-4.959,-4.959,-4.959,-4.9715,-5.0619,-5.1071,-5.1423,-5.2302,-5.2729,-5.2929,-5.2929,-5.2929,-5.3105,-5.3959,-5.5684,-5.7916,-6.0587,-6.2755,-6.4758,-6.657,-6.6999,-6.6999,-6.6999,-6.6999,-6.6999,-6.6999,-6.6999,-6.6999,-6.6999,-6.6999,-6.6999,-6.6999,-6.6999,-6.6999,-6.6999,-6.6999,-6.6999,-6.6999,-6.6999,-6.6999,-6.6999,-6.6999,-6.6999,-6.6999,-6.6999,-6.6999,-6.6999,-6.5712,-6.4904,-6.4605,-6.3588,-6.3079,-6.3079,-6.3079,-6.3079,-6.3079,-6.3079,-6.2555,-3.1934,0.0,0.0,0.0,0.0,0.0,0.0,0.0,0.0,0.0,0.0,0.0,0.0,0.0,0.0,0.0,0.0,0.0,0.0,0.0,0.0,0.0,0.0,0.0,0.0,0.0,0.0,0.0,0.0,0.0,-4.5472,-4.5874,-4.615,-4.6301,-4.6301,-4.6301,-4.6301,-4.6301,-4.6301,-4.6301,-4.5013,-4.5074,-4.624,-4.5013,-4.5172,-4.6491,-4.6526,-4.7197,-4.8121,-4.8203,-4.8739,-4.959,-4.959,-4.959,-4.959,-4.959,-4.969,-4.9967,-5.0946,-5.1473,-5.1875,-5.2678,-5.2929,-5.2929,-5.2929,-5.303,-5.34,-5.4962,-5.6771,-5.89,-6.1586,-6.3671,-6.5358,-6.6723,-6.6999,-6.6999,-6.6999,-6.6999,-6.6999,-6.6999,-6.6999,-6.6999,-6.6999,-6.6999,-6.6999,-6.6999,-6.6999,-6.6999,-6.6999,-6.6999,-6.6999,-6.6999,-6.6999,-6.6999,-6.6999,-6.6999,-6.6999,-6.6999,-6.6999,-6.6999,-6.6999,-6.5712,-6.4755,-6.4305,-6.3032,-6.2263,-6.1937,-6.244,-6.2381,-6.1937,-6.2263,-6.1703,0.0,0.0,0.0,-3.2148,0.0,0.0,0.0,0.0,-3.1504,0.0,0.0,0.0,0.0,0.0,0.0,0.0,0.0,0.0,0.0,0.0,0.0,0.0,0.0,0.0,0.0,0.0,0.0,0.0,0.0,0.0,-4.5472,-4.5497,-4.5748,-4.6301,-4.6301,-4.6301,-4.6301,-4.6301,-4.6301,-4.6301,-4.624,-4.624,-4.6301,-4.624,-4.6541,-4.7007,-4.5764,-4.6576,-4.866,-4.7399,-4.797,-4.959,-4.959,-4.959,-4.959,-4.959,-4.9941,-5.0469,-5.1071,-5.1975,-5.2879,-5.2929,-5.2929,-5.2929,-5.2929,-5.3281,-5.4201,-5.6552,-5.8914,-6.1219,-6.3593,-6.5576,-6.6908,-6.6999,-6.6999,-6.6999,-6.6999,-6.6999,-6.6999,-6.6999,-6.6999,-6.6999,-6.6999,-6.6999,-6.6999,-6.6999,-6.6999,-6.6999,-6.6999,-6.6999,-6.6999,-6.6999,-6.6999,-6.6999,-6.6999,-6.6999,-6.6999,-6.6999,-6.6999,-6.6999,-6.6999,-6.5712,-6.4245,-6.2596,-6.1264,-6.0034,-5.8925,-6.0688,-6.066,-5.8989,-6.0095,-6.054,0.0,0.0,-3.3711,-3.3144,0.0,0.0,0.0,0.0,0.0,0.0,0.0,0.0,0.0,0.0,0.0,0.0,0.0,0.0,0.0,0.0,0.0,0.0,0.0,0.0,0.0,0.0,0.0,0.0,0.0,0.0,0.0,-4.5271,-4.5748,-4.6301,-4.6301,-4.6301,-4.6301,-4.6301,-4.6301,-4.6301,-4.6301,-4.6301,-4.6326,-4.6702,-4.6954,-4.7118,-4.7431,-4.8054,-4.8812,-4.867,-4.9047,-4.959,-4.959,-4.959,-4.959,-4.959,-4.9941,-5.0544,-5.1498,-5.2302,-5.2929,-5.2929,-5.2929,-5.2929,-5.2929,-5.3281,-5.4201,-5.6621,-5.8981,-6.1378,-6.3658,-6.5639,-6.6999,-6.6999,-6.6999,-6.6999,-6.6999,-6.6999,-6.6999,-6.6999,-6.6999,-6.6999,-6.6999,-6.6999,-6.6999,-6.6999,-6.6999,-6.6999,-6.6999,-6.6999,-6.6999,-6.6999,-6.6999,-6.6999,-6.6999,-6.6999,-6.6999,-6.6999,-6.6999,-6.6999,-6.6999,-6.6131,-6.4689,-6.2534,-6.1636,-6.0365,-5.876,-5.94,-5.9559,-5.9301,-5.856,-5.7846,-3.4512,-3.4629,0.0,-3.4004,-3.3437,0.0,-3.2324,0.0,-3.1797,0.0,0.0,0.0,0.0,0.0,0.0,0.0,0.0,0.0,0.0,0.0,0.0,0.0,0.0,0.0,0.0,0.0,0.0,0.0,0.0,0.0,0.0,0.0,-4.5522,-4.6276,-4.6301,-4.6301,-4.6301,-4.6301,-4.6301,-4.6301,-4.6301,-4.6301,-4.6326,-4.6878,-4.7168,-4.7456,-4.8385,-4.8887,-4.9088,-4.9439,-4.959,-4.959,-4.959,-4.959,-4.959,-4.959,-5.0067,-5.0896,-5.2,-5.2628,-5.2929,-5.2929,-5.2929,-5.2929,-5.2929,-5.3891,-5.5418,-5.7357,-5.9885,-6.2454,-6.4381,-6.5929,-6.6999,-6.6999,-6.6999,-6.6999,-6.6999,-6.6999,-6.6999,-6.6999,-6.6999,-6.6999,-6.6999,-6.6999,-6.6999,-6.6999,-6.6999,-6.6999,-6.6999,-6.6999,-6.6999,-6.6999,-6.6999,-6.6999,-6.6999,-6.6999,-6.6999,-6.6999,-6.6999,-6.6999,-6.6999,-6.5761,-6.3976,-6.1655,-6.0308,-5.887,-5.7277,-5.7914,-5.8238,-5.8091,-5.7683,-5.6594]}]]